<?xml version="1.0" encoding="UTF-8" standalone="no" ?>
<gpx xmlns="http://www.topografix.com/GPX/1/1" xmlns:xsi="http://www.w3.org/2001/XMLSchema-instance" xsi:schemaLocation="http://www.topografix.com/GPX/1/1 http://www.topografix.com/GPX/1/1/gpx.xsd" version="1.1" creator="VisuGPX - https://www.visugpx.com">
  <metadata>
    <name>Port Lesney,La Chapelle de Lorette,Champagne sur Loue,Les vignes du Val d'Amour,Le Belvédère Edgar Faure.</name>
  </metadata>
  <trk>
    <name><![CDATA[Port Lesney,La Chapelle de Lorette,Champagne sur Loue,Les vignes du Val d'Amour,Le Belvédère Edgar Faure._1]]></name>
    <trkseg>
      <trkpt lat="47.00364" lon="5.82311">
        <ele>258.6</ele>
        <time>2020-07-07T06:56:51Z</time>
      </trkpt>
      <trkpt lat="47.00363" lon="5.82302">
        <ele>246.1</ele>
        <time>2020-07-07T06:59:04Z</time>
      </trkpt>
      <trkpt lat="47.00363" lon="5.82295">
        <ele>246</ele>
        <time>2020-07-07T06:59:07Z</time>
      </trkpt>
      <trkpt lat="47.00365" lon="5.82288">
        <ele>246</ele>
        <time>2020-07-07T06:59:11Z</time>
      </trkpt>
      <trkpt lat="47.00366" lon="5.82279">
        <ele>245.9</ele>
        <time>2020-07-07T06:59:19Z</time>
      </trkpt>
      <trkpt lat="47.00367" lon="5.82272">
        <ele>245.8</ele>
        <time>2020-07-07T06:59:22Z</time>
      </trkpt>
      <trkpt lat="47.00368" lon="5.82265">
        <ele>245.7</ele>
        <time>2020-07-07T06:59:26Z</time>
      </trkpt>
      <trkpt lat="47.00368" lon="5.82258">
        <ele>245.3</ele>
        <time>2020-07-07T06:59:31Z</time>
      </trkpt>
      <trkpt lat="47.00369" lon="5.82251">
        <ele>244.7</ele>
        <time>2020-07-07T06:59:39Z</time>
      </trkpt>
      <trkpt lat="47.0037" lon="5.82243">
        <ele>244.4</ele>
        <time>2020-07-07T06:59:45Z</time>
      </trkpt>
      <trkpt lat="47.0037" lon="5.82236">
        <ele>244.2</ele>
        <time>2020-07-07T06:59:50Z</time>
      </trkpt>
      <trkpt lat="47.00368" lon="5.8223">
        <ele>243.7</ele>
        <time>2020-07-07T06:59:58Z</time>
      </trkpt>
      <trkpt lat="47.00364" lon="5.82229">
        <ele>243.9</ele>
        <time>2020-07-07T07:00:29Z</time>
      </trkpt>
      <trkpt lat="47.00361" lon="5.82235">
        <ele>242.2</ele>
        <time>2020-07-07T07:00:51Z</time>
      </trkpt>
      <trkpt lat="47.00356" lon="5.82235">
        <ele>241.6</ele>
        <time>2020-07-07T07:00:58Z</time>
      </trkpt>
      <trkpt lat="47.00351" lon="5.82237">
        <ele>241.5</ele>
        <time>2020-07-07T07:01:04Z</time>
      </trkpt>
      <trkpt lat="47.00347" lon="5.82239">
        <ele>241.7</ele>
        <time>2020-07-07T07:01:09Z</time>
      </trkpt>
      <trkpt lat="47.00341" lon="5.82239">
        <ele>241.9</ele>
        <time>2020-07-07T07:01:15Z</time>
      </trkpt>
      <trkpt lat="47.00337" lon="5.82241">
        <ele>241.8</ele>
        <time>2020-07-07T07:01:21Z</time>
      </trkpt>
      <trkpt lat="47.00332" lon="5.82242">
        <ele>241.7</ele>
        <time>2020-07-07T07:01:26Z</time>
      </trkpt>
      <trkpt lat="47.00327" lon="5.82243">
        <ele>241.9</ele>
        <time>2020-07-07T07:01:33Z</time>
      </trkpt>
      <trkpt lat="47.00322" lon="5.82245">
        <ele>242.2</ele>
        <time>2020-07-07T07:01:38Z</time>
      </trkpt>
      <trkpt lat="47.00318" lon="5.82246">
        <ele>242.5</ele>
        <time>2020-07-07T07:01:42Z</time>
      </trkpt>
      <trkpt lat="47.00313" lon="5.82247">
        <ele>242.9</ele>
        <time>2020-07-07T07:01:47Z</time>
      </trkpt>
      <trkpt lat="47.00308" lon="5.82249">
        <ele>242.8</ele>
        <time>2020-07-07T07:01:53Z</time>
      </trkpt>
      <trkpt lat="47.00303" lon="5.8225">
        <ele>242.6</ele>
        <time>2020-07-07T07:01:59Z</time>
      </trkpt>
      <trkpt lat="47.00299" lon="5.82251">
        <ele>242.7</ele>
        <time>2020-07-07T07:02:07Z</time>
      </trkpt>
      <trkpt lat="47.00294" lon="5.82254">
        <ele>242.7</ele>
        <time>2020-07-07T07:02:10Z</time>
      </trkpt>
      <trkpt lat="47.00289" lon="5.82257">
        <ele>242.6</ele>
        <time>2020-07-07T07:02:14Z</time>
      </trkpt>
      <trkpt lat="47.00284" lon="5.82257">
        <ele>242.3</ele>
        <time>2020-07-07T07:02:19Z</time>
      </trkpt>
      <trkpt lat="47.00279" lon="5.82258">
        <ele>242.1</ele>
        <time>2020-07-07T07:02:25Z</time>
      </trkpt>
      <trkpt lat="47.00274" lon="5.82259">
        <ele>242.2</ele>
        <time>2020-07-07T07:02:30Z</time>
      </trkpt>
      <trkpt lat="47.0027" lon="5.82261">
        <ele>242.3</ele>
        <time>2020-07-07T07:02:34Z</time>
      </trkpt>
      <trkpt lat="47.00265" lon="5.82263">
        <ele>242.3</ele>
        <time>2020-07-07T07:02:43Z</time>
      </trkpt>
      <trkpt lat="47.0026" lon="5.82265">
        <ele>241.7</ele>
        <time>2020-07-07T07:02:49Z</time>
      </trkpt>
      <trkpt lat="47.00256" lon="5.82267">
        <ele>241.2</ele>
        <time>2020-07-07T07:02:53Z</time>
      </trkpt>
      <trkpt lat="47.00251" lon="5.82269">
        <ele>240.4</ele>
        <time>2020-07-07T07:03:00Z</time>
      </trkpt>
      <trkpt lat="47.00245" lon="5.82269">
        <ele>240.2</ele>
        <time>2020-07-07T07:03:03Z</time>
      </trkpt>
      <trkpt lat="47.0024" lon="5.82267">
        <ele>240.2</ele>
        <time>2020-07-07T07:03:07Z</time>
      </trkpt>
      <trkpt lat="47.00233" lon="5.82267">
        <ele>240.3</ele>
        <time>2020-07-07T07:03:10Z</time>
      </trkpt>
      <trkpt lat="47.00228" lon="5.82267">
        <ele>240.5</ele>
        <time>2020-07-07T07:03:13Z</time>
      </trkpt>
      <trkpt lat="47.00224" lon="5.82264">
        <ele>240.9</ele>
        <time>2020-07-07T07:03:18Z</time>
      </trkpt>
      <trkpt lat="47.00219" lon="5.82254">
        <ele>241.6</ele>
        <time>2020-07-07T07:03:34Z</time>
      </trkpt>
      <trkpt lat="47.0022" lon="5.82246">
        <ele>241.3</ele>
        <time>2020-07-07T07:03:40Z</time>
      </trkpt>
      <trkpt lat="47.00221" lon="5.82239">
        <ele>240.9</ele>
        <time>2020-07-07T07:03:45Z</time>
      </trkpt>
      <trkpt lat="47.00221" lon="5.82232">
        <ele>240.7</ele>
        <time>2020-07-07T07:03:50Z</time>
      </trkpt>
      <trkpt lat="47.00219" lon="5.82224">
        <ele>240.6</ele>
        <time>2020-07-07T07:03:56Z</time>
      </trkpt>
      <trkpt lat="47.00218" lon="5.82217">
        <ele>240.8</ele>
        <time>2020-07-07T07:04:01Z</time>
      </trkpt>
      <trkpt lat="47.00217" lon="5.82211">
        <ele>240.7</ele>
        <time>2020-07-07T07:04:06Z</time>
      </trkpt>
      <trkpt lat="47.00217" lon="5.82204">
        <ele>240.5</ele>
        <time>2020-07-07T07:04:12Z</time>
      </trkpt>
      <trkpt lat="47.00217" lon="5.82198">
        <ele>240.5</ele>
        <time>2020-07-07T07:04:18Z</time>
      </trkpt>
      <trkpt lat="47.00216" lon="5.82191">
        <ele>240.5</ele>
        <time>2020-07-07T07:04:22Z</time>
      </trkpt>
      <trkpt lat="47.00214" lon="5.82183">
        <ele>240.6</ele>
        <time>2020-07-07T07:04:25Z</time>
      </trkpt>
      <trkpt lat="47.00213" lon="5.82176">
        <ele>240.6</ele>
        <time>2020-07-07T07:04:28Z</time>
      </trkpt>
      <trkpt lat="47.00211" lon="5.82169">
        <ele>240.6</ele>
        <time>2020-07-07T07:04:32Z</time>
      </trkpt>
      <trkpt lat="47.0021" lon="5.82163">
        <ele>240.6</ele>
        <time>2020-07-07T07:04:37Z</time>
      </trkpt>
      <trkpt lat="47.0021" lon="5.82143">
        <ele>239.5</ele>
        <time>2020-07-07T07:04:49Z</time>
      </trkpt>
      <trkpt lat="47.00209" lon="5.82136">
        <ele>239.3</ele>
        <time>2020-07-07T07:04:54Z</time>
      </trkpt>
      <trkpt lat="47.00209" lon="5.82129">
        <ele>239.4</ele>
        <time>2020-07-07T07:04:58Z</time>
      </trkpt>
      <trkpt lat="47.00209" lon="5.82121">
        <ele>239.6</ele>
        <time>2020-07-07T07:05:03Z</time>
      </trkpt>
      <trkpt lat="47.00207" lon="5.82114">
        <ele>239.9</ele>
        <time>2020-07-07T07:05:08Z</time>
      </trkpt>
      <trkpt lat="47.00206" lon="5.82108">
        <ele>240.4</ele>
        <time>2020-07-07T07:05:13Z</time>
      </trkpt>
      <trkpt lat="47.00204" lon="5.821">
        <ele>240.7</ele>
        <time>2020-07-07T07:05:18Z</time>
      </trkpt>
      <trkpt lat="47.00199" lon="5.82096">
        <ele>240.8</ele>
        <time>2020-07-07T07:05:21Z</time>
      </trkpt>
      <trkpt lat="47.00194" lon="5.82095">
        <ele>241.1</ele>
        <time>2020-07-07T07:05:26Z</time>
      </trkpt>
      <trkpt lat="47.00189" lon="5.82094">
        <ele>241.5</ele>
        <time>2020-07-07T07:05:31Z</time>
      </trkpt>
      <trkpt lat="47.00184" lon="5.82094">
        <ele>241.9</ele>
        <time>2020-07-07T07:05:38Z</time>
      </trkpt>
      <trkpt lat="47.0018" lon="5.82094">
        <ele>242.1</ele>
        <time>2020-07-07T07:05:44Z</time>
      </trkpt>
      <trkpt lat="47.00176" lon="5.8209">
        <ele>242</ele>
        <time>2020-07-07T07:05:50Z</time>
      </trkpt>
      <trkpt lat="47.00178" lon="5.82062">
        <ele>243.4</ele>
        <time>2020-07-07T07:06:17Z</time>
      </trkpt>
      <trkpt lat="47.00178" lon="5.82056">
        <ele>244.2</ele>
        <time>2020-07-07T07:06:23Z</time>
      </trkpt>
      <trkpt lat="47.00181" lon="5.8204">
        <ele>247.5</ele>
        <time>2020-07-07T07:06:41Z</time>
      </trkpt>
      <trkpt lat="47.00182" lon="5.82033">
        <ele>247.9</ele>
        <time>2020-07-07T07:06:44Z</time>
      </trkpt>
      <trkpt lat="47.00183" lon="5.82027">
        <ele>248.5</ele>
        <time>2020-07-07T07:06:48Z</time>
      </trkpt>
      <trkpt lat="47.00183" lon="5.82019">
        <ele>249.4</ele>
        <time>2020-07-07T07:06:53Z</time>
      </trkpt>
      <trkpt lat="47.00184" lon="5.82009">
        <ele>257.8</ele>
        <time>2020-07-07T07:09:56Z</time>
      </trkpt>
      <trkpt lat="47.00187" lon="5.82002">
        <ele>256.5</ele>
        <time>2020-07-07T07:10:02Z</time>
      </trkpt>
      <trkpt lat="47.00191" lon="5.81997">
        <ele>255.3</ele>
        <time>2020-07-07T07:10:08Z</time>
      </trkpt>
      <trkpt lat="47.00195" lon="5.81992">
        <ele>254.6</ele>
        <time>2020-07-07T07:10:11Z</time>
      </trkpt>
      <trkpt lat="47.002" lon="5.81975">
        <ele>252.3</ele>
        <time>2020-07-07T07:10:23Z</time>
      </trkpt>
      <trkpt lat="47.00203" lon="5.81951">
        <ele>251.2</ele>
        <time>2020-07-07T07:10:42Z</time>
      </trkpt>
      <trkpt lat="47.00205" lon="5.81945">
        <ele>251.4</ele>
        <time>2020-07-07T07:10:49Z</time>
      </trkpt>
      <trkpt lat="47.00206" lon="5.81938">
        <ele>251.6</ele>
        <time>2020-07-07T07:10:53Z</time>
      </trkpt>
      <trkpt lat="47.00207" lon="5.8193">
        <ele>252</ele>
        <time>2020-07-07T07:10:59Z</time>
      </trkpt>
      <trkpt lat="47.00213" lon="5.81916">
        <ele>252.7</ele>
        <time>2020-07-07T07:11:10Z</time>
      </trkpt>
      <trkpt lat="47.00216" lon="5.81911">
        <ele>253.2</ele>
        <time>2020-07-07T07:11:17Z</time>
      </trkpt>
      <trkpt lat="47.00218" lon="5.81904">
        <ele>253.5</ele>
        <time>2020-07-07T07:11:22Z</time>
      </trkpt>
      <trkpt lat="47.0022" lon="5.81897">
        <ele>253.8</ele>
        <time>2020-07-07T07:11:27Z</time>
      </trkpt>
      <trkpt lat="47.00223" lon="5.81891">
        <ele>254.5</ele>
        <time>2020-07-07T07:11:34Z</time>
      </trkpt>
      <trkpt lat="47.00228" lon="5.81885">
        <ele>255</ele>
        <time>2020-07-07T07:11:38Z</time>
      </trkpt>
      <trkpt lat="47.00233" lon="5.81871">
        <ele>256.6</ele>
        <time>2020-07-07T07:11:49Z</time>
      </trkpt>
      <trkpt lat="47.00235" lon="5.81865">
        <ele>256.7</ele>
        <time>2020-07-07T07:11:53Z</time>
      </trkpt>
      <trkpt lat="47.00239" lon="5.81842">
        <ele>258.9</ele>
        <time>2020-07-07T07:12:07Z</time>
      </trkpt>
      <trkpt lat="47.00245" lon="5.81831">
        <ele>261</ele>
        <time>2020-07-07T07:12:15Z</time>
      </trkpt>
      <trkpt lat="47.0025" lon="5.81827">
        <ele>261.5</ele>
        <time>2020-07-07T07:12:18Z</time>
      </trkpt>
      <trkpt lat="47.00253" lon="5.81821">
        <ele>262.3</ele>
        <time>2020-07-07T07:12:23Z</time>
      </trkpt>
      <trkpt lat="47.00253" lon="5.81786">
        <ele>264.8</ele>
        <time>2020-07-07T07:12:57Z</time>
      </trkpt>
      <trkpt lat="47.00252" lon="5.81778">
        <ele>264.5</ele>
        <time>2020-07-07T07:13:05Z</time>
      </trkpt>
      <trkpt lat="47.00251" lon="5.81771">
        <ele>264</ele>
        <time>2020-07-07T07:13:10Z</time>
      </trkpt>
      <trkpt lat="47.00255" lon="5.81766">
        <ele>263.5</ele>
        <time>2020-07-07T07:13:15Z</time>
      </trkpt>
      <trkpt lat="47.00257" lon="5.8176">
        <ele>263.1</ele>
        <time>2020-07-07T07:13:21Z</time>
      </trkpt>
      <trkpt lat="47.00257" lon="5.81753">
        <ele>262.4</ele>
        <time>2020-07-07T07:13:28Z</time>
      </trkpt>
      <trkpt lat="47.00259" lon="5.81745">
        <ele>261.4</ele>
        <time>2020-07-07T07:13:35Z</time>
      </trkpt>
      <trkpt lat="47.0026" lon="5.81738">
        <ele>260.2</ele>
        <time>2020-07-07T07:13:44Z</time>
      </trkpt>
      <trkpt lat="47.00261" lon="5.81732">
        <ele>259.9</ele>
        <time>2020-07-07T07:13:48Z</time>
      </trkpt>
      <trkpt lat="47.00264" lon="5.81703">
        <ele>259.8</ele>
        <time>2020-07-07T07:14:10Z</time>
      </trkpt>
      <trkpt lat="47.00262" lon="5.81691">
        <ele>259.9</ele>
        <time>2020-07-07T07:14:12Z</time>
      </trkpt>
      <trkpt lat="47.0026" lon="5.81682">
        <ele>260.1</ele>
        <time>2020-07-07T07:14:14Z</time>
      </trkpt>
      <trkpt lat="47.00258" lon="5.81676">
        <ele>260.4</ele>
        <time>2020-07-07T07:14:18Z</time>
      </trkpt>
      <trkpt lat="47.00255" lon="5.81669">
        <ele>260.8</ele>
        <time>2020-07-07T07:14:27Z</time>
      </trkpt>
      <trkpt lat="47.00253" lon="5.81664">
        <ele>260.8</ele>
        <time>2020-07-07T07:14:30Z</time>
      </trkpt>
      <trkpt lat="47.00255" lon="5.81642">
        <ele>260.7</ele>
        <time>2020-07-07T07:14:53Z</time>
      </trkpt>
      <trkpt lat="47.00259" lon="5.81637">
        <ele>261.5</ele>
        <time>2020-07-07T07:15:01Z</time>
      </trkpt>
      <trkpt lat="47.00267" lon="5.81602">
        <ele>265.9</ele>
        <time>2020-07-07T07:15:27Z</time>
      </trkpt>
      <trkpt lat="47.0027" lon="5.81597">
        <ele>266.5</ele>
        <time>2020-07-07T07:15:32Z</time>
      </trkpt>
      <trkpt lat="47.00271" lon="5.81589">
        <ele>266.9</ele>
        <time>2020-07-07T07:15:35Z</time>
      </trkpt>
      <trkpt lat="47.00273" lon="5.81582">
        <ele>268.1</ele>
        <time>2020-07-07T07:15:40Z</time>
      </trkpt>
      <trkpt lat="47.00282" lon="5.81564">
        <ele>271.3</ele>
        <time>2020-07-07T07:15:57Z</time>
      </trkpt>
      <trkpt lat="47.00286" lon="5.81538">
        <ele>273</ele>
        <time>2020-07-07T07:16:17Z</time>
      </trkpt>
      <trkpt lat="47.00288" lon="5.8152">
        <ele>274.1</ele>
        <time>2020-07-07T07:16:24Z</time>
      </trkpt>
      <trkpt lat="47.00289" lon="5.81513">
        <ele>275.1</ele>
        <time>2020-07-07T07:16:31Z</time>
      </trkpt>
      <trkpt lat="47.00294" lon="5.81499">
        <ele>276.7</ele>
        <time>2020-07-07T07:16:45Z</time>
      </trkpt>
      <trkpt lat="47.00298" lon="5.81486">
        <ele>277.1</ele>
        <time>2020-07-07T07:17:02Z</time>
      </trkpt>
      <trkpt lat="47.00303" lon="5.8147">
        <ele>278.3</ele>
        <time>2020-07-07T07:17:12Z</time>
      </trkpt>
      <trkpt lat="47.00306" lon="5.81465">
        <ele>278.5</ele>
        <time>2020-07-07T07:17:15Z</time>
      </trkpt>
      <trkpt lat="47.00314" lon="5.8143">
        <ele>278.6</ele>
        <time>2020-07-07T07:17:39Z</time>
      </trkpt>
      <trkpt lat="47.00326" lon="5.81395">
        <ele>277.8</ele>
        <time>2020-07-07T07:18:07Z</time>
      </trkpt>
      <trkpt lat="47.0033" lon="5.8139">
        <ele>277.9</ele>
        <time>2020-07-07T07:18:11Z</time>
      </trkpt>
      <trkpt lat="47.00331" lon="5.81382">
        <ele>278.1</ele>
        <time>2020-07-07T07:18:15Z</time>
      </trkpt>
      <trkpt lat="47.00333" lon="5.81374">
        <ele>278.4</ele>
        <time>2020-07-07T07:18:19Z</time>
      </trkpt>
      <trkpt lat="47.00334" lon="5.81366">
        <ele>278.5</ele>
        <time>2020-07-07T07:18:22Z</time>
      </trkpt>
      <trkpt lat="47.00336" lon="5.81359">
        <ele>278.8</ele>
        <time>2020-07-07T07:18:26Z</time>
      </trkpt>
      <trkpt lat="47.00346" lon="5.81351">
        <ele>279.6</ele>
        <time>2020-07-07T07:18:41Z</time>
      </trkpt>
      <trkpt lat="47.00348" lon="5.81346">
        <ele>279.8</ele>
        <time>2020-07-07T07:18:45Z</time>
      </trkpt>
      <trkpt lat="47.00352" lon="5.8134">
        <ele>280.4</ele>
        <time>2020-07-07T07:18:53Z</time>
      </trkpt>
      <trkpt lat="47.00354" lon="5.81334">
        <ele>280.3</ele>
        <time>2020-07-07T07:18:59Z</time>
      </trkpt>
      <trkpt lat="47.00359" lon="5.81326">
        <ele>279.1</ele>
        <time>2020-07-07T07:19:13Z</time>
      </trkpt>
      <trkpt lat="47.00368" lon="5.81309">
        <ele>278.6</ele>
        <time>2020-07-07T07:19:36Z</time>
      </trkpt>
      <trkpt lat="47.00371" lon="5.81301">
        <ele>278.9</ele>
        <time>2020-07-07T07:19:41Z</time>
      </trkpt>
      <trkpt lat="47.00376" lon="5.81287">
        <ele>280.7</ele>
        <time>2020-07-07T07:19:55Z</time>
      </trkpt>
      <trkpt lat="47.00376" lon="5.81279">
        <ele>281.1</ele>
        <time>2020-07-07T07:20:03Z</time>
      </trkpt>
      <trkpt lat="47.00376" lon="5.81273">
        <ele>281.2</ele>
        <time>2020-07-07T07:20:05Z</time>
      </trkpt>
      <trkpt lat="47.00375" lon="5.81265">
        <ele>281.4</ele>
        <time>2020-07-07T07:20:09Z</time>
      </trkpt>
      <trkpt lat="47.00372" lon="5.81259">
        <ele>281.7</ele>
        <time>2020-07-07T07:20:14Z</time>
      </trkpt>
      <trkpt lat="47.00373" lon="5.81251">
        <ele>282.1</ele>
        <time>2020-07-07T07:20:21Z</time>
      </trkpt>
      <trkpt lat="47.00375" lon="5.81246">
        <ele>282.3</ele>
        <time>2020-07-07T07:20:25Z</time>
      </trkpt>
      <trkpt lat="47.00379" lon="5.81194">
        <ele>280.8</ele>
        <time>2020-07-07T07:21:24Z</time>
      </trkpt>
      <trkpt lat="47.0038" lon="5.81188">
        <ele>280.8</ele>
        <time>2020-07-07T07:21:27Z</time>
      </trkpt>
      <trkpt lat="47.00378" lon="5.8118">
        <ele>280.9</ele>
        <time>2020-07-07T07:21:30Z</time>
      </trkpt>
      <trkpt lat="47.0038" lon="5.81174">
        <ele>280.9</ele>
        <time>2020-07-07T07:21:41Z</time>
      </trkpt>
      <trkpt lat="47.00381" lon="5.81167">
        <ele>281.2</ele>
        <time>2020-07-07T07:21:51Z</time>
      </trkpt>
      <trkpt lat="47.00381" lon="5.8116">
        <ele>282.6</ele>
        <time>2020-07-07T07:22:01Z</time>
      </trkpt>
      <trkpt lat="47.00383" lon="5.81153">
        <ele>283.3</ele>
        <time>2020-07-07T07:22:05Z</time>
      </trkpt>
      <trkpt lat="47.00389" lon="5.81139">
        <ele>285.3</ele>
        <time>2020-07-07T07:22:14Z</time>
      </trkpt>
      <trkpt lat="47.00396" lon="5.81123">
        <ele>287.4</ele>
        <time>2020-07-07T07:22:32Z</time>
      </trkpt>
      <trkpt lat="47.00399" lon="5.81117">
        <ele>288.5</ele>
        <time>2020-07-07T07:22:40Z</time>
      </trkpt>
      <trkpt lat="47.00403" lon="5.81096">
        <ele>292.4</ele>
        <time>2020-07-07T07:22:57Z</time>
      </trkpt>
      <trkpt lat="47.00404" lon="5.81089">
        <ele>292.7</ele>
        <time>2020-07-07T07:23:00Z</time>
      </trkpt>
      <trkpt lat="47.00405" lon="5.81071">
        <ele>293.7</ele>
        <time>2020-07-07T07:23:10Z</time>
      </trkpt>
      <trkpt lat="47.00408" lon="5.81066">
        <ele>294.2</ele>
        <time>2020-07-07T07:23:16Z</time>
      </trkpt>
      <trkpt lat="47.00408" lon="5.81058">
        <ele>295.5</ele>
        <time>2020-07-07T07:23:24Z</time>
      </trkpt>
      <trkpt lat="47.0041" lon="5.81051">
        <ele>296.7</ele>
        <time>2020-07-07T07:23:32Z</time>
      </trkpt>
      <trkpt lat="47.00411" lon="5.81044">
        <ele>297.5</ele>
        <time>2020-07-07T07:23:37Z</time>
      </trkpt>
      <trkpt lat="47.00407" lon="5.81035">
        <ele>297.8</ele>
        <time>2020-07-07T07:23:40Z</time>
      </trkpt>
      <trkpt lat="47.00405" lon="5.81028">
        <ele>297.9</ele>
        <time>2020-07-07T07:23:43Z</time>
      </trkpt>
      <trkpt lat="47.00404" lon="5.81011">
        <ele>298.4</ele>
        <time>2020-07-07T07:24:01Z</time>
      </trkpt>
      <trkpt lat="47.00402" lon="5.81004">
        <ele>299.1</ele>
        <time>2020-07-07T07:24:08Z</time>
      </trkpt>
      <trkpt lat="47.00408" lon="5.80988">
        <ele>301</ele>
        <time>2020-07-07T07:24:28Z</time>
      </trkpt>
      <trkpt lat="47.00411" lon="5.8097">
        <ele>303.4</ele>
        <time>2020-07-07T07:24:42Z</time>
      </trkpt>
      <trkpt lat="47.00418" lon="5.80957">
        <ele>306</ele>
        <time>2020-07-07T07:24:59Z</time>
      </trkpt>
      <trkpt lat="47.00416" lon="5.80931">
        <ele>308.1</ele>
        <time>2020-07-07T07:25:14Z</time>
      </trkpt>
      <trkpt lat="47.00418" lon="5.80924">
        <ele>309.5</ele>
        <time>2020-07-07T07:25:21Z</time>
      </trkpt>
      <trkpt lat="47.00408" lon="5.80877">
        <ele>320.2</ele>
        <time>2020-07-07T07:26:07Z</time>
      </trkpt>
      <trkpt lat="47.00418" lon="5.80862">
        <ele>324.2</ele>
        <time>2020-07-07T07:26:26Z</time>
      </trkpt>
      <trkpt lat="47.00423" lon="5.8086">
        <ele>324.8</ele>
        <time>2020-07-07T07:26:32Z</time>
      </trkpt>
      <trkpt lat="47.00433" lon="5.80858">
        <ele>325.3</ele>
        <time>2020-07-07T07:27:53Z</time>
      </trkpt>
      <trkpt lat="47.00438" lon="5.80856">
        <ele>325.3</ele>
        <time>2020-07-07T07:27:58Z</time>
      </trkpt>
      <trkpt lat="47.00447" lon="5.80852">
        <ele>326</ele>
        <time>2020-07-07T07:28:23Z</time>
      </trkpt>
      <trkpt lat="47.00462" lon="5.80835">
        <ele>327.2</ele>
        <time>2020-07-07T07:28:40Z</time>
      </trkpt>
      <trkpt lat="47.00466" lon="5.80832">
        <ele>327.6</ele>
        <time>2020-07-07T07:28:44Z</time>
      </trkpt>
      <trkpt lat="47.0047" lon="5.8083">
        <ele>328.2</ele>
        <time>2020-07-07T07:28:49Z</time>
      </trkpt>
      <trkpt lat="47.00475" lon="5.80828">
        <ele>328.9</ele>
        <time>2020-07-07T07:28:54Z</time>
      </trkpt>
      <trkpt lat="47.00484" lon="5.8081">
        <ele>331.3</ele>
        <time>2020-07-07T07:29:12Z</time>
      </trkpt>
      <trkpt lat="47.00487" lon="5.80805">
        <ele>331.4</ele>
        <time>2020-07-07T07:29:15Z</time>
      </trkpt>
      <trkpt lat="47.00494" lon="5.80794">
        <ele>332.2</ele>
        <time>2020-07-07T07:29:27Z</time>
      </trkpt>
      <trkpt lat="47.00495" lon="5.80778">
        <ele>333.9</ele>
        <time>2020-07-07T07:29:41Z</time>
      </trkpt>
      <trkpt lat="47.00496" lon="5.80771">
        <ele>334.7</ele>
        <time>2020-07-07T07:29:48Z</time>
      </trkpt>
      <trkpt lat="47.00496" lon="5.80764">
        <ele>335.9</ele>
        <time>2020-07-07T07:29:58Z</time>
      </trkpt>
      <trkpt lat="47.00504" lon="5.80761">
        <ele>335.4</ele>
        <time>2020-07-07T07:32:27Z</time>
      </trkpt>
      <trkpt lat="47.0051" lon="5.80762">
        <ele>335.6</ele>
        <time>2020-07-07T07:32:33Z</time>
      </trkpt>
      <trkpt lat="47.00514" lon="5.80762">
        <ele>335.8</ele>
        <time>2020-07-07T07:32:48Z</time>
      </trkpt>
      <trkpt lat="47.00518" lon="5.80757">
        <ele>335.7</ele>
        <time>2020-07-07T07:32:54Z</time>
      </trkpt>
      <trkpt lat="47.00524" lon="5.80754">
        <ele>335.3</ele>
        <time>2020-07-07T07:33:24Z</time>
      </trkpt>
      <trkpt lat="47.00529" lon="5.80755">
        <ele>335.1</ele>
        <time>2020-07-07T07:33:26Z</time>
      </trkpt>
      <trkpt lat="47.00534" lon="5.80752">
        <ele>334.8</ele>
        <time>2020-07-07T07:33:28Z</time>
      </trkpt>
      <trkpt lat="47.00539" lon="5.80751">
        <ele>334.5</ele>
        <time>2020-07-07T07:33:30Z</time>
      </trkpt>
      <trkpt lat="47.00545" lon="5.80751">
        <ele>334.1</ele>
        <time>2020-07-07T07:33:33Z</time>
      </trkpt>
      <trkpt lat="47.00548" lon="5.80745">
        <ele>333.9</ele>
        <time>2020-07-07T07:33:35Z</time>
      </trkpt>
      <trkpt lat="47.00574" lon="5.80732">
        <ele>330.8</ele>
        <time>2020-07-07T07:34:07Z</time>
      </trkpt>
      <trkpt lat="47.00579" lon="5.80729">
        <ele>330.1</ele>
        <time>2020-07-07T07:34:14Z</time>
      </trkpt>
      <trkpt lat="47.00581" lon="5.80723">
        <ele>329.9</ele>
        <time>2020-07-07T07:34:18Z</time>
      </trkpt>
      <trkpt lat="47.00591" lon="5.80715">
        <ele>329</ele>
        <time>2020-07-07T07:34:35Z</time>
      </trkpt>
      <trkpt lat="47.00595" lon="5.80712">
        <ele>329</ele>
        <time>2020-07-07T07:34:38Z</time>
      </trkpt>
      <trkpt lat="47.00599" lon="5.80709">
        <ele>329</ele>
        <time>2020-07-07T07:34:44Z</time>
      </trkpt>
      <trkpt lat="47.00604" lon="5.80707">
        <ele>327.7</ele>
        <time>2020-07-07T07:34:58Z</time>
      </trkpt>
      <trkpt lat="47.00629" lon="5.80708">
        <ele>322.7</ele>
        <time>2020-07-07T07:35:27Z</time>
      </trkpt>
      <trkpt lat="47.00633" lon="5.80708">
        <ele>322.7</ele>
        <time>2020-07-07T07:35:31Z</time>
      </trkpt>
      <trkpt lat="47.00637" lon="5.80702">
        <ele>321.1</ele>
        <time>2020-07-07T07:35:43Z</time>
      </trkpt>
      <trkpt lat="47.00642" lon="5.807">
        <ele>319.9</ele>
        <time>2020-07-07T07:35:48Z</time>
      </trkpt>
      <trkpt lat="47.00645" lon="5.80695">
        <ele>319.2</ele>
        <time>2020-07-07T07:35:51Z</time>
      </trkpt>
      <trkpt lat="47.00682" lon="5.80687">
        <ele>311.5</ele>
        <time>2020-07-07T07:36:43Z</time>
      </trkpt>
      <trkpt lat="47.00704" lon="5.80685">
        <ele>306</ele>
        <time>2020-07-07T07:37:09Z</time>
      </trkpt>
      <trkpt lat="47.00728" lon="5.80679">
        <ele>300.3</ele>
        <time>2020-07-07T07:38:17Z</time>
      </trkpt>
      <trkpt lat="47.00746" lon="5.80677">
        <ele>298.8</ele>
        <time>2020-07-07T07:38:29Z</time>
      </trkpt>
      <trkpt lat="47.00759" lon="5.80675">
        <ele>297.6</ele>
        <time>2020-07-07T07:38:40Z</time>
      </trkpt>
      <trkpt lat="47.00764" lon="5.80675">
        <ele>297.3</ele>
        <time>2020-07-07T07:38:46Z</time>
      </trkpt>
      <trkpt lat="47.00768" lon="5.80675">
        <ele>296.6</ele>
        <time>2020-07-07T07:38:55Z</time>
      </trkpt>
      <trkpt lat="47.00774" lon="5.80673">
        <ele>296.5</ele>
        <time>2020-07-07T07:38:59Z</time>
      </trkpt>
      <trkpt lat="47.00778" lon="5.80672">
        <ele>296.3</ele>
        <time>2020-07-07T07:39:03Z</time>
      </trkpt>
      <trkpt lat="47.00783" lon="5.80671">
        <ele>296</ele>
        <time>2020-07-07T07:39:09Z</time>
      </trkpt>
      <trkpt lat="47.00788" lon="5.8067">
        <ele>294.9</ele>
        <time>2020-07-07T07:39:36Z</time>
      </trkpt>
      <trkpt lat="47.00782" lon="5.80675">
        <ele>291.4</ele>
        <time>2020-07-07T07:40:12Z</time>
      </trkpt>
      <trkpt lat="47.00779" lon="5.80681">
        <ele>290.7</ele>
        <time>2020-07-07T07:40:18Z</time>
      </trkpt>
      <trkpt lat="47.00776" lon="5.80686">
        <ele>289.8</ele>
        <time>2020-07-07T07:40:26Z</time>
      </trkpt>
      <trkpt lat="47.00754" lon="5.80705">
        <ele>288</ele>
        <time>2020-07-07T07:40:47Z</time>
      </trkpt>
      <trkpt lat="47.0075" lon="5.80707">
        <ele>287.7</ele>
        <time>2020-07-07T07:40:57Z</time>
      </trkpt>
      <trkpt lat="47.0075" lon="5.80714">
        <ele>288.2</ele>
        <time>2020-07-07T07:41:20Z</time>
      </trkpt>
      <trkpt lat="47.00752" lon="5.80721">
        <ele>288.3</ele>
        <time>2020-07-07T07:41:28Z</time>
      </trkpt>
      <trkpt lat="47.00757" lon="5.80742">
        <ele>288</ele>
        <time>2020-07-07T07:41:44Z</time>
      </trkpt>
      <trkpt lat="47.00756" lon="5.80748">
        <ele>288.1</ele>
        <time>2020-07-07T07:41:50Z</time>
      </trkpt>
      <trkpt lat="47.00757" lon="5.80757">
        <ele>288.5</ele>
        <time>2020-07-07T07:41:56Z</time>
      </trkpt>
      <trkpt lat="47.00757" lon="5.80763">
        <ele>288.9</ele>
        <time>2020-07-07T07:41:59Z</time>
      </trkpt>
      <trkpt lat="47.00757" lon="5.8077">
        <ele>289.4</ele>
        <time>2020-07-07T07:42:02Z</time>
      </trkpt>
      <trkpt lat="47.00755" lon="5.80776">
        <ele>290.4</ele>
        <time>2020-07-07T07:42:07Z</time>
      </trkpt>
      <trkpt lat="47.0075" lon="5.80779">
        <ele>291.3</ele>
        <time>2020-07-07T07:42:11Z</time>
      </trkpt>
      <trkpt lat="47.00746" lon="5.8078">
        <ele>292.3</ele>
        <time>2020-07-07T07:42:16Z</time>
      </trkpt>
      <trkpt lat="47.0074" lon="5.80778">
        <ele>292.8</ele>
        <time>2020-07-07T07:42:19Z</time>
      </trkpt>
      <trkpt lat="47.00733" lon="5.80774">
        <ele>293.2</ele>
        <time>2020-07-07T07:42:21Z</time>
      </trkpt>
      <trkpt lat="47.0073" lon="5.80771">
        <ele>293.5</ele>
        <time>2020-07-07T07:42:23Z</time>
      </trkpt>
      <trkpt lat="47.00725" lon="5.80767">
        <ele>294.1</ele>
        <time>2020-07-07T07:42:26Z</time>
      </trkpt>
      <trkpt lat="47.00721" lon="5.80762">
        <ele>294.8</ele>
        <time>2020-07-07T07:42:30Z</time>
      </trkpt>
      <trkpt lat="47.00718" lon="5.80756">
        <ele>296.6</ele>
        <time>2020-07-07T07:42:40Z</time>
      </trkpt>
      <trkpt lat="47.00705" lon="5.80751">
        <ele>297.7</ele>
        <time>2020-07-07T07:42:53Z</time>
      </trkpt>
      <trkpt lat="47.00709" lon="5.80749">
        <ele>299.1</ele>
        <time>2020-07-07T07:47:39Z</time>
      </trkpt>
      <trkpt lat="47.00711" lon="5.80744">
        <ele>299.4</ele>
        <time>2020-07-07T07:47:50Z</time>
      </trkpt>
      <trkpt lat="47.0071" lon="5.80728">
        <ele>299.8</ele>
        <time>2020-07-07T07:48:12Z</time>
      </trkpt>
      <trkpt lat="47.00713" lon="5.80723">
        <ele>299.5</ele>
        <time>2020-07-07T07:48:16Z</time>
      </trkpt>
      <trkpt lat="47.00718" lon="5.80718">
        <ele>299.6</ele>
        <time>2020-07-07T07:48:22Z</time>
      </trkpt>
      <trkpt lat="47.00722" lon="5.80715">
        <ele>300</ele>
        <time>2020-07-07T07:48:26Z</time>
      </trkpt>
      <trkpt lat="47.00727" lon="5.80714">
        <ele>300.8</ele>
        <time>2020-07-07T07:48:35Z</time>
      </trkpt>
      <trkpt lat="47.00735" lon="5.80705">
        <ele>301.9</ele>
        <time>2020-07-07T07:48:52Z</time>
      </trkpt>
      <trkpt lat="47.0074" lon="5.80702">
        <ele>301.4</ele>
        <time>2020-07-07T07:48:58Z</time>
      </trkpt>
      <trkpt lat="47.00744" lon="5.80699">
        <ele>301</ele>
        <time>2020-07-07T07:49:05Z</time>
      </trkpt>
      <trkpt lat="47.00749" lon="5.80697">
        <ele>300.6</ele>
        <time>2020-07-07T07:49:13Z</time>
      </trkpt>
      <trkpt lat="47.00753" lon="5.80691">
        <ele>300.3</ele>
        <time>2020-07-07T07:49:17Z</time>
      </trkpt>
      <trkpt lat="47.00756" lon="5.80686">
        <ele>299.8</ele>
        <time>2020-07-07T07:49:22Z</time>
      </trkpt>
      <trkpt lat="47.0076" lon="5.80681">
        <ele>299.5</ele>
        <time>2020-07-07T07:49:28Z</time>
      </trkpt>
      <trkpt lat="47.00765" lon="5.80678">
        <ele>299.1</ele>
        <time>2020-07-07T07:49:33Z</time>
      </trkpt>
      <trkpt lat="47.00769" lon="5.80675">
        <ele>298.4</ele>
        <time>2020-07-07T07:49:40Z</time>
      </trkpt>
      <trkpt lat="47.00773" lon="5.80672">
        <ele>297.5</ele>
        <time>2020-07-07T07:49:46Z</time>
      </trkpt>
      <trkpt lat="47.00778" lon="5.8067">
        <ele>296.9</ele>
        <time>2020-07-07T07:49:50Z</time>
      </trkpt>
      <trkpt lat="47.00782" lon="5.80668">
        <ele>296.1</ele>
        <time>2020-07-07T07:49:56Z</time>
      </trkpt>
      <trkpt lat="47.00787" lon="5.80668">
        <ele>295</ele>
        <time>2020-07-07T07:50:04Z</time>
      </trkpt>
      <trkpt lat="47.00792" lon="5.80666">
        <ele>294.5</ele>
        <time>2020-07-07T07:50:07Z</time>
      </trkpt>
      <trkpt lat="47.00797" lon="5.80665">
        <ele>293.8</ele>
        <time>2020-07-07T07:50:12Z</time>
      </trkpt>
      <trkpt lat="47.00801" lon="5.80662">
        <ele>293.1</ele>
        <time>2020-07-07T07:50:16Z</time>
      </trkpt>
      <trkpt lat="47.00806" lon="5.8066">
        <ele>292.4</ele>
        <time>2020-07-07T07:50:26Z</time>
      </trkpt>
      <trkpt lat="47.0081" lon="5.80657">
        <ele>292.4</ele>
        <time>2020-07-07T07:50:31Z</time>
      </trkpt>
      <trkpt lat="47.00815" lon="5.80654">
        <ele>292.5</ele>
        <time>2020-07-07T07:50:35Z</time>
      </trkpt>
      <trkpt lat="47.0082" lon="5.80653">
        <ele>292.8</ele>
        <time>2020-07-07T07:50:40Z</time>
      </trkpt>
      <trkpt lat="47.00827" lon="5.80655">
        <ele>292.9</ele>
        <time>2020-07-07T07:50:44Z</time>
      </trkpt>
      <trkpt lat="47.00832" lon="5.80657">
        <ele>292.9</ele>
        <time>2020-07-07T07:50:48Z</time>
      </trkpt>
      <trkpt lat="47.00837" lon="5.80658">
        <ele>292.7</ele>
        <time>2020-07-07T07:50:51Z</time>
      </trkpt>
      <trkpt lat="47.00841" lon="5.80658">
        <ele>291.9</ele>
        <time>2020-07-07T07:50:58Z</time>
      </trkpt>
      <trkpt lat="47.00846" lon="5.80658">
        <ele>291.1</ele>
        <time>2020-07-07T07:51:05Z</time>
      </trkpt>
      <trkpt lat="47.00851" lon="5.80654">
        <ele>290.9</ele>
        <time>2020-07-07T07:51:10Z</time>
      </trkpt>
      <trkpt lat="47.00856" lon="5.80653">
        <ele>291.2</ele>
        <time>2020-07-07T07:51:16Z</time>
      </trkpt>
      <trkpt lat="47.00862" lon="5.8065">
        <ele>293.2</ele>
        <time>2020-07-07T07:51:33Z</time>
      </trkpt>
      <trkpt lat="47.00868" lon="5.80651">
        <ele>293.8</ele>
        <time>2020-07-07T07:51:37Z</time>
      </trkpt>
      <trkpt lat="47.00873" lon="5.80651">
        <ele>294.2</ele>
        <time>2020-07-07T07:51:40Z</time>
      </trkpt>
      <trkpt lat="47.00877" lon="5.80649">
        <ele>296.2</ele>
        <time>2020-07-07T07:51:50Z</time>
      </trkpt>
      <trkpt lat="47.0088" lon="5.80642">
        <ele>298.7</ele>
        <time>2020-07-07T07:51:59Z</time>
      </trkpt>
      <trkpt lat="47.00885" lon="5.8064">
        <ele>300.7</ele>
        <time>2020-07-07T07:52:06Z</time>
      </trkpt>
      <trkpt lat="47.00888" lon="5.80635">
        <ele>302.1</ele>
        <time>2020-07-07T07:52:14Z</time>
      </trkpt>
      <trkpt lat="47.0089" lon="5.80628">
        <ele>302.4</ele>
        <time>2020-07-07T07:52:21Z</time>
      </trkpt>
      <trkpt lat="47.00889" lon="5.80621">
        <ele>302.6</ele>
        <time>2020-07-07T07:52:28Z</time>
      </trkpt>
      <trkpt lat="47.00889" lon="5.80614">
        <ele>302.8</ele>
        <time>2020-07-07T07:52:31Z</time>
      </trkpt>
      <trkpt lat="47.00887" lon="5.80607">
        <ele>303.4</ele>
        <time>2020-07-07T07:52:38Z</time>
      </trkpt>
      <trkpt lat="47.00881" lon="5.80588">
        <ele>304.4</ele>
        <time>2020-07-07T07:52:57Z</time>
      </trkpt>
      <trkpt lat="47.00881" lon="5.8058">
        <ele>304.5</ele>
        <time>2020-07-07T07:53:04Z</time>
      </trkpt>
      <trkpt lat="47.00882" lon="5.80573">
        <ele>304.6</ele>
        <time>2020-07-07T07:53:13Z</time>
      </trkpt>
      <trkpt lat="47.00879" lon="5.80567">
        <ele>304.8</ele>
        <time>2020-07-07T07:53:23Z</time>
      </trkpt>
      <trkpt lat="47.00876" lon="5.80558">
        <ele>304.5</ele>
        <time>2020-07-07T07:53:29Z</time>
      </trkpt>
      <trkpt lat="47.00875" lon="5.80551">
        <ele>304.4</ele>
        <time>2020-07-07T07:53:32Z</time>
      </trkpt>
      <trkpt lat="47.00874" lon="5.80543">
        <ele>304.1</ele>
        <time>2020-07-07T07:53:38Z</time>
      </trkpt>
      <trkpt lat="47.00875" lon="5.80536">
        <ele>303.9</ele>
        <time>2020-07-07T07:53:43Z</time>
      </trkpt>
      <trkpt lat="47.00879" lon="5.8053">
        <ele>303.1</ele>
        <time>2020-07-07T07:53:50Z</time>
      </trkpt>
      <trkpt lat="47.00882" lon="5.80523">
        <ele>302.8</ele>
        <time>2020-07-07T07:53:56Z</time>
      </trkpt>
      <trkpt lat="47.00886" lon="5.80519">
        <ele>302.8</ele>
        <time>2020-07-07T07:54:00Z</time>
      </trkpt>
      <trkpt lat="47.0089" lon="5.80516">
        <ele>303.2</ele>
        <time>2020-07-07T07:54:08Z</time>
      </trkpt>
      <trkpt lat="47.00895" lon="5.80513">
        <ele>303.5</ele>
        <time>2020-07-07T07:54:13Z</time>
      </trkpt>
      <trkpt lat="47.00911" lon="5.80518">
        <ele>305.4</ele>
        <time>2020-07-07T07:54:37Z</time>
      </trkpt>
      <trkpt lat="47.00914" lon="5.80522">
        <ele>305.6</ele>
        <time>2020-07-07T07:54:45Z</time>
      </trkpt>
      <trkpt lat="47.0092" lon="5.80525">
        <ele>305.9</ele>
        <time>2020-07-07T07:54:54Z</time>
      </trkpt>
      <trkpt lat="47.00924" lon="5.80527">
        <ele>306.2</ele>
        <time>2020-07-07T07:54:57Z</time>
      </trkpt>
      <trkpt lat="47.00929" lon="5.8053">
        <ele>306.3</ele>
        <time>2020-07-07T07:54:59Z</time>
      </trkpt>
      <trkpt lat="47.00933" lon="5.80533">
        <ele>306.5</ele>
        <time>2020-07-07T07:55:02Z</time>
      </trkpt>
      <trkpt lat="47.00938" lon="5.80535">
        <ele>306.7</ele>
        <time>2020-07-07T07:55:06Z</time>
      </trkpt>
      <trkpt lat="47.00942" lon="5.80539">
        <ele>306.9</ele>
        <time>2020-07-07T07:55:10Z</time>
      </trkpt>
      <trkpt lat="47.00946" lon="5.80542">
        <ele>307.1</ele>
        <time>2020-07-07T07:55:16Z</time>
      </trkpt>
      <trkpt lat="47.00955" lon="5.8055">
        <ele>307.1</ele>
        <time>2020-07-07T07:55:50Z</time>
      </trkpt>
      <trkpt lat="47.00961" lon="5.80549">
        <ele>306.2</ele>
        <time>2020-07-07T07:55:58Z</time>
      </trkpt>
      <trkpt lat="47.00965" lon="5.80551">
        <ele>306.1</ele>
        <time>2020-07-07T07:56:04Z</time>
      </trkpt>
      <trkpt lat="47.00971" lon="5.80553">
        <ele>306.2</ele>
        <time>2020-07-07T07:56:08Z</time>
      </trkpt>
      <trkpt lat="47.00976" lon="5.80553">
        <ele>306.6</ele>
        <time>2020-07-07T07:56:15Z</time>
      </trkpt>
      <trkpt lat="47.00981" lon="5.80553">
        <ele>306.8</ele>
        <time>2020-07-07T07:56:19Z</time>
      </trkpt>
      <trkpt lat="47.00986" lon="5.80554">
        <ele>307</ele>
        <time>2020-07-07T07:56:25Z</time>
      </trkpt>
      <trkpt lat="47.00991" lon="5.80554">
        <ele>307.2</ele>
        <time>2020-07-07T07:56:30Z</time>
      </trkpt>
      <trkpt lat="47.00996" lon="5.80553">
        <ele>307.5</ele>
        <time>2020-07-07T07:56:35Z</time>
      </trkpt>
      <trkpt lat="47.01001" lon="5.80554">
        <ele>307.7</ele>
        <time>2020-07-07T07:56:39Z</time>
      </trkpt>
      <trkpt lat="47.01007" lon="5.8055">
        <ele>308</ele>
        <time>2020-07-07T07:56:45Z</time>
      </trkpt>
      <trkpt lat="47.01012" lon="5.80548">
        <ele>308.7</ele>
        <time>2020-07-07T07:56:51Z</time>
      </trkpt>
      <trkpt lat="47.01016" lon="5.80546">
        <ele>309</ele>
        <time>2020-07-07T07:56:53Z</time>
      </trkpt>
      <trkpt lat="47.01022" lon="5.80546">
        <ele>309.4</ele>
        <time>2020-07-07T07:56:56Z</time>
      </trkpt>
      <trkpt lat="47.01027" lon="5.80548">
        <ele>310.5</ele>
        <time>2020-07-07T07:57:03Z</time>
      </trkpt>
      <trkpt lat="47.0103" lon="5.80554">
        <ele>311.7</ele>
        <time>2020-07-07T07:57:12Z</time>
      </trkpt>
      <trkpt lat="47.01034" lon="5.80558">
        <ele>312.3</ele>
        <time>2020-07-07T07:57:19Z</time>
      </trkpt>
      <trkpt lat="47.01039" lon="5.80561">
        <ele>312.2</ele>
        <time>2020-07-07T07:57:26Z</time>
      </trkpt>
      <trkpt lat="47.01043" lon="5.80561">
        <ele>312.2</ele>
        <time>2020-07-07T07:57:32Z</time>
      </trkpt>
      <trkpt lat="47.01048" lon="5.80562">
        <ele>312.2</ele>
        <time>2020-07-07T07:57:41Z</time>
      </trkpt>
      <trkpt lat="47.01053" lon="5.80561">
        <ele>312.3</ele>
        <time>2020-07-07T07:57:45Z</time>
      </trkpt>
      <trkpt lat="47.01058" lon="5.80561">
        <ele>312.6</ele>
        <time>2020-07-07T07:57:52Z</time>
      </trkpt>
      <trkpt lat="47.01063" lon="5.80561">
        <ele>312.8</ele>
        <time>2020-07-07T07:57:54Z</time>
      </trkpt>
      <trkpt lat="47.0107" lon="5.80562">
        <ele>313.1</ele>
        <time>2020-07-07T07:57:56Z</time>
      </trkpt>
      <trkpt lat="47.01075" lon="5.80563">
        <ele>313.7</ele>
        <time>2020-07-07T07:58:01Z</time>
      </trkpt>
      <trkpt lat="47.0108" lon="5.80561">
        <ele>314.1</ele>
        <time>2020-07-07T07:58:04Z</time>
      </trkpt>
      <trkpt lat="47.01084" lon="5.80561">
        <ele>314.6</ele>
        <time>2020-07-07T07:58:09Z</time>
      </trkpt>
      <trkpt lat="47.01089" lon="5.80562">
        <ele>314.9</ele>
        <time>2020-07-07T07:58:13Z</time>
      </trkpt>
      <trkpt lat="47.01093" lon="5.80563">
        <ele>314.9</ele>
        <time>2020-07-07T07:58:17Z</time>
      </trkpt>
      <trkpt lat="47.01097" lon="5.80566">
        <ele>315</ele>
        <time>2020-07-07T07:58:28Z</time>
      </trkpt>
      <trkpt lat="47.01102" lon="5.80566">
        <ele>315.3</ele>
        <time>2020-07-07T07:58:37Z</time>
      </trkpt>
      <trkpt lat="47.01107" lon="5.80568">
        <ele>315.8</ele>
        <time>2020-07-07T07:58:44Z</time>
      </trkpt>
      <trkpt lat="47.01113" lon="5.80572">
        <ele>315.9</ele>
        <time>2020-07-07T07:58:46Z</time>
      </trkpt>
      <trkpt lat="47.01118" lon="5.80574">
        <ele>316</ele>
        <time>2020-07-07T07:58:48Z</time>
      </trkpt>
      <trkpt lat="47.01123" lon="5.80576">
        <ele>316.2</ele>
        <time>2020-07-07T07:58:52Z</time>
      </trkpt>
      <trkpt lat="47.01128" lon="5.80576">
        <ele>316.3</ele>
        <time>2020-07-07T07:58:58Z</time>
      </trkpt>
      <trkpt lat="47.01133" lon="5.80577">
        <ele>316.6</ele>
        <time>2020-07-07T07:59:03Z</time>
      </trkpt>
      <trkpt lat="47.01138" lon="5.8058">
        <ele>316.8</ele>
        <time>2020-07-07T07:59:10Z</time>
      </trkpt>
      <trkpt lat="47.01143" lon="5.80581">
        <ele>316.8</ele>
        <time>2020-07-07T07:59:15Z</time>
      </trkpt>
      <trkpt lat="47.01148" lon="5.80582">
        <ele>316.6</ele>
        <time>2020-07-07T07:59:19Z</time>
      </trkpt>
      <trkpt lat="47.01153" lon="5.80585">
        <ele>316.1</ele>
        <time>2020-07-07T07:59:26Z</time>
      </trkpt>
      <trkpt lat="47.01157" lon="5.80588">
        <ele>315.4</ele>
        <time>2020-07-07T07:59:32Z</time>
      </trkpt>
      <trkpt lat="47.01162" lon="5.80591">
        <ele>314.7</ele>
        <time>2020-07-07T07:59:40Z</time>
      </trkpt>
      <trkpt lat="47.01167" lon="5.80594">
        <ele>314.7</ele>
        <time>2020-07-07T07:59:46Z</time>
      </trkpt>
      <trkpt lat="47.01172" lon="5.80596">
        <ele>314.9</ele>
        <time>2020-07-07T07:59:51Z</time>
      </trkpt>
      <trkpt lat="47.01176" lon="5.80598">
        <ele>315.2</ele>
        <time>2020-07-07T07:59:56Z</time>
      </trkpt>
      <trkpt lat="47.01181" lon="5.80599">
        <ele>315.6</ele>
        <time>2020-07-07T08:00:03Z</time>
      </trkpt>
      <trkpt lat="47.01185" lon="5.80602">
        <ele>315.7</ele>
        <time>2020-07-07T08:00:08Z</time>
      </trkpt>
      <trkpt lat="47.0119" lon="5.80604">
        <ele>316</ele>
        <time>2020-07-07T08:00:15Z</time>
      </trkpt>
      <trkpt lat="47.01194" lon="5.80608">
        <ele>316.5</ele>
        <time>2020-07-07T08:00:25Z</time>
      </trkpt>
      <trkpt lat="47.01198" lon="5.80611">
        <ele>316.4</ele>
        <time>2020-07-07T08:00:35Z</time>
      </trkpt>
      <trkpt lat="47.01203" lon="5.80614">
        <ele>316</ele>
        <time>2020-07-07T08:00:43Z</time>
      </trkpt>
      <trkpt lat="47.01207" lon="5.80616">
        <ele>315.9</ele>
        <time>2020-07-07T08:00:47Z</time>
      </trkpt>
      <trkpt lat="47.01212" lon="5.80617">
        <ele>315.8</ele>
        <time>2020-07-07T08:00:54Z</time>
      </trkpt>
      <trkpt lat="47.01218" lon="5.80615">
        <ele>315.9</ele>
        <time>2020-07-07T08:01:00Z</time>
      </trkpt>
      <trkpt lat="47.01224" lon="5.80614">
        <ele>316</ele>
        <time>2020-07-07T08:01:04Z</time>
      </trkpt>
      <trkpt lat="47.01228" lon="5.80612">
        <ele>316.3</ele>
        <time>2020-07-07T08:01:09Z</time>
      </trkpt>
      <trkpt lat="47.01232" lon="5.80613">
        <ele>316.5</ele>
        <time>2020-07-07T08:01:14Z</time>
      </trkpt>
      <trkpt lat="47.01237" lon="5.80615">
        <ele>317</ele>
        <time>2020-07-07T08:01:22Z</time>
      </trkpt>
      <trkpt lat="47.01242" lon="5.80615">
        <ele>317.1</ele>
        <time>2020-07-07T08:01:30Z</time>
      </trkpt>
      <trkpt lat="47.01249" lon="5.80614">
        <ele>317</ele>
        <time>2020-07-07T08:01:34Z</time>
      </trkpt>
      <trkpt lat="47.01253" lon="5.80614">
        <ele>316.8</ele>
        <time>2020-07-07T08:01:39Z</time>
      </trkpt>
      <trkpt lat="47.01258" lon="5.80613">
        <ele>316.7</ele>
        <time>2020-07-07T08:01:43Z</time>
      </trkpt>
      <trkpt lat="47.01262" lon="5.80612">
        <ele>316.6</ele>
        <time>2020-07-07T08:01:48Z</time>
      </trkpt>
      <trkpt lat="47.01268" lon="5.80612">
        <ele>316.4</ele>
        <time>2020-07-07T08:01:53Z</time>
      </trkpt>
      <trkpt lat="47.01272" lon="5.80609">
        <ele>316</ele>
        <time>2020-07-07T08:02:01Z</time>
      </trkpt>
      <trkpt lat="47.01277" lon="5.80609">
        <ele>315.8</ele>
        <time>2020-07-07T08:02:05Z</time>
      </trkpt>
      <trkpt lat="47.01282" lon="5.80607">
        <ele>315.6</ele>
        <time>2020-07-07T08:02:11Z</time>
      </trkpt>
      <trkpt lat="47.01287" lon="5.80607">
        <ele>315.7</ele>
        <time>2020-07-07T08:02:15Z</time>
      </trkpt>
      <trkpt lat="47.01299" lon="5.80608">
        <ele>316.8</ele>
        <time>2020-07-07T08:02:25Z</time>
      </trkpt>
      <trkpt lat="47.01304" lon="5.80607">
        <ele>317.6</ele>
        <time>2020-07-07T08:02:30Z</time>
      </trkpt>
      <trkpt lat="47.01308" lon="5.80602">
        <ele>319.6</ele>
        <time>2020-07-07T08:02:39Z</time>
      </trkpt>
      <trkpt lat="47.01314" lon="5.80602">
        <ele>320.7</ele>
        <time>2020-07-07T08:02:44Z</time>
      </trkpt>
      <trkpt lat="47.01318" lon="5.806">
        <ele>321.9</ele>
        <time>2020-07-07T08:02:50Z</time>
      </trkpt>
      <trkpt lat="47.01329" lon="5.806">
        <ele>323.7</ele>
        <time>2020-07-07T08:02:59Z</time>
      </trkpt>
      <trkpt lat="47.01333" lon="5.806">
        <ele>323.8</ele>
        <time>2020-07-07T08:03:03Z</time>
      </trkpt>
      <trkpt lat="47.01339" lon="5.806">
        <ele>323.8</ele>
        <time>2020-07-07T08:03:07Z</time>
      </trkpt>
      <trkpt lat="47.01343" lon="5.80602">
        <ele>323.7</ele>
        <time>2020-07-07T08:03:12Z</time>
      </trkpt>
      <trkpt lat="47.01351" lon="5.80601">
        <ele>324.2</ele>
        <time>2020-07-07T08:03:29Z</time>
      </trkpt>
      <trkpt lat="47.01357" lon="5.80601">
        <ele>324.6</ele>
        <time>2020-07-07T08:03:34Z</time>
      </trkpt>
      <trkpt lat="47.01362" lon="5.80599">
        <ele>324.9</ele>
        <time>2020-07-07T08:03:40Z</time>
      </trkpt>
      <trkpt lat="47.01367" lon="5.80601">
        <ele>324.9</ele>
        <time>2020-07-07T08:03:43Z</time>
      </trkpt>
      <trkpt lat="47.01373" lon="5.80602">
        <ele>324.9</ele>
        <time>2020-07-07T08:03:46Z</time>
      </trkpt>
      <trkpt lat="47.0138" lon="5.80604">
        <ele>325</ele>
        <time>2020-07-07T08:03:48Z</time>
      </trkpt>
      <trkpt lat="47.01385" lon="5.80606">
        <ele>325.1</ele>
        <time>2020-07-07T08:03:50Z</time>
      </trkpt>
      <trkpt lat="47.01391" lon="5.80606">
        <ele>325.4</ele>
        <time>2020-07-07T08:03:53Z</time>
      </trkpt>
      <trkpt lat="47.01396" lon="5.80607">
        <ele>325.8</ele>
        <time>2020-07-07T08:03:57Z</time>
      </trkpt>
      <trkpt lat="47.01401" lon="5.80607">
        <ele>326.4</ele>
        <time>2020-07-07T08:04:04Z</time>
      </trkpt>
      <trkpt lat="47.01405" lon="5.80604">
        <ele>327.3</ele>
        <time>2020-07-07T08:04:17Z</time>
      </trkpt>
      <trkpt lat="47.01409" lon="5.80602">
        <ele>327.4</ele>
        <time>2020-07-07T08:04:23Z</time>
      </trkpt>
      <trkpt lat="47.01414" lon="5.80602">
        <ele>327.6</ele>
        <time>2020-07-07T08:04:28Z</time>
      </trkpt>
      <trkpt lat="47.01419" lon="5.80603">
        <ele>327.6</ele>
        <time>2020-07-07T08:04:34Z</time>
      </trkpt>
      <trkpt lat="47.01424" lon="5.806">
        <ele>327.8</ele>
        <time>2020-07-07T08:04:41Z</time>
      </trkpt>
      <trkpt lat="47.01427" lon="5.80595">
        <ele>328.5</ele>
        <time>2020-07-07T08:04:49Z</time>
      </trkpt>
      <trkpt lat="47.01432" lon="5.80592">
        <ele>329.2</ele>
        <time>2020-07-07T08:04:57Z</time>
      </trkpt>
      <trkpt lat="47.01436" lon="5.80588">
        <ele>330</ele>
        <time>2020-07-07T08:05:02Z</time>
      </trkpt>
      <trkpt lat="47.01441" lon="5.80588">
        <ele>330.4</ele>
        <time>2020-07-07T08:05:04Z</time>
      </trkpt>
      <trkpt lat="47.01447" lon="5.80588">
        <ele>331</ele>
        <time>2020-07-07T08:05:07Z</time>
      </trkpt>
      <trkpt lat="47.01452" lon="5.80588">
        <ele>331.8</ele>
        <time>2020-07-07T08:05:13Z</time>
      </trkpt>
      <trkpt lat="47.01456" lon="5.80586">
        <ele>332.3</ele>
        <time>2020-07-07T08:05:27Z</time>
      </trkpt>
      <trkpt lat="47.01466" lon="5.80584">
        <ele>332.5</ele>
        <time>2020-07-07T08:05:36Z</time>
      </trkpt>
      <trkpt lat="47.01471" lon="5.80584">
        <ele>332.5</ele>
        <time>2020-07-07T08:05:45Z</time>
      </trkpt>
      <trkpt lat="47.01477" lon="5.80585">
        <ele>332.7</ele>
        <time>2020-07-07T08:05:48Z</time>
      </trkpt>
      <trkpt lat="47.01482" lon="5.80586">
        <ele>333.3</ele>
        <time>2020-07-07T08:05:53Z</time>
      </trkpt>
      <trkpt lat="47.01487" lon="5.80586">
        <ele>333.6</ele>
        <time>2020-07-07T08:05:55Z</time>
      </trkpt>
      <trkpt lat="47.01501" lon="5.80586">
        <ele>334.7</ele>
        <time>2020-07-07T08:06:04Z</time>
      </trkpt>
      <trkpt lat="47.01506" lon="5.80584">
        <ele>334.5</ele>
        <time>2020-07-07T08:06:11Z</time>
      </trkpt>
      <trkpt lat="47.0151" lon="5.80583">
        <ele>334.1</ele>
        <time>2020-07-07T08:06:18Z</time>
      </trkpt>
      <trkpt lat="47.01515" lon="5.80581">
        <ele>333.6</ele>
        <time>2020-07-07T08:06:29Z</time>
      </trkpt>
      <trkpt lat="47.01525" lon="5.80582">
        <ele>333.3</ele>
        <time>2020-07-07T08:06:57Z</time>
      </trkpt>
      <trkpt lat="47.01531" lon="5.80579">
        <ele>333.3</ele>
        <time>2020-07-07T08:07:02Z</time>
      </trkpt>
      <trkpt lat="47.01536" lon="5.80577">
        <ele>333.4</ele>
        <time>2020-07-07T08:07:04Z</time>
      </trkpt>
      <trkpt lat="47.01541" lon="5.80577">
        <ele>333.4</ele>
        <time>2020-07-07T08:07:07Z</time>
      </trkpt>
      <trkpt lat="47.01547" lon="5.80577">
        <ele>333.5</ele>
        <time>2020-07-07T08:07:14Z</time>
      </trkpt>
      <trkpt lat="47.01555" lon="5.80576">
        <ele>333.6</ele>
        <time>2020-07-07T08:07:17Z</time>
      </trkpt>
      <trkpt lat="47.01563" lon="5.80578">
        <ele>333.8</ele>
        <time>2020-07-07T08:07:20Z</time>
      </trkpt>
      <trkpt lat="47.01567" lon="5.8058">
        <ele>334</ele>
        <time>2020-07-07T08:07:22Z</time>
      </trkpt>
      <trkpt lat="47.01571" lon="5.80585">
        <ele>334.3</ele>
        <time>2020-07-07T08:07:34Z</time>
      </trkpt>
      <trkpt lat="47.01577" lon="5.80587">
        <ele>334.2</ele>
        <time>2020-07-07T08:07:39Z</time>
      </trkpt>
      <trkpt lat="47.01581" lon="5.8059">
        <ele>334.1</ele>
        <time>2020-07-07T08:07:43Z</time>
      </trkpt>
      <trkpt lat="47.01586" lon="5.80592">
        <ele>334</ele>
        <time>2020-07-07T08:07:50Z</time>
      </trkpt>
      <trkpt lat="47.01594" lon="5.80599">
        <ele>333.3</ele>
        <time>2020-07-07T08:07:59Z</time>
      </trkpt>
      <trkpt lat="47.016" lon="5.80602">
        <ele>333.2</ele>
        <time>2020-07-07T08:08:03Z</time>
      </trkpt>
      <trkpt lat="47.01613" lon="5.80607">
        <ele>332.7</ele>
        <time>2020-07-07T08:08:11Z</time>
      </trkpt>
      <trkpt lat="47.01617" lon="5.8061">
        <ele>332.4</ele>
        <time>2020-07-07T08:08:14Z</time>
      </trkpt>
      <trkpt lat="47.01621" lon="5.80613">
        <ele>331.6</ele>
        <time>2020-07-07T08:08:22Z</time>
      </trkpt>
      <trkpt lat="47.01626" lon="5.80614">
        <ele>331</ele>
        <time>2020-07-07T08:08:28Z</time>
      </trkpt>
      <trkpt lat="47.01631" lon="5.80616">
        <ele>330.9</ele>
        <time>2020-07-07T08:08:35Z</time>
      </trkpt>
      <trkpt lat="47.01638" lon="5.80618">
        <ele>330.8</ele>
        <time>2020-07-07T08:08:45Z</time>
      </trkpt>
      <trkpt lat="47.01645" lon="5.80618">
        <ele>330.7</ele>
        <time>2020-07-07T08:08:49Z</time>
      </trkpt>
      <trkpt lat="47.01651" lon="5.8062">
        <ele>330.6</ele>
        <time>2020-07-07T08:08:51Z</time>
      </trkpt>
      <trkpt lat="47.01656" lon="5.80624">
        <ele>330.6</ele>
        <time>2020-07-07T08:08:55Z</time>
      </trkpt>
      <trkpt lat="47.0166" lon="5.80627">
        <ele>330.8</ele>
        <time>2020-07-07T08:08:59Z</time>
      </trkpt>
      <trkpt lat="47.01665" lon="5.8063">
        <ele>331</ele>
        <time>2020-07-07T08:09:05Z</time>
      </trkpt>
      <trkpt lat="47.01671" lon="5.80632">
        <ele>331.3</ele>
        <time>2020-07-07T08:09:15Z</time>
      </trkpt>
      <trkpt lat="47.01675" lon="5.80635">
        <ele>331.3</ele>
        <time>2020-07-07T08:09:19Z</time>
      </trkpt>
      <trkpt lat="47.01679" lon="5.80638">
        <ele>331.5</ele>
        <time>2020-07-07T08:09:23Z</time>
      </trkpt>
      <trkpt lat="47.01684" lon="5.80642">
        <ele>331.7</ele>
        <time>2020-07-07T08:09:39Z</time>
      </trkpt>
      <trkpt lat="47.01689" lon="5.80644">
        <ele>331.5</ele>
        <time>2020-07-07T08:09:46Z</time>
      </trkpt>
      <trkpt lat="47.01693" lon="5.8064">
        <ele>330.5</ele>
        <time>2020-07-07T08:09:55Z</time>
      </trkpt>
      <trkpt lat="47.01698" lon="5.80642">
        <ele>330</ele>
        <time>2020-07-07T08:10:04Z</time>
      </trkpt>
      <trkpt lat="47.01703" lon="5.80643">
        <ele>329.7</ele>
        <time>2020-07-07T08:10:08Z</time>
      </trkpt>
      <trkpt lat="47.01709" lon="5.80645">
        <ele>329.1</ele>
        <time>2020-07-07T08:10:17Z</time>
      </trkpt>
      <trkpt lat="47.01714" lon="5.80646">
        <ele>328.7</ele>
        <time>2020-07-07T08:10:30Z</time>
      </trkpt>
      <trkpt lat="47.01718" lon="5.80649">
        <ele>328.7</ele>
        <time>2020-07-07T08:10:36Z</time>
      </trkpt>
      <trkpt lat="47.01721" lon="5.80655">
        <ele>328.7</ele>
        <time>2020-07-07T08:10:40Z</time>
      </trkpt>
      <trkpt lat="47.01724" lon="5.80661">
        <ele>328.5</ele>
        <time>2020-07-07T08:10:47Z</time>
      </trkpt>
      <trkpt lat="47.01728" lon="5.80665">
        <ele>327.7</ele>
        <time>2020-07-07T08:10:54Z</time>
      </trkpt>
      <trkpt lat="47.01733" lon="5.8067">
        <ele>327.3</ele>
        <time>2020-07-07T08:10:57Z</time>
      </trkpt>
      <trkpt lat="47.01738" lon="5.80676">
        <ele>326.9</ele>
        <time>2020-07-07T08:11:00Z</time>
      </trkpt>
      <trkpt lat="47.01741" lon="5.80681">
        <ele>326.6</ele>
        <time>2020-07-07T08:11:02Z</time>
      </trkpt>
      <trkpt lat="47.01745" lon="5.80687">
        <ele>326.2</ele>
        <time>2020-07-07T08:11:05Z</time>
      </trkpt>
      <trkpt lat="47.01748" lon="5.80692">
        <ele>325.8</ele>
        <time>2020-07-07T08:11:08Z</time>
      </trkpt>
      <trkpt lat="47.01752" lon="5.80697">
        <ele>325.4</ele>
        <time>2020-07-07T08:11:11Z</time>
      </trkpt>
      <trkpt lat="47.01756" lon="5.80705">
        <ele>324.9</ele>
        <time>2020-07-07T08:11:14Z</time>
      </trkpt>
      <trkpt lat="47.01761" lon="5.80708">
        <ele>324.5</ele>
        <time>2020-07-07T08:11:17Z</time>
      </trkpt>
      <trkpt lat="47.01766" lon="5.80708">
        <ele>323.5</ele>
        <time>2020-07-07T08:11:27Z</time>
      </trkpt>
      <trkpt lat="47.0177" lon="5.8071">
        <ele>323</ele>
        <time>2020-07-07T08:11:35Z</time>
      </trkpt>
      <trkpt lat="47.01775" lon="5.80711">
        <ele>322</ele>
        <time>2020-07-07T08:11:57Z</time>
      </trkpt>
      <trkpt lat="47.01779" lon="5.80712">
        <ele>322.2</ele>
        <time>2020-07-07T08:12:09Z</time>
      </trkpt>
      <trkpt lat="47.01786" lon="5.80711">
        <ele>322.9</ele>
        <time>2020-07-07T08:12:18Z</time>
      </trkpt>
      <trkpt lat="47.01791" lon="5.80709">
        <ele>322.9</ele>
        <time>2020-07-07T08:12:21Z</time>
      </trkpt>
      <trkpt lat="47.01797" lon="5.80709">
        <ele>322.9</ele>
        <time>2020-07-07T08:12:24Z</time>
      </trkpt>
      <trkpt lat="47.01801" lon="5.80712">
        <ele>322.9</ele>
        <time>2020-07-07T08:12:26Z</time>
      </trkpt>
      <trkpt lat="47.01807" lon="5.80715">
        <ele>322.8</ele>
        <time>2020-07-07T08:12:30Z</time>
      </trkpt>
      <trkpt lat="47.01811" lon="5.8072">
        <ele>322.6</ele>
        <time>2020-07-07T08:12:33Z</time>
      </trkpt>
      <trkpt lat="47.01815" lon="5.80724">
        <ele>322.2</ele>
        <time>2020-07-07T08:12:37Z</time>
      </trkpt>
      <trkpt lat="47.01817" lon="5.80729">
        <ele>321.8</ele>
        <time>2020-07-07T08:12:41Z</time>
      </trkpt>
      <trkpt lat="47.01821" lon="5.80733">
        <ele>320.9</ele>
        <time>2020-07-07T08:12:51Z</time>
      </trkpt>
      <trkpt lat="47.01825" lon="5.80737">
        <ele>320.2</ele>
        <time>2020-07-07T08:12:58Z</time>
      </trkpt>
      <trkpt lat="47.0183" lon="5.80739">
        <ele>319.6</ele>
        <time>2020-07-07T08:13:07Z</time>
      </trkpt>
      <trkpt lat="47.01836" lon="5.8074">
        <ele>318.5</ele>
        <time>2020-07-07T08:13:16Z</time>
      </trkpt>
      <trkpt lat="47.01841" lon="5.80739">
        <ele>317.1</ele>
        <time>2020-07-07T08:13:23Z</time>
      </trkpt>
      <trkpt lat="47.01845" lon="5.8074">
        <ele>315.8</ele>
        <time>2020-07-07T08:13:31Z</time>
      </trkpt>
      <trkpt lat="47.0185" lon="5.80741">
        <ele>315.4</ele>
        <time>2020-07-07T08:13:36Z</time>
      </trkpt>
      <trkpt lat="47.01856" lon="5.80744">
        <ele>315</ele>
        <time>2020-07-07T08:13:43Z</time>
      </trkpt>
      <trkpt lat="47.01861" lon="5.80747">
        <ele>314.8</ele>
        <time>2020-07-07T08:13:49Z</time>
      </trkpt>
      <trkpt lat="47.01865" lon="5.8075">
        <ele>314.5</ele>
        <time>2020-07-07T08:13:55Z</time>
      </trkpt>
      <trkpt lat="47.01871" lon="5.80754">
        <ele>314.3</ele>
        <time>2020-07-07T08:14:00Z</time>
      </trkpt>
      <trkpt lat="47.01876" lon="5.80757">
        <ele>314.1</ele>
        <time>2020-07-07T08:14:03Z</time>
      </trkpt>
      <trkpt lat="47.01881" lon="5.80757">
        <ele>313.7</ele>
        <time>2020-07-07T08:14:11Z</time>
      </trkpt>
      <trkpt lat="47.01886" lon="5.80756">
        <ele>313.6</ele>
        <time>2020-07-07T08:14:21Z</time>
      </trkpt>
      <trkpt lat="47.0189" lon="5.80753">
        <ele>313.7</ele>
        <time>2020-07-07T08:14:28Z</time>
      </trkpt>
      <trkpt lat="47.01894" lon="5.80757">
        <ele>313.8</ele>
        <time>2020-07-07T08:14:35Z</time>
      </trkpt>
      <trkpt lat="47.01897" lon="5.80761">
        <ele>313.8</ele>
        <time>2020-07-07T08:14:39Z</time>
      </trkpt>
      <trkpt lat="47.01901" lon="5.80765">
        <ele>314.2</ele>
        <time>2020-07-07T08:14:47Z</time>
      </trkpt>
      <trkpt lat="47.01906" lon="5.80767">
        <ele>314.7</ele>
        <time>2020-07-07T08:14:58Z</time>
      </trkpt>
      <trkpt lat="47.01915" lon="5.80768">
        <ele>316.8</ele>
        <time>2020-07-07T08:15:10Z</time>
      </trkpt>
      <trkpt lat="47.01921" lon="5.80769">
        <ele>316.9</ele>
        <time>2020-07-07T08:15:12Z</time>
      </trkpt>
      <trkpt lat="47.01926" lon="5.80768">
        <ele>317.2</ele>
        <time>2020-07-07T08:15:15Z</time>
      </trkpt>
      <trkpt lat="47.01931" lon="5.80765">
        <ele>317.4</ele>
        <time>2020-07-07T08:15:18Z</time>
      </trkpt>
      <trkpt lat="47.01936" lon="5.80764">
        <ele>317</ele>
        <time>2020-07-07T08:15:26Z</time>
      </trkpt>
      <trkpt lat="47.01944" lon="5.8077">
        <ele>314.7</ele>
        <time>2020-07-07T08:16:18Z</time>
      </trkpt>
      <trkpt lat="47.01952" lon="5.80773">
        <ele>310.1</ele>
        <time>2020-07-07T08:16:47Z</time>
      </trkpt>
      <trkpt lat="47.01957" lon="5.80775">
        <ele>308.5</ele>
        <time>2020-07-07T08:16:56Z</time>
      </trkpt>
      <trkpt lat="47.01964" lon="5.80774">
        <ele>308.1</ele>
        <time>2020-07-07T08:17:18Z</time>
      </trkpt>
      <trkpt lat="47.01968" lon="5.80779">
        <ele>307.8</ele>
        <time>2020-07-07T08:17:31Z</time>
      </trkpt>
      <trkpt lat="47.01972" lon="5.80783">
        <ele>307.2</ele>
        <time>2020-07-07T08:17:37Z</time>
      </trkpt>
      <trkpt lat="47.01976" lon="5.80787">
        <ele>306.9</ele>
        <time>2020-07-07T08:17:39Z</time>
      </trkpt>
      <trkpt lat="47.0198" lon="5.80793">
        <ele>306.4</ele>
        <time>2020-07-07T08:17:43Z</time>
      </trkpt>
      <trkpt lat="47.01984" lon="5.80799">
        <ele>306.1</ele>
        <time>2020-07-07T08:17:45Z</time>
      </trkpt>
      <trkpt lat="47.01989" lon="5.80806">
        <ele>305.5</ele>
        <time>2020-07-07T08:17:49Z</time>
      </trkpt>
      <trkpt lat="47.01993" lon="5.80812">
        <ele>304</ele>
        <time>2020-07-07T08:17:58Z</time>
      </trkpt>
      <trkpt lat="47.01997" lon="5.80817">
        <ele>303.3</ele>
        <time>2020-07-07T08:18:01Z</time>
      </trkpt>
      <trkpt lat="47.02001" lon="5.80822">
        <ele>302.7</ele>
        <time>2020-07-07T08:18:04Z</time>
      </trkpt>
      <trkpt lat="47.02005" lon="5.80827">
        <ele>302.3</ele>
        <time>2020-07-07T08:18:06Z</time>
      </trkpt>
      <trkpt lat="47.02009" lon="5.80831">
        <ele>301.5</ele>
        <time>2020-07-07T08:18:11Z</time>
      </trkpt>
      <trkpt lat="47.02014" lon="5.80837">
        <ele>301</ele>
        <time>2020-07-07T08:18:15Z</time>
      </trkpt>
      <trkpt lat="47.02019" lon="5.80841">
        <ele>300.7</ele>
        <time>2020-07-07T08:18:18Z</time>
      </trkpt>
      <trkpt lat="47.02024" lon="5.80845">
        <ele>300.2</ele>
        <time>2020-07-07T08:18:21Z</time>
      </trkpt>
      <trkpt lat="47.02029" lon="5.80848">
        <ele>299.8</ele>
        <time>2020-07-07T08:18:24Z</time>
      </trkpt>
      <trkpt lat="47.02033" lon="5.80851">
        <ele>299.3</ele>
        <time>2020-07-07T08:18:27Z</time>
      </trkpt>
      <trkpt lat="47.02037" lon="5.80855">
        <ele>298.7</ele>
        <time>2020-07-07T08:18:32Z</time>
      </trkpt>
      <trkpt lat="47.02041" lon="5.80859">
        <ele>298.4</ele>
        <time>2020-07-07T08:18:36Z</time>
      </trkpt>
      <trkpt lat="47.02045" lon="5.80864">
        <ele>297.3</ele>
        <time>2020-07-07T08:18:46Z</time>
      </trkpt>
      <trkpt lat="47.0205" lon="5.80868">
        <ele>296.9</ele>
        <time>2020-07-07T08:18:51Z</time>
      </trkpt>
      <trkpt lat="47.02054" lon="5.80871">
        <ele>296.7</ele>
        <time>2020-07-07T08:18:57Z</time>
      </trkpt>
      <trkpt lat="47.02058" lon="5.80876">
        <ele>296.7</ele>
        <time>2020-07-07T08:19:05Z</time>
      </trkpt>
      <trkpt lat="47.02062" lon="5.80882">
        <ele>296.7</ele>
        <time>2020-07-07T08:19:11Z</time>
      </trkpt>
      <trkpt lat="47.02066" lon="5.80887">
        <ele>296.5</ele>
        <time>2020-07-07T08:19:14Z</time>
      </trkpt>
      <trkpt lat="47.02069" lon="5.80892">
        <ele>296.1</ele>
        <time>2020-07-07T08:19:20Z</time>
      </trkpt>
      <trkpt lat="47.02072" lon="5.80897">
        <ele>295.1</ele>
        <time>2020-07-07T08:19:28Z</time>
      </trkpt>
      <trkpt lat="47.02075" lon="5.80903">
        <ele>294.3</ele>
        <time>2020-07-07T08:19:35Z</time>
      </trkpt>
      <trkpt lat="47.02078" lon="5.80908">
        <ele>293.6</ele>
        <time>2020-07-07T08:19:44Z</time>
      </trkpt>
      <trkpt lat="47.02082" lon="5.80913">
        <ele>293.5</ele>
        <time>2020-07-07T08:19:53Z</time>
      </trkpt>
      <trkpt lat="47.02084" lon="5.80921">
        <ele>293.5</ele>
        <time>2020-07-07T08:19:59Z</time>
      </trkpt>
      <trkpt lat="47.02086" lon="5.80927">
        <ele>293.6</ele>
        <time>2020-07-07T08:20:03Z</time>
      </trkpt>
      <trkpt lat="47.0209" lon="5.80931">
        <ele>293.8</ele>
        <time>2020-07-07T08:20:12Z</time>
      </trkpt>
      <trkpt lat="47.02095" lon="5.80932">
        <ele>294.1</ele>
        <time>2020-07-07T08:20:19Z</time>
      </trkpt>
      <trkpt lat="47.02105" lon="5.80946">
        <ele>290.3</ele>
        <time>2020-07-07T08:22:09Z</time>
      </trkpt>
      <trkpt lat="47.02108" lon="5.80951">
        <ele>289.4</ele>
        <time>2020-07-07T08:22:14Z</time>
      </trkpt>
      <trkpt lat="47.02111" lon="5.80959">
        <ele>288.9</ele>
        <time>2020-07-07T08:22:17Z</time>
      </trkpt>
      <trkpt lat="47.02113" lon="5.80966">
        <ele>288.3</ele>
        <time>2020-07-07T08:22:20Z</time>
      </trkpt>
      <trkpt lat="47.02118" lon="5.80965">
        <ele>286.7</ele>
        <time>2020-07-07T08:22:28Z</time>
      </trkpt>
      <trkpt lat="47.02121" lon="5.80959">
        <ele>285.6</ele>
        <time>2020-07-07T08:22:34Z</time>
      </trkpt>
      <trkpt lat="47.02122" lon="5.80953">
        <ele>284</ele>
        <time>2020-07-07T08:22:43Z</time>
      </trkpt>
      <trkpt lat="47.02127" lon="5.80952">
        <ele>282.9</ele>
        <time>2020-07-07T08:22:49Z</time>
      </trkpt>
      <trkpt lat="47.02131" lon="5.80949">
        <ele>282.3</ele>
        <time>2020-07-07T08:22:54Z</time>
      </trkpt>
      <trkpt lat="47.02132" lon="5.80942">
        <ele>282</ele>
        <time>2020-07-07T08:22:56Z</time>
      </trkpt>
      <trkpt lat="47.02134" lon="5.80936">
        <ele>281.5</ele>
        <time>2020-07-07T08:23:02Z</time>
      </trkpt>
      <trkpt lat="47.02139" lon="5.80932">
        <ele>281.6</ele>
        <time>2020-07-07T08:23:07Z</time>
      </trkpt>
      <trkpt lat="47.02143" lon="5.80926">
        <ele>281.8</ele>
        <time>2020-07-07T08:23:10Z</time>
      </trkpt>
      <trkpt lat="47.02148" lon="5.80921">
        <ele>282</ele>
        <time>2020-07-07T08:23:12Z</time>
      </trkpt>
      <trkpt lat="47.02153" lon="5.80917">
        <ele>282.2</ele>
        <time>2020-07-07T08:23:15Z</time>
      </trkpt>
      <trkpt lat="47.02157" lon="5.80916">
        <ele>283.2</ele>
        <time>2020-07-07T08:23:24Z</time>
      </trkpt>
      <trkpt lat="47.02162" lon="5.80915">
        <ele>283.5</ele>
        <time>2020-07-07T08:23:36Z</time>
      </trkpt>
      <trkpt lat="47.02168" lon="5.80914">
        <ele>282.9</ele>
        <time>2020-07-07T08:23:45Z</time>
      </trkpt>
      <trkpt lat="47.02187" lon="5.80913">
        <ele>280.7</ele>
        <time>2020-07-07T08:23:56Z</time>
      </trkpt>
      <trkpt lat="47.02192" lon="5.80914">
        <ele>280</ele>
        <time>2020-07-07T08:24:01Z</time>
      </trkpt>
      <trkpt lat="47.02197" lon="5.80914">
        <ele>279.5</ele>
        <time>2020-07-07T08:24:04Z</time>
      </trkpt>
      <trkpt lat="47.02202" lon="5.80914">
        <ele>278.8</ele>
        <time>2020-07-07T08:24:08Z</time>
      </trkpt>
      <trkpt lat="47.02206" lon="5.80915">
        <ele>278.3</ele>
        <time>2020-07-07T08:24:11Z</time>
      </trkpt>
      <trkpt lat="47.02212" lon="5.80916">
        <ele>278</ele>
        <time>2020-07-07T08:24:13Z</time>
      </trkpt>
      <trkpt lat="47.02217" lon="5.80914">
        <ele>277.4</ele>
        <time>2020-07-07T08:24:17Z</time>
      </trkpt>
      <trkpt lat="47.02222" lon="5.80914">
        <ele>276.7</ele>
        <time>2020-07-07T08:24:23Z</time>
      </trkpt>
      <trkpt lat="47.02226" lon="5.80916">
        <ele>276.5</ele>
        <time>2020-07-07T08:24:31Z</time>
      </trkpt>
      <trkpt lat="47.02232" lon="5.80917">
        <ele>276.4</ele>
        <time>2020-07-07T08:24:37Z</time>
      </trkpt>
      <trkpt lat="47.02237" lon="5.80919">
        <ele>276.3</ele>
        <time>2020-07-07T08:24:42Z</time>
      </trkpt>
      <trkpt lat="47.02241" lon="5.8092">
        <ele>276.3</ele>
        <time>2020-07-07T08:24:47Z</time>
      </trkpt>
      <trkpt lat="47.02246" lon="5.80919">
        <ele>276.4</ele>
        <time>2020-07-07T08:24:53Z</time>
      </trkpt>
      <trkpt lat="47.02251" lon="5.8092">
        <ele>276.7</ele>
        <time>2020-07-07T08:24:57Z</time>
      </trkpt>
      <trkpt lat="47.02256" lon="5.80921">
        <ele>277.1</ele>
        <time>2020-07-07T08:25:02Z</time>
      </trkpt>
      <trkpt lat="47.02261" lon="5.80923">
        <ele>277.4</ele>
        <time>2020-07-07T08:25:07Z</time>
      </trkpt>
      <trkpt lat="47.02265" lon="5.80924">
        <ele>277.7</ele>
        <time>2020-07-07T08:25:12Z</time>
      </trkpt>
      <trkpt lat="47.0227" lon="5.80926">
        <ele>278</ele>
        <time>2020-07-07T08:25:18Z</time>
      </trkpt>
      <trkpt lat="47.02274" lon="5.80928">
        <ele>278.2</ele>
        <time>2020-07-07T08:25:23Z</time>
      </trkpt>
      <trkpt lat="47.02279" lon="5.8093">
        <ele>278.4</ele>
        <time>2020-07-07T08:25:28Z</time>
      </trkpt>
      <trkpt lat="47.02284" lon="5.80934">
        <ele>278.5</ele>
        <time>2020-07-07T08:25:33Z</time>
      </trkpt>
      <trkpt lat="47.02288" lon="5.80938">
        <ele>278.5</ele>
        <time>2020-07-07T08:25:37Z</time>
      </trkpt>
      <trkpt lat="47.02293" lon="5.80942">
        <ele>278.4</ele>
        <time>2020-07-07T08:25:41Z</time>
      </trkpt>
      <trkpt lat="47.02297" lon="5.80946">
        <ele>278.1</ele>
        <time>2020-07-07T08:25:46Z</time>
      </trkpt>
      <trkpt lat="47.02302" lon="5.80949">
        <ele>277.7</ele>
        <time>2020-07-07T08:25:51Z</time>
      </trkpt>
      <trkpt lat="47.02307" lon="5.80952">
        <ele>277.2</ele>
        <time>2020-07-07T08:25:56Z</time>
      </trkpt>
      <trkpt lat="47.02312" lon="5.80955">
        <ele>276.7</ele>
        <time>2020-07-07T08:26:01Z</time>
      </trkpt>
      <trkpt lat="47.02317" lon="5.80958">
        <ele>275.8</ele>
        <time>2020-07-07T08:26:06Z</time>
      </trkpt>
      <trkpt lat="47.02322" lon="5.8096">
        <ele>275</ele>
        <time>2020-07-07T08:26:11Z</time>
      </trkpt>
      <trkpt lat="47.02327" lon="5.80962">
        <ele>274.2</ele>
        <time>2020-07-07T08:26:16Z</time>
      </trkpt>
      <trkpt lat="47.02331" lon="5.80964">
        <ele>273.3</ele>
        <time>2020-07-07T08:26:22Z</time>
      </trkpt>
      <trkpt lat="47.02336" lon="5.80966">
        <ele>272.5</ele>
        <time>2020-07-07T08:26:27Z</time>
      </trkpt>
      <trkpt lat="47.0234" lon="5.80968">
        <ele>271.7</ele>
        <time>2020-07-07T08:26:32Z</time>
      </trkpt>
      <trkpt lat="47.02345" lon="5.80971">
        <ele>271</ele>
        <time>2020-07-07T08:26:37Z</time>
      </trkpt>
      <trkpt lat="47.02349" lon="5.80974">
        <ele>270.3</ele>
        <time>2020-07-07T08:26:43Z</time>
      </trkpt>
      <trkpt lat="47.02354" lon="5.80976">
        <ele>269.8</ele>
        <time>2020-07-07T08:26:48Z</time>
      </trkpt>
      <trkpt lat="47.02358" lon="5.80979">
        <ele>269.4</ele>
        <time>2020-07-07T08:26:52Z</time>
      </trkpt>
      <trkpt lat="47.02363" lon="5.80983">
        <ele>268.8</ele>
        <time>2020-07-07T08:26:57Z</time>
      </trkpt>
      <trkpt lat="47.02368" lon="5.80985">
        <ele>268.3</ele>
        <time>2020-07-07T08:27:03Z</time>
      </trkpt>
      <trkpt lat="47.02372" lon="5.80986">
        <ele>268.1</ele>
        <time>2020-07-07T08:27:07Z</time>
      </trkpt>
      <trkpt lat="47.02377" lon="5.80985">
        <ele>267.9</ele>
        <time>2020-07-07T08:27:12Z</time>
      </trkpt>
      <trkpt lat="47.02382" lon="5.80984">
        <ele>267.7</ele>
        <time>2020-07-07T08:27:18Z</time>
      </trkpt>
      <trkpt lat="47.02384" lon="5.8099">
        <ele>268</ele>
        <time>2020-07-07T08:27:41Z</time>
      </trkpt>
      <trkpt lat="47.02384" lon="5.80989">
        <ele>272.4</ele>
        <time>2020-07-07T08:28:11Z</time>
      </trkpt>
      <trkpt lat="47.02389" lon="5.80987">
        <ele>272.8</ele>
        <time>2020-07-07T08:29:07Z</time>
      </trkpt>
      <trkpt lat="47.02394" lon="5.80989">
        <ele>272.7</ele>
        <time>2020-07-07T08:29:11Z</time>
      </trkpt>
      <trkpt lat="47.02398" lon="5.80992">
        <ele>272.4</ele>
        <time>2020-07-07T08:29:16Z</time>
      </trkpt>
      <trkpt lat="47.02402" lon="5.80996">
        <ele>272</ele>
        <time>2020-07-07T08:29:21Z</time>
      </trkpt>
      <trkpt lat="47.02406" lon="5.81">
        <ele>271.8</ele>
        <time>2020-07-07T08:29:26Z</time>
      </trkpt>
      <trkpt lat="47.0241" lon="5.81004">
        <ele>271.7</ele>
        <time>2020-07-07T08:29:49Z</time>
      </trkpt>
      <trkpt lat="47.02413" lon="5.81008">
        <ele>271.1</ele>
        <time>2020-07-07T08:29:54Z</time>
      </trkpt>
      <trkpt lat="47.02417" lon="5.81015">
        <ele>270.4</ele>
        <time>2020-07-07T08:29:59Z</time>
      </trkpt>
      <trkpt lat="47.02421" lon="5.8102">
        <ele>269.8</ele>
        <time>2020-07-07T08:30:03Z</time>
      </trkpt>
      <trkpt lat="47.02426" lon="5.81022">
        <ele>269.2</ele>
        <time>2020-07-07T08:30:07Z</time>
      </trkpt>
      <trkpt lat="47.0243" lon="5.81025">
        <ele>268.6</ele>
        <time>2020-07-07T08:30:11Z</time>
      </trkpt>
      <trkpt lat="47.02434" lon="5.81028">
        <ele>268.1</ele>
        <time>2020-07-07T08:30:15Z</time>
      </trkpt>
      <trkpt lat="47.02439" lon="5.81031">
        <ele>267.5</ele>
        <time>2020-07-07T08:30:19Z</time>
      </trkpt>
      <trkpt lat="47.02443" lon="5.81033">
        <ele>266.9</ele>
        <time>2020-07-07T08:30:23Z</time>
      </trkpt>
      <trkpt lat="47.02447" lon="5.81035">
        <ele>266.2</ele>
        <time>2020-07-07T08:30:28Z</time>
      </trkpt>
      <trkpt lat="47.02452" lon="5.81039">
        <ele>265.1</ele>
        <time>2020-07-07T08:30:36Z</time>
      </trkpt>
      <trkpt lat="47.02456" lon="5.81043">
        <ele>264.5</ele>
        <time>2020-07-07T08:30:41Z</time>
      </trkpt>
      <trkpt lat="47.0246" lon="5.81047">
        <ele>264.1</ele>
        <time>2020-07-07T08:30:45Z</time>
      </trkpt>
      <trkpt lat="47.02464" lon="5.81051">
        <ele>263.7</ele>
        <time>2020-07-07T08:30:50Z</time>
      </trkpt>
      <trkpt lat="47.02468" lon="5.81054">
        <ele>263.1</ele>
        <time>2020-07-07T08:30:56Z</time>
      </trkpt>
      <trkpt lat="47.02472" lon="5.81058">
        <ele>262.5</ele>
        <time>2020-07-07T08:31:02Z</time>
      </trkpt>
      <trkpt lat="47.02477" lon="5.81061">
        <ele>262.1</ele>
        <time>2020-07-07T08:31:07Z</time>
      </trkpt>
      <trkpt lat="47.02482" lon="5.81063">
        <ele>261.7</ele>
        <time>2020-07-07T08:31:12Z</time>
      </trkpt>
      <trkpt lat="47.02487" lon="5.81065">
        <ele>261.4</ele>
        <time>2020-07-07T08:31:17Z</time>
      </trkpt>
      <trkpt lat="47.02491" lon="5.81067">
        <ele>261.3</ele>
        <time>2020-07-07T08:31:21Z</time>
      </trkpt>
      <trkpt lat="47.02497" lon="5.81069">
        <ele>261</ele>
        <time>2020-07-07T08:31:26Z</time>
      </trkpt>
      <trkpt lat="47.02501" lon="5.81072">
        <ele>260.9</ele>
        <time>2020-07-07T08:31:31Z</time>
      </trkpt>
      <trkpt lat="47.02506" lon="5.81075">
        <ele>260.9</ele>
        <time>2020-07-07T08:31:36Z</time>
      </trkpt>
      <trkpt lat="47.0251" lon="5.81078">
        <ele>260.8</ele>
        <time>2020-07-07T08:31:41Z</time>
      </trkpt>
      <trkpt lat="47.02515" lon="5.81082">
        <ele>260.7</ele>
        <time>2020-07-07T08:31:46Z</time>
      </trkpt>
      <trkpt lat="47.02521" lon="5.81084">
        <ele>260.5</ele>
        <time>2020-07-07T08:31:50Z</time>
      </trkpt>
      <trkpt lat="47.02525" lon="5.81086">
        <ele>260.5</ele>
        <time>2020-07-07T08:31:54Z</time>
      </trkpt>
      <trkpt lat="47.0253" lon="5.81088">
        <ele>260.5</ele>
        <time>2020-07-07T08:31:59Z</time>
      </trkpt>
      <trkpt lat="47.02535" lon="5.81091">
        <ele>260.5</ele>
        <time>2020-07-07T08:32:05Z</time>
      </trkpt>
      <trkpt lat="47.02541" lon="5.81093">
        <ele>260.6</ele>
        <time>2020-07-07T08:32:09Z</time>
      </trkpt>
      <trkpt lat="47.02545" lon="5.81096">
        <ele>260.7</ele>
        <time>2020-07-07T08:32:14Z</time>
      </trkpt>
      <trkpt lat="47.0255" lon="5.81098">
        <ele>260.7</ele>
        <time>2020-07-07T08:32:19Z</time>
      </trkpt>
      <trkpt lat="47.02554" lon="5.811">
        <ele>260.7</ele>
        <time>2020-07-07T08:32:29Z</time>
      </trkpt>
      <trkpt lat="47.02559" lon="5.81102">
        <ele>261.1</ele>
        <time>2020-07-07T08:32:35Z</time>
      </trkpt>
      <trkpt lat="47.02564" lon="5.81104">
        <ele>261.4</ele>
        <time>2020-07-07T08:32:39Z</time>
      </trkpt>
      <trkpt lat="47.02569" lon="5.81105">
        <ele>261.8</ele>
        <time>2020-07-07T08:32:44Z</time>
      </trkpt>
      <trkpt lat="47.02574" lon="5.81107">
        <ele>262.1</ele>
        <time>2020-07-07T08:32:49Z</time>
      </trkpt>
      <trkpt lat="47.02579" lon="5.81109">
        <ele>262.5</ele>
        <time>2020-07-07T08:32:54Z</time>
      </trkpt>
      <trkpt lat="47.02584" lon="5.81111">
        <ele>262.6</ele>
        <time>2020-07-07T08:32:59Z</time>
      </trkpt>
      <trkpt lat="47.02589" lon="5.81113">
        <ele>262.7</ele>
        <time>2020-07-07T08:33:04Z</time>
      </trkpt>
      <trkpt lat="47.02594" lon="5.81114">
        <ele>262.8</ele>
        <time>2020-07-07T08:33:08Z</time>
      </trkpt>
      <trkpt lat="47.02599" lon="5.81115">
        <ele>262.9</ele>
        <time>2020-07-07T08:33:13Z</time>
      </trkpt>
      <trkpt lat="47.02604" lon="5.81117">
        <ele>262.9</ele>
        <time>2020-07-07T08:33:16Z</time>
      </trkpt>
      <trkpt lat="47.02611" lon="5.8112">
        <ele>263</ele>
        <time>2020-07-07T08:33:21Z</time>
      </trkpt>
      <trkpt lat="47.02615" lon="5.81122">
        <ele>263.3</ele>
        <time>2020-07-07T08:33:26Z</time>
      </trkpt>
      <trkpt lat="47.02624" lon="5.81126">
        <ele>264.1</ele>
        <time>2020-07-07T08:33:35Z</time>
      </trkpt>
      <trkpt lat="47.0263" lon="5.81127">
        <ele>264.4</ele>
        <time>2020-07-07T08:33:39Z</time>
      </trkpt>
      <trkpt lat="47.02635" lon="5.8113">
        <ele>264.9</ele>
        <time>2020-07-07T08:33:46Z</time>
      </trkpt>
      <trkpt lat="47.0264" lon="5.81132">
        <ele>265.5</ele>
        <time>2020-07-07T08:33:53Z</time>
      </trkpt>
      <trkpt lat="47.02646" lon="5.81132">
        <ele>266.3</ele>
        <time>2020-07-07T08:34:00Z</time>
      </trkpt>
      <trkpt lat="47.02652" lon="5.81134">
        <ele>266.7</ele>
        <time>2020-07-07T08:34:04Z</time>
      </trkpt>
      <trkpt lat="47.02657" lon="5.81135">
        <ele>267.1</ele>
        <time>2020-07-07T08:34:07Z</time>
      </trkpt>
      <trkpt lat="47.02667" lon="5.81133">
        <ele>268.8</ele>
        <time>2020-07-07T08:34:21Z</time>
      </trkpt>
      <trkpt lat="47.02677" lon="5.81137">
        <ele>268.2</ele>
        <time>2020-07-07T08:35:46Z</time>
      </trkpt>
      <trkpt lat="47.02681" lon="5.81137">
        <ele>267.7</ele>
        <time>2020-07-07T08:35:54Z</time>
      </trkpt>
      <trkpt lat="47.02686" lon="5.81139">
        <ele>268.3</ele>
        <time>2020-07-07T08:36:06Z</time>
      </trkpt>
      <trkpt lat="47.02691" lon="5.8114">
        <ele>269.1</ele>
        <time>2020-07-07T08:36:11Z</time>
      </trkpt>
      <trkpt lat="47.02696" lon="5.81142">
        <ele>270.1</ele>
        <time>2020-07-07T08:36:16Z</time>
      </trkpt>
      <trkpt lat="47.02701" lon="5.81142">
        <ele>270.7</ele>
        <time>2020-07-07T08:36:21Z</time>
      </trkpt>
      <trkpt lat="47.02708" lon="5.81142">
        <ele>272.1</ele>
        <time>2020-07-07T08:37:23Z</time>
      </trkpt>
      <trkpt lat="47.02714" lon="5.81142">
        <ele>272.2</ele>
        <time>2020-07-07T08:37:27Z</time>
      </trkpt>
      <trkpt lat="47.02719" lon="5.81143">
        <ele>272.1</ele>
        <time>2020-07-07T08:37:32Z</time>
      </trkpt>
      <trkpt lat="47.02723" lon="5.81147">
        <ele>273.6</ele>
        <time>2020-07-07T08:38:36Z</time>
      </trkpt>
      <trkpt lat="47.02728" lon="5.8115">
        <ele>273.7</ele>
        <time>2020-07-07T08:38:42Z</time>
      </trkpt>
      <trkpt lat="47.02733" lon="5.81152">
        <ele>273.6</ele>
        <time>2020-07-07T08:38:47Z</time>
      </trkpt>
      <trkpt lat="47.02738" lon="5.81155">
        <ele>273.4</ele>
        <time>2020-07-07T08:38:51Z</time>
      </trkpt>
      <trkpt lat="47.02743" lon="5.81156">
        <ele>273.3</ele>
        <time>2020-07-07T08:38:54Z</time>
      </trkpt>
      <trkpt lat="47.02748" lon="5.81158">
        <ele>272.9</ele>
        <time>2020-07-07T08:39:01Z</time>
      </trkpt>
      <trkpt lat="47.02753" lon="5.8116">
        <ele>272.9</ele>
        <time>2020-07-07T08:39:08Z</time>
      </trkpt>
      <trkpt lat="47.02758" lon="5.81161">
        <ele>272.9</ele>
        <time>2020-07-07T08:39:14Z</time>
      </trkpt>
      <trkpt lat="47.02763" lon="5.81164">
        <ele>272.7</ele>
        <time>2020-07-07T08:39:21Z</time>
      </trkpt>
      <trkpt lat="47.02767" lon="5.81166">
        <ele>272.1</ele>
        <time>2020-07-07T08:39:28Z</time>
      </trkpt>
      <trkpt lat="47.02772" lon="5.81167">
        <ele>271.5</ele>
        <time>2020-07-07T08:39:32Z</time>
      </trkpt>
      <trkpt lat="47.02776" lon="5.81169">
        <ele>270.7</ele>
        <time>2020-07-07T08:39:37Z</time>
      </trkpt>
      <trkpt lat="47.02781" lon="5.81172">
        <ele>270.1</ele>
        <time>2020-07-07T08:39:42Z</time>
      </trkpt>
      <trkpt lat="47.02786" lon="5.81175">
        <ele>269.7</ele>
        <time>2020-07-07T08:39:46Z</time>
      </trkpt>
      <trkpt lat="47.02793" lon="5.81177">
        <ele>269.3</ele>
        <time>2020-07-07T08:39:50Z</time>
      </trkpt>
      <trkpt lat="47.02798" lon="5.81177">
        <ele>269.2</ele>
        <time>2020-07-07T08:39:52Z</time>
      </trkpt>
      <trkpt lat="47.02803" lon="5.81179">
        <ele>269.1</ele>
        <time>2020-07-07T08:39:58Z</time>
      </trkpt>
      <trkpt lat="47.02808" lon="5.81182">
        <ele>268.9</ele>
        <time>2020-07-07T08:40:04Z</time>
      </trkpt>
      <trkpt lat="47.02814" lon="5.81186">
        <ele>268.5</ele>
        <time>2020-07-07T08:40:15Z</time>
      </trkpt>
      <trkpt lat="47.02819" lon="5.81189">
        <ele>268.3</ele>
        <time>2020-07-07T08:40:20Z</time>
      </trkpt>
      <trkpt lat="47.02824" lon="5.8119">
        <ele>268.1</ele>
        <time>2020-07-07T08:40:23Z</time>
      </trkpt>
      <trkpt lat="47.02828" lon="5.81191">
        <ele>268</ele>
        <time>2020-07-07T08:40:26Z</time>
      </trkpt>
      <trkpt lat="47.02834" lon="5.81192">
        <ele>267.8</ele>
        <time>2020-07-07T08:40:30Z</time>
      </trkpt>
      <trkpt lat="47.02839" lon="5.81194">
        <ele>267.7</ele>
        <time>2020-07-07T08:40:35Z</time>
      </trkpt>
      <trkpt lat="47.02843" lon="5.81197">
        <ele>267.9</ele>
        <time>2020-07-07T08:40:40Z</time>
      </trkpt>
      <trkpt lat="47.02848" lon="5.81202">
        <ele>267.8</ele>
        <time>2020-07-07T08:40:44Z</time>
      </trkpt>
      <trkpt lat="47.02852" lon="5.81204">
        <ele>267.8</ele>
        <time>2020-07-07T08:40:49Z</time>
      </trkpt>
      <trkpt lat="47.02857" lon="5.81204">
        <ele>268</ele>
        <time>2020-07-07T08:40:52Z</time>
      </trkpt>
      <trkpt lat="47.02862" lon="5.81208">
        <ele>268.2</ele>
        <time>2020-07-07T08:40:57Z</time>
      </trkpt>
      <trkpt lat="47.02866" lon="5.81209">
        <ele>268.3</ele>
        <time>2020-07-07T08:41:00Z</time>
      </trkpt>
      <trkpt lat="47.02871" lon="5.81212">
        <ele>268.2</ele>
        <time>2020-07-07T08:41:07Z</time>
      </trkpt>
      <trkpt lat="47.02876" lon="5.81213">
        <ele>268.2</ele>
        <time>2020-07-07T08:41:10Z</time>
      </trkpt>
      <trkpt lat="47.0288" lon="5.81215">
        <ele>268</ele>
        <time>2020-07-07T08:41:15Z</time>
      </trkpt>
      <trkpt lat="47.02885" lon="5.81217">
        <ele>267.8</ele>
        <time>2020-07-07T08:41:21Z</time>
      </trkpt>
      <trkpt lat="47.0289" lon="5.81219">
        <ele>267.4</ele>
        <time>2020-07-07T08:41:28Z</time>
      </trkpt>
      <trkpt lat="47.02894" lon="5.81221">
        <ele>267.2</ele>
        <time>2020-07-07T08:41:33Z</time>
      </trkpt>
      <trkpt lat="47.02901" lon="5.81227">
        <ele>267</ele>
        <time>2020-07-07T08:41:48Z</time>
      </trkpt>
      <trkpt lat="47.02905" lon="5.81231">
        <ele>267.6</ele>
        <time>2020-07-07T08:42:03Z</time>
      </trkpt>
      <trkpt lat="47.02911" lon="5.81237">
        <ele>267.7</ele>
        <time>2020-07-07T08:42:08Z</time>
      </trkpt>
      <trkpt lat="47.02915" lon="5.81242">
        <ele>267.8</ele>
        <time>2020-07-07T08:42:12Z</time>
      </trkpt>
      <trkpt lat="47.0292" lon="5.81243">
        <ele>267.9</ele>
        <time>2020-07-07T08:42:14Z</time>
      </trkpt>
      <trkpt lat="47.02924" lon="5.81244">
        <ele>268.1</ele>
        <time>2020-07-07T08:42:17Z</time>
      </trkpt>
      <trkpt lat="47.02928" lon="5.81249">
        <ele>268.3</ele>
        <time>2020-07-07T08:42:20Z</time>
      </trkpt>
      <trkpt lat="47.02935" lon="5.81253">
        <ele>268.5</ele>
        <time>2020-07-07T08:42:23Z</time>
      </trkpt>
      <trkpt lat="47.02942" lon="5.8126">
        <ele>268.7</ele>
        <time>2020-07-07T08:42:25Z</time>
      </trkpt>
      <trkpt lat="47.02946" lon="5.81264">
        <ele>268.8</ele>
        <time>2020-07-07T08:42:27Z</time>
      </trkpt>
      <trkpt lat="47.02951" lon="5.81264">
        <ele>268.9</ele>
        <time>2020-07-07T08:42:31Z</time>
      </trkpt>
      <trkpt lat="47.02956" lon="5.81261">
        <ele>268.9</ele>
        <time>2020-07-07T08:42:34Z</time>
      </trkpt>
      <trkpt lat="47.02961" lon="5.81263">
        <ele>268.6</ele>
        <time>2020-07-07T08:42:39Z</time>
      </trkpt>
      <trkpt lat="47.02965" lon="5.81267">
        <ele>268.4</ele>
        <time>2020-07-07T08:42:44Z</time>
      </trkpt>
      <trkpt lat="47.02977" lon="5.81276">
        <ele>267.3</ele>
        <time>2020-07-07T08:43:03Z</time>
      </trkpt>
      <trkpt lat="47.02981" lon="5.81279">
        <ele>267.3</ele>
        <time>2020-07-07T08:43:07Z</time>
      </trkpt>
      <trkpt lat="47.02986" lon="5.81282">
        <ele>267.1</ele>
        <time>2020-07-07T08:43:15Z</time>
      </trkpt>
      <trkpt lat="47.0299" lon="5.81286">
        <ele>267.2</ele>
        <time>2020-07-07T08:43:23Z</time>
      </trkpt>
      <trkpt lat="47.03005" lon="5.81294">
        <ele>267</ele>
        <time>2020-07-07T08:43:44Z</time>
      </trkpt>
      <trkpt lat="47.03009" lon="5.81296">
        <ele>266.9</ele>
        <time>2020-07-07T08:43:49Z</time>
      </trkpt>
      <trkpt lat="47.03013" lon="5.81301">
        <ele>266.9</ele>
        <time>2020-07-07T08:43:55Z</time>
      </trkpt>
      <trkpt lat="47.03018" lon="5.81306">
        <ele>267</ele>
        <time>2020-07-07T08:43:57Z</time>
      </trkpt>
      <trkpt lat="47.03022" lon="5.8131">
        <ele>267</ele>
        <time>2020-07-07T08:43:59Z</time>
      </trkpt>
      <trkpt lat="47.03032" lon="5.81316">
        <ele>267.4</ele>
        <time>2020-07-07T08:44:13Z</time>
      </trkpt>
      <trkpt lat="47.03038" lon="5.8132">
        <ele>267.6</ele>
        <time>2020-07-07T08:44:15Z</time>
      </trkpt>
      <trkpt lat="47.03043" lon="5.81323">
        <ele>267.9</ele>
        <time>2020-07-07T08:44:18Z</time>
      </trkpt>
      <trkpt lat="47.03051" lon="5.81328">
        <ele>268.7</ele>
        <time>2020-07-07T08:44:30Z</time>
      </trkpt>
      <trkpt lat="47.03062" lon="5.81332">
        <ele>268.5</ele>
        <time>2020-07-07T08:44:38Z</time>
      </trkpt>
      <trkpt lat="47.03068" lon="5.81335">
        <ele>268.5</ele>
        <time>2020-07-07T08:44:42Z</time>
      </trkpt>
      <trkpt lat="47.03072" lon="5.81337">
        <ele>268.4</ele>
        <time>2020-07-07T08:44:49Z</time>
      </trkpt>
      <trkpt lat="47.03078" lon="5.81337">
        <ele>268.4</ele>
        <time>2020-07-07T08:44:51Z</time>
      </trkpt>
      <trkpt lat="47.03083" lon="5.81338">
        <ele>268.4</ele>
        <time>2020-07-07T08:44:56Z</time>
      </trkpt>
      <trkpt lat="47.03089" lon="5.81338">
        <ele>268.7</ele>
        <time>2020-07-07T08:45:00Z</time>
      </trkpt>
      <trkpt lat="47.03094" lon="5.81338">
        <ele>269.2</ele>
        <time>2020-07-07T08:45:05Z</time>
      </trkpt>
      <trkpt lat="47.031" lon="5.81342">
        <ele>270.4</ele>
        <time>2020-07-07T08:45:13Z</time>
      </trkpt>
      <trkpt lat="47.03104" lon="5.81346">
        <ele>270.7</ele>
        <time>2020-07-07T08:45:15Z</time>
      </trkpt>
      <trkpt lat="47.03111" lon="5.81348">
        <ele>271.4</ele>
        <time>2020-07-07T08:45:19Z</time>
      </trkpt>
      <trkpt lat="47.03116" lon="5.8135">
        <ele>272.3</ele>
        <time>2020-07-07T08:45:24Z</time>
      </trkpt>
      <trkpt lat="47.03121" lon="5.81354">
        <ele>273.4</ele>
        <time>2020-07-07T08:45:30Z</time>
      </trkpt>
      <trkpt lat="47.03126" lon="5.81355">
        <ele>273.8</ele>
        <time>2020-07-07T08:45:33Z</time>
      </trkpt>
      <trkpt lat="47.03131" lon="5.81357">
        <ele>274.1</ele>
        <time>2020-07-07T08:45:43Z</time>
      </trkpt>
      <trkpt lat="47.03136" lon="5.8136">
        <ele>273.8</ele>
        <time>2020-07-07T08:45:49Z</time>
      </trkpt>
      <trkpt lat="47.03141" lon="5.81357">
        <ele>273.2</ele>
        <time>2020-07-07T08:45:55Z</time>
      </trkpt>
      <trkpt lat="47.03146" lon="5.81356">
        <ele>272.8</ele>
        <time>2020-07-07T08:45:58Z</time>
      </trkpt>
      <trkpt lat="47.03155" lon="5.8136">
        <ele>270.1</ele>
        <time>2020-07-07T08:46:08Z</time>
      </trkpt>
      <trkpt lat="47.0316" lon="5.81357">
        <ele>269.3</ele>
        <time>2020-07-07T08:46:12Z</time>
      </trkpt>
      <trkpt lat="47.03167" lon="5.81359">
        <ele>268.2</ele>
        <time>2020-07-07T08:46:17Z</time>
      </trkpt>
      <trkpt lat="47.03172" lon="5.81358">
        <ele>266.8</ele>
        <time>2020-07-07T08:46:24Z</time>
      </trkpt>
      <trkpt lat="47.03177" lon="5.81357">
        <ele>266.2</ele>
        <time>2020-07-07T08:46:31Z</time>
      </trkpt>
      <trkpt lat="47.03182" lon="5.81358">
        <ele>265.9</ele>
        <time>2020-07-07T08:46:36Z</time>
      </trkpt>
      <trkpt lat="47.03188" lon="5.81358">
        <ele>265.5</ele>
        <time>2020-07-07T08:46:42Z</time>
      </trkpt>
      <trkpt lat="47.03193" lon="5.81355">
        <ele>265.3</ele>
        <time>2020-07-07T08:46:46Z</time>
      </trkpt>
      <trkpt lat="47.03198" lon="5.81353">
        <ele>264.9</ele>
        <time>2020-07-07T08:46:50Z</time>
      </trkpt>
      <trkpt lat="47.03203" lon="5.8135">
        <ele>264.5</ele>
        <time>2020-07-07T08:46:54Z</time>
      </trkpt>
      <trkpt lat="47.03212" lon="5.81345">
        <ele>264</ele>
        <time>2020-07-07T08:47:08Z</time>
      </trkpt>
      <trkpt lat="47.03217" lon="5.81344">
        <ele>263.7</ele>
        <time>2020-07-07T08:47:16Z</time>
      </trkpt>
      <trkpt lat="47.03222" lon="5.81342">
        <ele>263.5</ele>
        <time>2020-07-07T08:47:19Z</time>
      </trkpt>
      <trkpt lat="47.03228" lon="5.81341">
        <ele>263</ele>
        <time>2020-07-07T08:47:24Z</time>
      </trkpt>
      <trkpt lat="47.03232" lon="5.8134">
        <ele>262.6</ele>
        <time>2020-07-07T08:47:27Z</time>
      </trkpt>
      <trkpt lat="47.03237" lon="5.81342">
        <ele>261.6</ele>
        <time>2020-07-07T08:47:33Z</time>
      </trkpt>
      <trkpt lat="47.03243" lon="5.81342">
        <ele>260.7</ele>
        <time>2020-07-07T08:47:38Z</time>
      </trkpt>
      <trkpt lat="47.03249" lon="5.81341">
        <ele>260.2</ele>
        <time>2020-07-07T08:47:40Z</time>
      </trkpt>
      <trkpt lat="47.03254" lon="5.8134">
        <ele>259.5</ele>
        <time>2020-07-07T08:47:43Z</time>
      </trkpt>
      <trkpt lat="47.03259" lon="5.81342">
        <ele>257.7</ele>
        <time>2020-07-07T08:47:51Z</time>
      </trkpt>
      <trkpt lat="47.03263" lon="5.81344">
        <ele>257.2</ele>
        <time>2020-07-07T08:47:54Z</time>
      </trkpt>
      <trkpt lat="47.03269" lon="5.81344">
        <ele>256.3</ele>
        <time>2020-07-07T08:48:02Z</time>
      </trkpt>
      <trkpt lat="47.03275" lon="5.81345">
        <ele>255.8</ele>
        <time>2020-07-07T08:48:10Z</time>
      </trkpt>
      <trkpt lat="47.03279" lon="5.81348">
        <ele>255.5</ele>
        <time>2020-07-07T08:48:23Z</time>
      </trkpt>
      <trkpt lat="47.03284" lon="5.8135">
        <ele>255.8</ele>
        <time>2020-07-07T08:48:33Z</time>
      </trkpt>
      <trkpt lat="47.0329" lon="5.8135">
        <ele>255.9</ele>
        <time>2020-07-07T08:48:35Z</time>
      </trkpt>
      <trkpt lat="47.03294" lon="5.81352">
        <ele>256.1</ele>
        <time>2020-07-07T08:48:37Z</time>
      </trkpt>
      <trkpt lat="47.03299" lon="5.81354">
        <ele>256.2</ele>
        <time>2020-07-07T08:48:40Z</time>
      </trkpt>
      <trkpt lat="47.03305" lon="5.81355">
        <ele>256.7</ele>
        <time>2020-07-07T08:48:48Z</time>
      </trkpt>
      <trkpt lat="47.0331" lon="5.81354">
        <ele>256.9</ele>
        <time>2020-07-07T08:48:51Z</time>
      </trkpt>
      <trkpt lat="47.03317" lon="5.81353">
        <ele>257.2</ele>
        <time>2020-07-07T08:48:54Z</time>
      </trkpt>
      <trkpt lat="47.03324" lon="5.81355">
        <ele>257.4</ele>
        <time>2020-07-07T08:48:56Z</time>
      </trkpt>
      <trkpt lat="47.03329" lon="5.81354">
        <ele>257.5</ele>
        <time>2020-07-07T08:48:58Z</time>
      </trkpt>
      <trkpt lat="47.03336" lon="5.81354">
        <ele>258</ele>
        <time>2020-07-07T08:49:03Z</time>
      </trkpt>
      <trkpt lat="47.03341" lon="5.81355">
        <ele>258.6</ele>
        <time>2020-07-07T08:49:08Z</time>
      </trkpt>
      <trkpt lat="47.03344" lon="5.8136">
        <ele>259.6</ele>
        <time>2020-07-07T08:49:16Z</time>
      </trkpt>
      <trkpt lat="47.03349" lon="5.81362">
        <ele>260.5</ele>
        <time>2020-07-07T08:49:22Z</time>
      </trkpt>
      <trkpt lat="47.03353" lon="5.81364">
        <ele>262.5</ele>
        <time>2020-07-07T08:49:35Z</time>
      </trkpt>
      <trkpt lat="47.03364" lon="5.81362">
        <ele>260.1</ele>
        <time>2020-07-07T08:50:32Z</time>
      </trkpt>
      <trkpt lat="47.0337" lon="5.8136">
        <ele>260.3</ele>
        <time>2020-07-07T08:50:34Z</time>
      </trkpt>
      <trkpt lat="47.03375" lon="5.81362">
        <ele>260.7</ele>
        <time>2020-07-07T08:50:37Z</time>
      </trkpt>
      <trkpt lat="47.0338" lon="5.81362">
        <ele>261.2</ele>
        <time>2020-07-07T08:50:41Z</time>
      </trkpt>
      <trkpt lat="47.03384" lon="5.81364">
        <ele>261.5</ele>
        <time>2020-07-07T08:50:45Z</time>
      </trkpt>
      <trkpt lat="47.03389" lon="5.81367">
        <ele>261.5</ele>
        <time>2020-07-07T08:50:49Z</time>
      </trkpt>
      <trkpt lat="47.03392" lon="5.81372">
        <ele>261.6</ele>
        <time>2020-07-07T08:50:57Z</time>
      </trkpt>
      <trkpt lat="47.03396" lon="5.81377">
        <ele>261.8</ele>
        <time>2020-07-07T08:51:02Z</time>
      </trkpt>
      <trkpt lat="47.034" lon="5.81381">
        <ele>261.7</ele>
        <time>2020-07-07T08:51:08Z</time>
      </trkpt>
      <trkpt lat="47.03404" lon="5.81384">
        <ele>261.3</ele>
        <time>2020-07-07T08:51:14Z</time>
      </trkpt>
      <trkpt lat="47.03413" lon="5.81393">
        <ele>257.9</ele>
        <time>2020-07-07T08:51:51Z</time>
      </trkpt>
      <trkpt lat="47.03416" lon="5.81398">
        <ele>257.7</ele>
        <time>2020-07-07T08:51:53Z</time>
      </trkpt>
      <trkpt lat="47.03421" lon="5.81404">
        <ele>257.5</ele>
        <time>2020-07-07T08:51:57Z</time>
      </trkpt>
      <trkpt lat="47.03425" lon="5.81406">
        <ele>257.1</ele>
        <time>2020-07-07T08:52:01Z</time>
      </trkpt>
      <trkpt lat="47.0343" lon="5.81406">
        <ele>256.7</ele>
        <time>2020-07-07T08:52:05Z</time>
      </trkpt>
      <trkpt lat="47.03436" lon="5.81408">
        <ele>256.3</ele>
        <time>2020-07-07T08:52:08Z</time>
      </trkpt>
      <trkpt lat="47.03441" lon="5.81409">
        <ele>255.9</ele>
        <time>2020-07-07T08:52:12Z</time>
      </trkpt>
      <trkpt lat="47.03448" lon="5.8141">
        <ele>255.6</ele>
        <time>2020-07-07T08:52:16Z</time>
      </trkpt>
      <trkpt lat="47.03453" lon="5.81411">
        <ele>255.2</ele>
        <time>2020-07-07T08:52:20Z</time>
      </trkpt>
      <trkpt lat="47.03457" lon="5.81413">
        <ele>254.6</ele>
        <time>2020-07-07T08:52:26Z</time>
      </trkpt>
      <trkpt lat="47.03462" lon="5.81415">
        <ele>253.7</ele>
        <time>2020-07-07T08:52:32Z</time>
      </trkpt>
      <trkpt lat="47.03467" lon="5.81419">
        <ele>252.9</ele>
        <time>2020-07-07T08:52:37Z</time>
      </trkpt>
      <trkpt lat="47.03472" lon="5.8142">
        <ele>252.5</ele>
        <time>2020-07-07T08:52:40Z</time>
      </trkpt>
      <trkpt lat="47.03477" lon="5.8142">
        <ele>252.2</ele>
        <time>2020-07-07T08:52:43Z</time>
      </trkpt>
      <trkpt lat="47.03483" lon="5.81418">
        <ele>251.7</ele>
        <time>2020-07-07T08:52:47Z</time>
      </trkpt>
      <trkpt lat="47.03487" lon="5.81417">
        <ele>250.9</ele>
        <time>2020-07-07T08:52:53Z</time>
      </trkpt>
      <trkpt lat="47.03492" lon="5.81415">
        <ele>249.7</ele>
        <time>2020-07-07T08:53:00Z</time>
      </trkpt>
      <trkpt lat="47.03497" lon="5.81413">
        <ele>248.7</ele>
        <time>2020-07-07T08:53:07Z</time>
      </trkpt>
      <trkpt lat="47.03507" lon="5.81426">
        <ele>250.1</ele>
        <time>2020-07-07T08:53:39Z</time>
      </trkpt>
      <trkpt lat="47.03512" lon="5.81428">
        <ele>251.6</ele>
        <time>2020-07-07T08:53:45Z</time>
      </trkpt>
      <trkpt lat="47.03528" lon="5.81425">
        <ele>240.3</ele>
        <time>2020-07-07T08:54:49Z</time>
      </trkpt>
      <trkpt lat="47.03533" lon="5.81428">
        <ele>240</ele>
        <time>2020-07-07T08:54:53Z</time>
      </trkpt>
      <trkpt lat="47.03542" lon="5.8143">
        <ele>239.8</ele>
        <time>2020-07-07T08:54:59Z</time>
      </trkpt>
      <trkpt lat="47.03549" lon="5.81429">
        <ele>239.9</ele>
        <time>2020-07-07T08:55:01Z</time>
      </trkpt>
      <trkpt lat="47.03555" lon="5.81429">
        <ele>239.9</ele>
        <time>2020-07-07T08:55:04Z</time>
      </trkpt>
      <trkpt lat="47.0356" lon="5.81428">
        <ele>240</ele>
        <time>2020-07-07T08:55:07Z</time>
      </trkpt>
      <trkpt lat="47.03564" lon="5.81428">
        <ele>240.5</ele>
        <time>2020-07-07T08:55:12Z</time>
      </trkpt>
      <trkpt lat="47.03571" lon="5.81429">
        <ele>241.6</ele>
        <time>2020-07-07T08:55:20Z</time>
      </trkpt>
      <trkpt lat="47.03576" lon="5.81428">
        <ele>241.9</ele>
        <time>2020-07-07T08:55:24Z</time>
      </trkpt>
      <trkpt lat="47.0358" lon="5.8143">
        <ele>242.2</ele>
        <time>2020-07-07T08:55:27Z</time>
      </trkpt>
      <trkpt lat="47.03585" lon="5.81433">
        <ele>242.7</ele>
        <time>2020-07-07T08:55:32Z</time>
      </trkpt>
      <trkpt lat="47.0359" lon="5.81435">
        <ele>243.7</ele>
        <time>2020-07-07T08:55:39Z</time>
      </trkpt>
      <trkpt lat="47.03595" lon="5.81438">
        <ele>244.6</ele>
        <time>2020-07-07T08:55:46Z</time>
      </trkpt>
      <trkpt lat="47.0361" lon="5.81442">
        <ele>245.6</ele>
        <time>2020-07-07T08:55:56Z</time>
      </trkpt>
      <trkpt lat="47.03614" lon="5.81445">
        <ele>245.6</ele>
        <time>2020-07-07T08:56:01Z</time>
      </trkpt>
      <trkpt lat="47.03619" lon="5.8145">
        <ele>245.8</ele>
        <time>2020-07-07T08:56:07Z</time>
      </trkpt>
      <trkpt lat="47.03624" lon="5.8145">
        <ele>246.1</ele>
        <time>2020-07-07T08:56:11Z</time>
      </trkpt>
      <trkpt lat="47.03629" lon="5.8145">
        <ele>246.4</ele>
        <time>2020-07-07T08:56:15Z</time>
      </trkpt>
      <trkpt lat="47.03633" lon="5.81452">
        <ele>246.6</ele>
        <time>2020-07-07T08:56:20Z</time>
      </trkpt>
      <trkpt lat="47.03638" lon="5.81455">
        <ele>246.9</ele>
        <time>2020-07-07T08:56:28Z</time>
      </trkpt>
      <trkpt lat="47.03642" lon="5.81458">
        <ele>247.1</ele>
        <time>2020-07-07T08:56:34Z</time>
      </trkpt>
      <trkpt lat="47.03649" lon="5.8146">
        <ele>247.3</ele>
        <time>2020-07-07T08:56:39Z</time>
      </trkpt>
      <trkpt lat="47.03661" lon="5.81465">
        <ele>247.3</ele>
        <time>2020-07-07T08:56:49Z</time>
      </trkpt>
      <trkpt lat="47.03666" lon="5.81467">
        <ele>247.3</ele>
        <time>2020-07-07T08:56:58Z</time>
      </trkpt>
      <trkpt lat="47.03671" lon="5.8147">
        <ele>247.7</ele>
        <time>2020-07-07T08:57:08Z</time>
      </trkpt>
      <trkpt lat="47.03674" lon="5.81476">
        <ele>247.9</ele>
        <time>2020-07-07T08:57:11Z</time>
      </trkpt>
      <trkpt lat="47.03681" lon="5.81478">
        <ele>248.4</ele>
        <time>2020-07-07T08:57:18Z</time>
      </trkpt>
      <trkpt lat="47.0371" lon="5.81482">
        <ele>251.1</ele>
        <time>2020-07-07T08:57:38Z</time>
      </trkpt>
      <trkpt lat="47.03716" lon="5.81482">
        <ele>251.2</ele>
        <time>2020-07-07T08:57:40Z</time>
      </trkpt>
      <trkpt lat="47.03731" lon="5.81479">
        <ele>251.6</ele>
        <time>2020-07-07T08:57:49Z</time>
      </trkpt>
      <trkpt lat="47.03736" lon="5.81478">
        <ele>251.5</ele>
        <time>2020-07-07T08:57:54Z</time>
      </trkpt>
      <trkpt lat="47.0374" lon="5.81478">
        <ele>251.4</ele>
        <time>2020-07-07T08:58:02Z</time>
      </trkpt>
      <trkpt lat="47.03745" lon="5.81478">
        <ele>251.2</ele>
        <time>2020-07-07T08:58:09Z</time>
      </trkpt>
      <trkpt lat="47.0375" lon="5.81479">
        <ele>250.6</ele>
        <time>2020-07-07T08:58:16Z</time>
      </trkpt>
      <trkpt lat="47.03755" lon="5.8148">
        <ele>249.8</ele>
        <time>2020-07-07T08:58:21Z</time>
      </trkpt>
      <trkpt lat="47.03762" lon="5.8148">
        <ele>249.2</ele>
        <time>2020-07-07T08:58:25Z</time>
      </trkpt>
      <trkpt lat="47.03767" lon="5.81481">
        <ele>248.6</ele>
        <time>2020-07-07T08:58:28Z</time>
      </trkpt>
      <trkpt lat="47.03772" lon="5.81484">
        <ele>247.7</ele>
        <time>2020-07-07T08:58:34Z</time>
      </trkpt>
      <trkpt lat="47.03778" lon="5.81483">
        <ele>247.2</ele>
        <time>2020-07-07T08:58:38Z</time>
      </trkpt>
      <trkpt lat="47.03783" lon="5.81484">
        <ele>246.9</ele>
        <time>2020-07-07T08:58:42Z</time>
      </trkpt>
      <trkpt lat="47.03788" lon="5.81484">
        <ele>246.6</ele>
        <time>2020-07-07T08:58:48Z</time>
      </trkpt>
      <trkpt lat="47.03793" lon="5.81485">
        <ele>246.5</ele>
        <time>2020-07-07T08:58:52Z</time>
      </trkpt>
      <trkpt lat="47.03797" lon="5.81486">
        <ele>246.6</ele>
        <time>2020-07-07T08:58:57Z</time>
      </trkpt>
      <trkpt lat="47.03801" lon="5.81488">
        <ele>246.6</ele>
        <time>2020-07-07T08:59:02Z</time>
      </trkpt>
      <trkpt lat="47.03806" lon="5.8149">
        <ele>246.7</ele>
        <time>2020-07-07T08:59:06Z</time>
      </trkpt>
      <trkpt lat="47.03812" lon="5.8149">
        <ele>246.9</ele>
        <time>2020-07-07T08:59:11Z</time>
      </trkpt>
      <trkpt lat="47.03817" lon="5.81492">
        <ele>247</ele>
        <time>2020-07-07T08:59:16Z</time>
      </trkpt>
      <trkpt lat="47.03822" lon="5.81494">
        <ele>247</ele>
        <time>2020-07-07T08:59:21Z</time>
      </trkpt>
      <trkpt lat="47.03827" lon="5.81496">
        <ele>246.8</ele>
        <time>2020-07-07T08:59:28Z</time>
      </trkpt>
      <trkpt lat="47.03832" lon="5.81497">
        <ele>246.6</ele>
        <time>2020-07-07T08:59:34Z</time>
      </trkpt>
      <trkpt lat="47.03837" lon="5.81497">
        <ele>246.4</ele>
        <time>2020-07-07T08:59:36Z</time>
      </trkpt>
      <trkpt lat="47.03842" lon="5.81498">
        <ele>246.1</ele>
        <time>2020-07-07T08:59:39Z</time>
      </trkpt>
      <trkpt lat="47.03847" lon="5.81497">
        <ele>245.8</ele>
        <time>2020-07-07T08:59:43Z</time>
      </trkpt>
      <trkpt lat="47.03852" lon="5.81496">
        <ele>245.8</ele>
        <time>2020-07-07T08:59:48Z</time>
      </trkpt>
      <trkpt lat="47.03857" lon="5.81496">
        <ele>246.2</ele>
        <time>2020-07-07T08:59:56Z</time>
      </trkpt>
      <trkpt lat="47.03863" lon="5.81498">
        <ele>246.3</ele>
        <time>2020-07-07T09:00:01Z</time>
      </trkpt>
      <trkpt lat="47.03868" lon="5.81499">
        <ele>246.4</ele>
        <time>2020-07-07T09:00:04Z</time>
      </trkpt>
      <trkpt lat="47.03873" lon="5.81498">
        <ele>246.4</ele>
        <time>2020-07-07T09:00:10Z</time>
      </trkpt>
      <trkpt lat="47.03879" lon="5.81498">
        <ele>246.6</ele>
        <time>2020-07-07T09:00:15Z</time>
      </trkpt>
      <trkpt lat="47.03884" lon="5.81496">
        <ele>246.7</ele>
        <time>2020-07-07T09:00:20Z</time>
      </trkpt>
      <trkpt lat="47.03889" lon="5.81493">
        <ele>246.6</ele>
        <time>2020-07-07T09:00:24Z</time>
      </trkpt>
      <trkpt lat="47.03894" lon="5.81491">
        <ele>246.5</ele>
        <time>2020-07-07T09:00:29Z</time>
      </trkpt>
      <trkpt lat="47.03899" lon="5.8149">
        <ele>246.1</ele>
        <time>2020-07-07T09:00:36Z</time>
      </trkpt>
      <trkpt lat="47.03904" lon="5.81487">
        <ele>245.7</ele>
        <time>2020-07-07T09:00:40Z</time>
      </trkpt>
      <trkpt lat="47.03909" lon="5.81485">
        <ele>245.3</ele>
        <time>2020-07-07T09:00:44Z</time>
      </trkpt>
      <trkpt lat="47.03914" lon="5.81483">
        <ele>244.9</ele>
        <time>2020-07-07T09:00:48Z</time>
      </trkpt>
      <trkpt lat="47.03919" lon="5.81482">
        <ele>244.7</ele>
        <time>2020-07-07T09:00:52Z</time>
      </trkpt>
      <trkpt lat="47.03924" lon="5.81481">
        <ele>244.3</ele>
        <time>2020-07-07T09:00:56Z</time>
      </trkpt>
      <trkpt lat="47.03929" lon="5.81479">
        <ele>244</ele>
        <time>2020-07-07T09:01:01Z</time>
      </trkpt>
      <trkpt lat="47.03935" lon="5.81476">
        <ele>244.3</ele>
        <time>2020-07-07T09:01:08Z</time>
      </trkpt>
      <trkpt lat="47.03939" lon="5.81473">
        <ele>244.7</ele>
        <time>2020-07-07T09:01:13Z</time>
      </trkpt>
      <trkpt lat="47.03944" lon="5.81471">
        <ele>245</ele>
        <time>2020-07-07T09:01:18Z</time>
      </trkpt>
      <trkpt lat="47.03948" lon="5.81468">
        <ele>245.2</ele>
        <time>2020-07-07T09:01:23Z</time>
      </trkpt>
      <trkpt lat="47.03952" lon="5.81464">
        <ele>245.3</ele>
        <time>2020-07-07T09:01:30Z</time>
      </trkpt>
      <trkpt lat="47.03956" lon="5.81459">
        <ele>245.3</ele>
        <time>2020-07-07T09:01:35Z</time>
      </trkpt>
      <trkpt lat="47.0396" lon="5.81454">
        <ele>245.2</ele>
        <time>2020-07-07T09:01:39Z</time>
      </trkpt>
      <trkpt lat="47.03964" lon="5.81449">
        <ele>245</ele>
        <time>2020-07-07T09:01:44Z</time>
      </trkpt>
      <trkpt lat="47.03968" lon="5.81444">
        <ele>244.7</ele>
        <time>2020-07-07T09:01:48Z</time>
      </trkpt>
      <trkpt lat="47.03972" lon="5.8144">
        <ele>244.5</ele>
        <time>2020-07-07T09:01:52Z</time>
      </trkpt>
      <trkpt lat="47.03976" lon="5.81436">
        <ele>244.3</ele>
        <time>2020-07-07T09:01:57Z</time>
      </trkpt>
      <trkpt lat="47.03978" lon="5.81431">
        <ele>245.3</ele>
        <time>2020-07-07T09:02:41Z</time>
      </trkpt>
      <trkpt lat="47.03974" lon="5.81431">
        <ele>244.7</ele>
        <time>2020-07-07T09:02:57Z</time>
      </trkpt>
      <trkpt lat="47.03971" lon="5.81425">
        <ele>242.8</ele>
        <time>2020-07-07T09:04:15Z</time>
      </trkpt>
      <trkpt lat="47.03969" lon="5.81416">
        <ele>242.7</ele>
        <time>2020-07-07T09:04:22Z</time>
      </trkpt>
      <trkpt lat="47.03969" lon="5.81407">
        <ele>242.7</ele>
        <time>2020-07-07T09:04:29Z</time>
      </trkpt>
      <trkpt lat="47.03971" lon="5.81399">
        <ele>242.8</ele>
        <time>2020-07-07T09:04:32Z</time>
      </trkpt>
      <trkpt lat="47.03971" lon="5.81392">
        <ele>243.1</ele>
        <time>2020-07-07T09:04:37Z</time>
      </trkpt>
      <trkpt lat="47.03963" lon="5.81377">
        <ele>244</ele>
        <time>2020-07-07T09:04:50Z</time>
      </trkpt>
      <trkpt lat="47.03963" lon="5.81369">
        <ele>244</ele>
        <time>2020-07-07T09:04:54Z</time>
      </trkpt>
      <trkpt lat="47.03962" lon="5.81362">
        <ele>244</ele>
        <time>2020-07-07T09:04:58Z</time>
      </trkpt>
      <trkpt lat="47.03962" lon="5.81348">
        <ele>247.5</ele>
        <time>2020-07-07T09:05:38Z</time>
      </trkpt>
      <trkpt lat="47.03959" lon="5.81341">
        <ele>247.6</ele>
        <time>2020-07-07T09:05:46Z</time>
      </trkpt>
      <trkpt lat="47.03956" lon="5.81335">
        <ele>247.8</ele>
        <time>2020-07-07T09:05:50Z</time>
      </trkpt>
      <trkpt lat="47.03952" lon="5.8133">
        <ele>248.1</ele>
        <time>2020-07-07T09:05:54Z</time>
      </trkpt>
      <trkpt lat="47.0395" lon="5.81324">
        <ele>249.1</ele>
        <time>2020-07-07T09:05:59Z</time>
      </trkpt>
      <trkpt lat="47.0395" lon="5.81316">
        <ele>250.5</ele>
        <time>2020-07-07T09:06:04Z</time>
      </trkpt>
      <trkpt lat="47.03949" lon="5.81308">
        <ele>251.9</ele>
        <time>2020-07-07T09:06:08Z</time>
      </trkpt>
      <trkpt lat="47.0395" lon="5.81301">
        <ele>253.7</ele>
        <time>2020-07-07T09:06:13Z</time>
      </trkpt>
      <trkpt lat="47.03949" lon="5.81294">
        <ele>255.3</ele>
        <time>2020-07-07T09:06:18Z</time>
      </trkpt>
      <trkpt lat="47.03948" lon="5.81287">
        <ele>256.6</ele>
        <time>2020-07-07T09:06:22Z</time>
      </trkpt>
      <trkpt lat="47.03947" lon="5.8128">
        <ele>258</ele>
        <time>2020-07-07T09:06:26Z</time>
      </trkpt>
      <trkpt lat="47.03947" lon="5.81272">
        <ele>259.9</ele>
        <time>2020-07-07T09:06:31Z</time>
      </trkpt>
      <trkpt lat="47.03947" lon="5.81265">
        <ele>261.7</ele>
        <time>2020-07-07T09:06:36Z</time>
      </trkpt>
      <trkpt lat="47.03949" lon="5.81259">
        <ele>263.8</ele>
        <time>2020-07-07T09:06:47Z</time>
      </trkpt>
      <trkpt lat="47.03949" lon="5.81252">
        <ele>264.9</ele>
        <time>2020-07-07T09:07:00Z</time>
      </trkpt>
      <trkpt lat="47.0395" lon="5.81244">
        <ele>265.5</ele>
        <time>2020-07-07T09:07:05Z</time>
      </trkpt>
      <trkpt lat="47.03949" lon="5.81238">
        <ele>265.9</ele>
        <time>2020-07-07T09:07:09Z</time>
      </trkpt>
      <trkpt lat="47.03947" lon="5.81231">
        <ele>266.5</ele>
        <time>2020-07-07T09:07:13Z</time>
      </trkpt>
      <trkpt lat="47.03946" lon="5.81224">
        <ele>267.1</ele>
        <time>2020-07-07T09:07:16Z</time>
      </trkpt>
      <trkpt lat="47.03945" lon="5.81217">
        <ele>267.7</ele>
        <time>2020-07-07T09:07:19Z</time>
      </trkpt>
      <trkpt lat="47.03943" lon="5.81209">
        <ele>269.3</ele>
        <time>2020-07-07T09:07:24Z</time>
      </trkpt>
      <trkpt lat="47.03941" lon="5.81201">
        <ele>270.3</ele>
        <time>2020-07-07T09:07:28Z</time>
      </trkpt>
      <trkpt lat="47.0394" lon="5.81193">
        <ele>271</ele>
        <time>2020-07-07T09:07:32Z</time>
      </trkpt>
      <trkpt lat="47.03938" lon="5.81187">
        <ele>271.5</ele>
        <time>2020-07-07T09:07:35Z</time>
      </trkpt>
      <trkpt lat="47.03937" lon="5.8118">
        <ele>272.1</ele>
        <time>2020-07-07T09:07:39Z</time>
      </trkpt>
      <trkpt lat="47.03936" lon="5.81173">
        <ele>272.9</ele>
        <time>2020-07-07T09:07:45Z</time>
      </trkpt>
      <trkpt lat="47.03935" lon="5.81165">
        <ele>273.8</ele>
        <time>2020-07-07T09:07:54Z</time>
      </trkpt>
      <trkpt lat="47.03933" lon="5.81159">
        <ele>274.1</ele>
        <time>2020-07-07T09:07:58Z</time>
      </trkpt>
      <trkpt lat="47.03932" lon="5.81152">
        <ele>274.2</ele>
        <time>2020-07-07T09:08:03Z</time>
      </trkpt>
      <trkpt lat="47.03929" lon="5.81145">
        <ele>274.2</ele>
        <time>2020-07-07T09:08:08Z</time>
      </trkpt>
      <trkpt lat="47.03928" lon="5.81138">
        <ele>274.4</ele>
        <time>2020-07-07T09:08:13Z</time>
      </trkpt>
      <trkpt lat="47.03927" lon="5.8113">
        <ele>274.6</ele>
        <time>2020-07-07T09:08:18Z</time>
      </trkpt>
      <trkpt lat="47.03925" lon="5.81124">
        <ele>274.7</ele>
        <time>2020-07-07T09:08:22Z</time>
      </trkpt>
      <trkpt lat="47.03924" lon="5.81116">
        <ele>274.8</ele>
        <time>2020-07-07T09:08:26Z</time>
      </trkpt>
      <trkpt lat="47.03923" lon="5.81109">
        <ele>274.2</ele>
        <time>2020-07-07T09:08:31Z</time>
      </trkpt>
      <trkpt lat="47.03921" lon="5.81102">
        <ele>273.2</ele>
        <time>2020-07-07T09:08:37Z</time>
      </trkpt>
      <trkpt lat="47.0392" lon="5.81095">
        <ele>272.7</ele>
        <time>2020-07-07T09:08:41Z</time>
      </trkpt>
      <trkpt lat="47.03919" lon="5.81089">
        <ele>272.5</ele>
        <time>2020-07-07T09:08:45Z</time>
      </trkpt>
      <trkpt lat="47.03915" lon="5.81076">
        <ele>272.4</ele>
        <time>2020-07-07T09:08:53Z</time>
      </trkpt>
      <trkpt lat="47.03911" lon="5.81071">
        <ele>272.4</ele>
        <time>2020-07-07T09:08:59Z</time>
      </trkpt>
      <trkpt lat="47.03907" lon="5.81066">
        <ele>272.2</ele>
        <time>2020-07-07T09:09:04Z</time>
      </trkpt>
      <trkpt lat="47.03904" lon="5.81061">
        <ele>271.1</ele>
        <time>2020-07-07T09:09:10Z</time>
      </trkpt>
      <trkpt lat="47.03901" lon="5.81056">
        <ele>269.9</ele>
        <time>2020-07-07T09:09:15Z</time>
      </trkpt>
      <trkpt lat="47.03898" lon="5.81049">
        <ele>269.1</ele>
        <time>2020-07-07T09:09:20Z</time>
      </trkpt>
      <trkpt lat="47.03896" lon="5.81043">
        <ele>269</ele>
        <time>2020-07-07T09:09:26Z</time>
      </trkpt>
      <trkpt lat="47.03896" lon="5.81035">
        <ele>270.5</ele>
        <time>2020-07-07T09:09:33Z</time>
      </trkpt>
      <trkpt lat="47.03894" lon="5.81029">
        <ele>272.2</ele>
        <time>2020-07-07T09:09:38Z</time>
      </trkpt>
      <trkpt lat="47.03895" lon="5.81022">
        <ele>269.1</ele>
        <time>2020-07-07T09:10:20Z</time>
      </trkpt>
      <trkpt lat="47.03896" lon="5.81016">
        <ele>268.5</ele>
        <time>2020-07-07T09:10:25Z</time>
      </trkpt>
      <trkpt lat="47.03896" lon="5.81007">
        <ele>268.1</ele>
        <time>2020-07-07T09:10:30Z</time>
      </trkpt>
      <trkpt lat="47.03896" lon="5.81">
        <ele>267.9</ele>
        <time>2020-07-07T09:10:34Z</time>
      </trkpt>
      <trkpt lat="47.03895" lon="5.80994">
        <ele>266.7</ele>
        <time>2020-07-07T09:10:47Z</time>
      </trkpt>
      <trkpt lat="47.03897" lon="5.80987">
        <ele>266.2</ele>
        <time>2020-07-07T09:10:53Z</time>
      </trkpt>
      <trkpt lat="47.03896" lon="5.80979">
        <ele>266.2</ele>
        <time>2020-07-07T09:10:57Z</time>
      </trkpt>
      <trkpt lat="47.03896" lon="5.80971">
        <ele>266.2</ele>
        <time>2020-07-07T09:11:01Z</time>
      </trkpt>
      <trkpt lat="47.03898" lon="5.80964">
        <ele>267.8</ele>
        <time>2020-07-07T09:11:10Z</time>
      </trkpt>
      <trkpt lat="47.03896" lon="5.80955">
        <ele>269.5</ele>
        <time>2020-07-07T09:11:15Z</time>
      </trkpt>
      <trkpt lat="47.03893" lon="5.80948">
        <ele>270.8</ele>
        <time>2020-07-07T09:11:19Z</time>
      </trkpt>
      <trkpt lat="47.0389" lon="5.80943">
        <ele>272.9</ele>
        <time>2020-07-07T09:11:28Z</time>
      </trkpt>
      <trkpt lat="47.03891" lon="5.80954">
        <ele>274.4</ele>
        <time>2020-07-07T09:11:43Z</time>
      </trkpt>
      <trkpt lat="47.03892" lon="5.80962">
        <ele>274.3</ele>
        <time>2020-07-07T09:11:47Z</time>
      </trkpt>
      <trkpt lat="47.03892" lon="5.80969">
        <ele>274.2</ele>
        <time>2020-07-07T09:11:50Z</time>
      </trkpt>
      <trkpt lat="47.03893" lon="5.80977">
        <ele>273.5</ele>
        <time>2020-07-07T09:11:56Z</time>
      </trkpt>
      <trkpt lat="47.03894" lon="5.80984">
        <ele>272.9</ele>
        <time>2020-07-07T09:12:00Z</time>
      </trkpt>
      <trkpt lat="47.03894" lon="5.8099">
        <ele>272</ele>
        <time>2020-07-07T09:12:06Z</time>
      </trkpt>
      <trkpt lat="47.03895" lon="5.80999">
        <ele>271.6</ele>
        <time>2020-07-07T09:12:10Z</time>
      </trkpt>
      <trkpt lat="47.03895" lon="5.81006">
        <ele>271.4</ele>
        <time>2020-07-07T09:12:13Z</time>
      </trkpt>
      <trkpt lat="47.03896" lon="5.81013">
        <ele>271.4</ele>
        <time>2020-07-07T09:12:18Z</time>
      </trkpt>
      <trkpt lat="47.03896" lon="5.8102">
        <ele>271.4</ele>
        <time>2020-07-07T09:12:23Z</time>
      </trkpt>
      <trkpt lat="47.03894" lon="5.81026">
        <ele>271.3</ele>
        <time>2020-07-07T09:12:28Z</time>
      </trkpt>
      <trkpt lat="47.03893" lon="5.81034">
        <ele>271</ele>
        <time>2020-07-07T09:12:33Z</time>
      </trkpt>
      <trkpt lat="47.03889" lon="5.81039">
        <ele>269.1</ele>
        <time>2020-07-07T09:12:45Z</time>
      </trkpt>
      <trkpt lat="47.03885" lon="5.81036">
        <ele>266.7</ele>
        <time>2020-07-07T09:12:56Z</time>
      </trkpt>
      <trkpt lat="47.03881" lon="5.81033">
        <ele>265.1</ele>
        <time>2020-07-07T09:13:03Z</time>
      </trkpt>
      <trkpt lat="47.03876" lon="5.8103">
        <ele>263.8</ele>
        <time>2020-07-07T09:13:08Z</time>
      </trkpt>
      <trkpt lat="47.03872" lon="5.81026">
        <ele>262.4</ele>
        <time>2020-07-07T09:13:14Z</time>
      </trkpt>
      <trkpt lat="47.03869" lon="5.81021">
        <ele>261.7</ele>
        <time>2020-07-07T09:13:19Z</time>
      </trkpt>
      <trkpt lat="47.03866" lon="5.81016">
        <ele>261.1</ele>
        <time>2020-07-07T09:13:24Z</time>
      </trkpt>
      <trkpt lat="47.03862" lon="5.81011">
        <ele>260.3</ele>
        <time>2020-07-07T09:13:30Z</time>
      </trkpt>
      <trkpt lat="47.03858" lon="5.81006">
        <ele>259.5</ele>
        <time>2020-07-07T09:13:37Z</time>
      </trkpt>
      <trkpt lat="47.03854" lon="5.81002">
        <ele>258.9</ele>
        <time>2020-07-07T09:13:45Z</time>
      </trkpt>
      <trkpt lat="47.0385" lon="5.81001">
        <ele>258.6</ele>
        <time>2020-07-07T09:13:49Z</time>
      </trkpt>
      <trkpt lat="47.03842" lon="5.80997">
        <ele>258.4</ele>
        <time>2020-07-07T09:14:03Z</time>
      </trkpt>
      <trkpt lat="47.03837" lon="5.80999">
        <ele>258.7</ele>
        <time>2020-07-07T09:14:06Z</time>
      </trkpt>
      <trkpt lat="47.03833" lon="5.80995">
        <ele>259.7</ele>
        <time>2020-07-07T09:14:13Z</time>
      </trkpt>
      <trkpt lat="47.03829" lon="5.80992">
        <ele>261.4</ele>
        <time>2020-07-07T09:14:24Z</time>
      </trkpt>
      <trkpt lat="47.03825" lon="5.80986">
        <ele>265</ele>
        <time>2020-07-07T09:14:59Z</time>
      </trkpt>
      <trkpt lat="47.03821" lon="5.80982">
        <ele>266.1</ele>
        <time>2020-07-07T09:15:06Z</time>
      </trkpt>
      <trkpt lat="47.03817" lon="5.80979">
        <ele>267.3</ele>
        <time>2020-07-07T09:15:15Z</time>
      </trkpt>
      <trkpt lat="47.03812" lon="5.80977">
        <ele>268.6</ele>
        <time>2020-07-07T09:15:23Z</time>
      </trkpt>
      <trkpt lat="47.03806" lon="5.80977">
        <ele>269.6</ele>
        <time>2020-07-07T09:15:29Z</time>
      </trkpt>
      <trkpt lat="47.03802" lon="5.80978">
        <ele>270.6</ele>
        <time>2020-07-07T09:15:36Z</time>
      </trkpt>
      <trkpt lat="47.03797" lon="5.80975">
        <ele>272.9</ele>
        <time>2020-07-07T09:15:51Z</time>
      </trkpt>
      <trkpt lat="47.0379" lon="5.80975">
        <ele>274.4</ele>
        <time>2020-07-07T09:15:58Z</time>
      </trkpt>
      <trkpt lat="47.03785" lon="5.80974">
        <ele>275.2</ele>
        <time>2020-07-07T09:16:02Z</time>
      </trkpt>
      <trkpt lat="47.0378" lon="5.80971">
        <ele>275.9</ele>
        <time>2020-07-07T09:16:06Z</time>
      </trkpt>
      <trkpt lat="47.03776" lon="5.80968">
        <ele>276.8</ele>
        <time>2020-07-07T09:16:12Z</time>
      </trkpt>
      <trkpt lat="47.03771" lon="5.80969">
        <ele>277.7</ele>
        <time>2020-07-07T09:16:18Z</time>
      </trkpt>
      <trkpt lat="47.03766" lon="5.80966">
        <ele>278.7</ele>
        <time>2020-07-07T09:16:27Z</time>
      </trkpt>
      <trkpt lat="47.03762" lon="5.80961">
        <ele>279.4</ele>
        <time>2020-07-07T09:16:32Z</time>
      </trkpt>
      <trkpt lat="47.03757" lon="5.80957">
        <ele>280.3</ele>
        <time>2020-07-07T09:16:40Z</time>
      </trkpt>
      <trkpt lat="47.03754" lon="5.80953">
        <ele>280.5</ele>
        <time>2020-07-07T09:16:43Z</time>
      </trkpt>
      <trkpt lat="47.03749" lon="5.8095">
        <ele>281</ele>
        <time>2020-07-07T09:16:50Z</time>
      </trkpt>
      <trkpt lat="47.03744" lon="5.80947">
        <ele>281.1</ele>
        <time>2020-07-07T09:16:53Z</time>
      </trkpt>
      <trkpt lat="47.0374" lon="5.80945">
        <ele>281.6</ele>
        <time>2020-07-07T09:16:58Z</time>
      </trkpt>
      <trkpt lat="47.03734" lon="5.80941">
        <ele>282.5</ele>
        <time>2020-07-07T09:17:06Z</time>
      </trkpt>
      <trkpt lat="47.03729" lon="5.80939">
        <ele>283.1</ele>
        <time>2020-07-07T09:17:11Z</time>
      </trkpt>
      <trkpt lat="47.03725" lon="5.80936">
        <ele>284.2</ele>
        <time>2020-07-07T09:17:18Z</time>
      </trkpt>
      <trkpt lat="47.03721" lon="5.80933">
        <ele>285.5</ele>
        <time>2020-07-07T09:17:25Z</time>
      </trkpt>
      <trkpt lat="47.03716" lon="5.80929">
        <ele>286.6</ele>
        <time>2020-07-07T09:17:30Z</time>
      </trkpt>
      <trkpt lat="47.03712" lon="5.80924">
        <ele>287.3</ele>
        <time>2020-07-07T09:17:34Z</time>
      </trkpt>
      <trkpt lat="47.03704" lon="5.80912">
        <ele>289.9</ele>
        <time>2020-07-07T09:17:49Z</time>
      </trkpt>
      <trkpt lat="47.03701" lon="5.80906">
        <ele>290.8</ele>
        <time>2020-07-07T09:17:56Z</time>
      </trkpt>
      <trkpt lat="47.03699" lon="5.80899">
        <ele>291.7</ele>
        <time>2020-07-07T09:18:04Z</time>
      </trkpt>
      <trkpt lat="47.03696" lon="5.80892">
        <ele>292.3</ele>
        <time>2020-07-07T09:18:09Z</time>
      </trkpt>
      <trkpt lat="47.03691" lon="5.80889">
        <ele>292.8</ele>
        <time>2020-07-07T09:18:12Z</time>
      </trkpt>
      <trkpt lat="47.03687" lon="5.80885">
        <ele>294.2</ele>
        <time>2020-07-07T09:18:20Z</time>
      </trkpt>
      <trkpt lat="47.03683" lon="5.80882">
        <ele>295.3</ele>
        <time>2020-07-07T09:18:26Z</time>
      </trkpt>
      <trkpt lat="47.03678" lon="5.80881">
        <ele>296.2</ele>
        <time>2020-07-07T09:18:34Z</time>
      </trkpt>
      <trkpt lat="47.03674" lon="5.80878">
        <ele>296.8</ele>
        <time>2020-07-07T09:18:45Z</time>
      </trkpt>
      <trkpt lat="47.03667" lon="5.80881">
        <ele>294.5</ele>
        <time>2020-07-07T09:20:29Z</time>
      </trkpt>
      <trkpt lat="47.03662" lon="5.80881">
        <ele>294.5</ele>
        <time>2020-07-07T09:20:33Z</time>
      </trkpt>
      <trkpt lat="47.03658" lon="5.80875">
        <ele>294.5</ele>
        <time>2020-07-07T09:20:37Z</time>
      </trkpt>
      <trkpt lat="47.0365" lon="5.80867">
        <ele>294.7</ele>
        <time>2020-07-07T09:21:11Z</time>
      </trkpt>
      <trkpt lat="47.03648" lon="5.8086">
        <ele>294.7</ele>
        <time>2020-07-07T09:21:14Z</time>
      </trkpt>
      <trkpt lat="47.03645" lon="5.80851">
        <ele>294.8</ele>
        <time>2020-07-07T09:21:17Z</time>
      </trkpt>
      <trkpt lat="47.03635" lon="5.80831">
        <ele>295.9</ele>
        <time>2020-07-07T09:21:38Z</time>
      </trkpt>
      <trkpt lat="47.03631" lon="5.80826">
        <ele>296.8</ele>
        <time>2020-07-07T09:21:44Z</time>
      </trkpt>
      <trkpt lat="47.03627" lon="5.80824">
        <ele>297.4</ele>
        <time>2020-07-07T09:21:49Z</time>
      </trkpt>
      <trkpt lat="47.03622" lon="5.80822">
        <ele>297.9</ele>
        <time>2020-07-07T09:21:53Z</time>
      </trkpt>
      <trkpt lat="47.03617" lon="5.8082">
        <ele>298.5</ele>
        <time>2020-07-07T09:21:59Z</time>
      </trkpt>
      <trkpt lat="47.03612" lon="5.80817">
        <ele>298.9</ele>
        <time>2020-07-07T09:22:06Z</time>
      </trkpt>
      <trkpt lat="47.03608" lon="5.80812">
        <ele>298.9</ele>
        <time>2020-07-07T09:22:11Z</time>
      </trkpt>
      <trkpt lat="47.03602" lon="5.80813">
        <ele>300</ele>
        <time>2020-07-07T09:22:31Z</time>
      </trkpt>
      <trkpt lat="47.03597" lon="5.80806">
        <ele>303.9</ele>
        <time>2020-07-07T09:24:44Z</time>
      </trkpt>
      <trkpt lat="47.03594" lon="5.80801">
        <ele>303.6</ele>
        <time>2020-07-07T09:24:52Z</time>
      </trkpt>
      <trkpt lat="47.03589" lon="5.80798">
        <ele>303</ele>
        <time>2020-07-07T09:24:58Z</time>
      </trkpt>
      <trkpt lat="47.03585" lon="5.80794">
        <ele>302.1</ele>
        <time>2020-07-07T09:25:06Z</time>
      </trkpt>
      <trkpt lat="47.0358" lon="5.8079">
        <ele>301.6</ele>
        <time>2020-07-07T09:25:10Z</time>
      </trkpt>
      <trkpt lat="47.03575" lon="5.80786">
        <ele>301.2</ele>
        <time>2020-07-07T09:25:14Z</time>
      </trkpt>
      <trkpt lat="47.03572" lon="5.80781">
        <ele>300.8</ele>
        <time>2020-07-07T09:25:19Z</time>
      </trkpt>
      <trkpt lat="47.03568" lon="5.80777">
        <ele>300.3</ele>
        <time>2020-07-07T09:25:25Z</time>
      </trkpt>
      <trkpt lat="47.03564" lon="5.80772">
        <ele>299.9</ele>
        <time>2020-07-07T09:25:31Z</time>
      </trkpt>
      <trkpt lat="47.0356" lon="5.80768">
        <ele>299.8</ele>
        <time>2020-07-07T09:25:36Z</time>
      </trkpt>
      <trkpt lat="47.03557" lon="5.80767">
        <ele>300</ele>
        <time>2020-07-07T09:26:24Z</time>
      </trkpt>
      <trkpt lat="47.03552" lon="5.80761">
        <ele>300.1</ele>
        <time>2020-07-07T09:26:28Z</time>
      </trkpt>
      <trkpt lat="47.03548" lon="5.80757">
        <ele>300.2</ele>
        <time>2020-07-07T09:26:32Z</time>
      </trkpt>
      <trkpt lat="47.03544" lon="5.80752">
        <ele>300</ele>
        <time>2020-07-07T09:26:37Z</time>
      </trkpt>
      <trkpt lat="47.0354" lon="5.80747">
        <ele>299</ele>
        <time>2020-07-07T09:26:44Z</time>
      </trkpt>
      <trkpt lat="47.03537" lon="5.80742">
        <ele>298</ele>
        <time>2020-07-07T09:26:50Z</time>
      </trkpt>
      <trkpt lat="47.03533" lon="5.80738">
        <ele>296.9</ele>
        <time>2020-07-07T09:26:56Z</time>
      </trkpt>
      <trkpt lat="47.03529" lon="5.80733">
        <ele>296.3</ele>
        <time>2020-07-07T09:27:02Z</time>
      </trkpt>
      <trkpt lat="47.03524" lon="5.80732">
        <ele>295.6</ele>
        <time>2020-07-07T09:27:09Z</time>
      </trkpt>
      <trkpt lat="47.03519" lon="5.80727">
        <ele>294.8</ele>
        <time>2020-07-07T09:27:14Z</time>
      </trkpt>
      <trkpt lat="47.03516" lon="5.80722">
        <ele>293.7</ele>
        <time>2020-07-07T09:27:20Z</time>
      </trkpt>
      <trkpt lat="47.03511" lon="5.80717">
        <ele>292.7</ele>
        <time>2020-07-07T09:27:25Z</time>
      </trkpt>
      <trkpt lat="47.03507" lon="5.80712">
        <ele>291.8</ele>
        <time>2020-07-07T09:27:30Z</time>
      </trkpt>
      <trkpt lat="47.03504" lon="5.80707">
        <ele>291</ele>
        <time>2020-07-07T09:27:35Z</time>
      </trkpt>
      <trkpt lat="47.03501" lon="5.80701">
        <ele>290.5</ele>
        <time>2020-07-07T09:27:40Z</time>
      </trkpt>
      <trkpt lat="47.03497" lon="5.80697">
        <ele>289.9</ele>
        <time>2020-07-07T09:27:47Z</time>
      </trkpt>
      <trkpt lat="47.03492" lon="5.80695">
        <ele>289.2</ele>
        <time>2020-07-07T09:27:54Z</time>
      </trkpt>
      <trkpt lat="47.03487" lon="5.80692">
        <ele>288.6</ele>
        <time>2020-07-07T09:28:00Z</time>
      </trkpt>
      <trkpt lat="47.03482" lon="5.8069">
        <ele>288.2</ele>
        <time>2020-07-07T09:28:04Z</time>
      </trkpt>
      <trkpt lat="47.03479" lon="5.80686">
        <ele>287.7</ele>
        <time>2020-07-07T09:28:09Z</time>
      </trkpt>
      <trkpt lat="47.03475" lon="5.8068">
        <ele>287.3</ele>
        <time>2020-07-07T09:28:14Z</time>
      </trkpt>
      <trkpt lat="47.03472" lon="5.80676">
        <ele>286.9</ele>
        <time>2020-07-07T09:28:18Z</time>
      </trkpt>
      <trkpt lat="47.03469" lon="5.80669">
        <ele>286.4</ele>
        <time>2020-07-07T09:28:23Z</time>
      </trkpt>
      <trkpt lat="47.03466" lon="5.80664">
        <ele>285.9</ele>
        <time>2020-07-07T09:28:28Z</time>
      </trkpt>
      <trkpt lat="47.03462" lon="5.80661">
        <ele>284.9</ele>
        <time>2020-07-07T09:28:35Z</time>
      </trkpt>
      <trkpt lat="47.03458" lon="5.80658">
        <ele>284.3</ele>
        <time>2020-07-07T09:28:39Z</time>
      </trkpt>
      <trkpt lat="47.03453" lon="5.80654">
        <ele>283.6</ele>
        <time>2020-07-07T09:28:43Z</time>
      </trkpt>
      <trkpt lat="47.03451" lon="5.80648">
        <ele>282.7</ele>
        <time>2020-07-07T09:28:54Z</time>
      </trkpt>
      <trkpt lat="47.03446" lon="5.80648">
        <ele>283.7</ele>
        <time>2020-07-07T09:29:07Z</time>
      </trkpt>
      <trkpt lat="47.03441" lon="5.8065">
        <ele>285</ele>
        <time>2020-07-07T09:29:16Z</time>
      </trkpt>
      <trkpt lat="47.03437" lon="5.8065">
        <ele>285.3</ele>
        <time>2020-07-07T09:29:23Z</time>
      </trkpt>
      <trkpt lat="47.03423" lon="5.80656">
        <ele>285</ele>
        <time>2020-07-07T09:29:41Z</time>
      </trkpt>
      <trkpt lat="47.03418" lon="5.80656">
        <ele>285.3</ele>
        <time>2020-07-07T09:29:48Z</time>
      </trkpt>
      <trkpt lat="47.03413" lon="5.80656">
        <ele>285.6</ele>
        <time>2020-07-07T09:29:57Z</time>
      </trkpt>
      <trkpt lat="47.03408" lon="5.80659">
        <ele>286</ele>
        <time>2020-07-07T09:30:04Z</time>
      </trkpt>
      <trkpt lat="47.03403" lon="5.80659">
        <ele>286.3</ele>
        <time>2020-07-07T09:30:10Z</time>
      </trkpt>
      <trkpt lat="47.03398" lon="5.80659">
        <ele>286.7</ele>
        <time>2020-07-07T09:30:15Z</time>
      </trkpt>
      <trkpt lat="47.03393" lon="5.80659">
        <ele>287.1</ele>
        <time>2020-07-07T09:30:20Z</time>
      </trkpt>
      <trkpt lat="47.03388" lon="5.80661">
        <ele>287.7</ele>
        <time>2020-07-07T09:30:26Z</time>
      </trkpt>
      <trkpt lat="47.03383" lon="5.80665">
        <ele>288.1</ele>
        <time>2020-07-07T09:30:30Z</time>
      </trkpt>
      <trkpt lat="47.03379" lon="5.80667">
        <ele>288.9</ele>
        <time>2020-07-07T09:30:35Z</time>
      </trkpt>
      <trkpt lat="47.03374" lon="5.8067">
        <ele>289.7</ele>
        <time>2020-07-07T09:30:40Z</time>
      </trkpt>
      <trkpt lat="47.03369" lon="5.8067">
        <ele>290.4</ele>
        <time>2020-07-07T09:30:45Z</time>
      </trkpt>
      <trkpt lat="47.03363" lon="5.8067">
        <ele>291.7</ele>
        <time>2020-07-07T09:30:52Z</time>
      </trkpt>
      <trkpt lat="47.03359" lon="5.80673">
        <ele>292.4</ele>
        <time>2020-07-07T09:30:57Z</time>
      </trkpt>
      <trkpt lat="47.03354" lon="5.80677">
        <ele>293.1</ele>
        <time>2020-07-07T09:31:01Z</time>
      </trkpt>
      <trkpt lat="47.03349" lon="5.80679">
        <ele>293.8</ele>
        <time>2020-07-07T09:31:05Z</time>
      </trkpt>
      <trkpt lat="47.03344" lon="5.80682">
        <ele>294.8</ele>
        <time>2020-07-07T09:31:10Z</time>
      </trkpt>
      <trkpt lat="47.03339" lon="5.80685">
        <ele>295.7</ele>
        <time>2020-07-07T09:31:14Z</time>
      </trkpt>
      <trkpt lat="47.03334" lon="5.80687">
        <ele>296.7</ele>
        <time>2020-07-07T09:31:18Z</time>
      </trkpt>
      <trkpt lat="47.03329" lon="5.80689">
        <ele>298.2</ele>
        <time>2020-07-07T09:31:24Z</time>
      </trkpt>
      <trkpt lat="47.03324" lon="5.8069">
        <ele>299.6</ele>
        <time>2020-07-07T09:31:29Z</time>
      </trkpt>
      <trkpt lat="47.03319" lon="5.80691">
        <ele>300.9</ele>
        <time>2020-07-07T09:31:34Z</time>
      </trkpt>
      <trkpt lat="47.03314" lon="5.80692">
        <ele>302.2</ele>
        <time>2020-07-07T09:31:39Z</time>
      </trkpt>
      <trkpt lat="47.03309" lon="5.80691">
        <ele>303.6</ele>
        <time>2020-07-07T09:31:45Z</time>
      </trkpt>
      <trkpt lat="47.03304" lon="5.80691">
        <ele>304.3</ele>
        <time>2020-07-07T09:31:50Z</time>
      </trkpt>
      <trkpt lat="47.033" lon="5.80692">
        <ele>305.2</ele>
        <time>2020-07-07T09:31:57Z</time>
      </trkpt>
      <trkpt lat="47.03295" lon="5.80694">
        <ele>306.3</ele>
        <time>2020-07-07T09:32:04Z</time>
      </trkpt>
      <trkpt lat="47.0329" lon="5.80691">
        <ele>307.3</ele>
        <time>2020-07-07T09:32:11Z</time>
      </trkpt>
      <trkpt lat="47.0329" lon="5.80681">
        <ele>308.6</ele>
        <time>2020-07-07T09:32:26Z</time>
      </trkpt>
      <trkpt lat="47.03295" lon="5.8068">
        <ele>310.7</ele>
        <time>2020-07-07T09:32:40Z</time>
      </trkpt>
      <trkpt lat="47.03296" lon="5.80686">
        <ele>311</ele>
        <time>2020-07-07T09:32:46Z</time>
      </trkpt>
      <trkpt lat="47.03293" lon="5.80691">
        <ele>312.7</ele>
        <time>2020-07-07T09:32:54Z</time>
      </trkpt>
      <trkpt lat="47.03288" lon="5.80691">
        <ele>313.5</ele>
        <time>2020-07-07T09:32:59Z</time>
      </trkpt>
      <trkpt lat="47.03284" lon="5.80687">
        <ele>314.8</ele>
        <time>2020-07-07T09:33:22Z</time>
      </trkpt>
      <trkpt lat="47.0328" lon="5.80686">
        <ele>314.6</ele>
        <time>2020-07-07T09:33:32Z</time>
      </trkpt>
      <trkpt lat="47.03275" lon="5.80687">
        <ele>314.1</ele>
        <time>2020-07-07T09:33:40Z</time>
      </trkpt>
      <trkpt lat="47.0327" lon="5.8069">
        <ele>313.6</ele>
        <time>2020-07-07T09:33:45Z</time>
      </trkpt>
      <trkpt lat="47.03266" lon="5.80692">
        <ele>313.1</ele>
        <time>2020-07-07T09:33:50Z</time>
      </trkpt>
      <trkpt lat="47.03261" lon="5.80695">
        <ele>312.7</ele>
        <time>2020-07-07T09:33:55Z</time>
      </trkpt>
      <trkpt lat="47.03255" lon="5.80697">
        <ele>312.5</ele>
        <time>2020-07-07T09:34:01Z</time>
      </trkpt>
      <trkpt lat="47.0325" lon="5.807">
        <ele>312.2</ele>
        <time>2020-07-07T09:34:06Z</time>
      </trkpt>
      <trkpt lat="47.03245" lon="5.80701">
        <ele>311.9</ele>
        <time>2020-07-07T09:34:12Z</time>
      </trkpt>
      <trkpt lat="47.0324" lon="5.80704">
        <ele>311.8</ele>
        <time>2020-07-07T09:34:20Z</time>
      </trkpt>
      <trkpt lat="47.03235" lon="5.80706">
        <ele>312</ele>
        <time>2020-07-07T09:34:25Z</time>
      </trkpt>
      <trkpt lat="47.03229" lon="5.80707">
        <ele>312.2</ele>
        <time>2020-07-07T09:34:29Z</time>
      </trkpt>
      <trkpt lat="47.03231" lon="5.80707">
        <ele>312.8</ele>
        <time>2020-07-07T09:34:53Z</time>
      </trkpt>
      <trkpt lat="47.03226" lon="5.80705">
        <ele>313.1</ele>
        <time>2020-07-07T09:35:05Z</time>
      </trkpt>
      <trkpt lat="47.03218" lon="5.80704">
        <ele>312.9</ele>
        <time>2020-07-07T09:37:48Z</time>
      </trkpt>
      <trkpt lat="47.03213" lon="5.80703">
        <ele>314.3</ele>
        <time>2020-07-07T09:37:56Z</time>
      </trkpt>
      <trkpt lat="47.03208" lon="5.80701">
        <ele>314.9</ele>
        <time>2020-07-07T09:38:05Z</time>
      </trkpt>
      <trkpt lat="47.03203" lon="5.807">
        <ele>315.2</ele>
        <time>2020-07-07T09:38:11Z</time>
      </trkpt>
      <trkpt lat="47.03199" lon="5.80703">
        <ele>315.7</ele>
        <time>2020-07-07T09:38:16Z</time>
      </trkpt>
      <trkpt lat="47.03196" lon="5.80714">
        <ele>319.8</ele>
        <time>2020-07-07T09:39:40Z</time>
      </trkpt>
      <trkpt lat="47.03195" lon="5.80721">
        <ele>320.2</ele>
        <time>2020-07-07T09:39:45Z</time>
      </trkpt>
      <trkpt lat="47.03195" lon="5.80729">
        <ele>322.4</ele>
        <time>2020-07-07T09:40:13Z</time>
      </trkpt>
      <trkpt lat="47.03196" lon="5.80736">
        <ele>323.1</ele>
        <time>2020-07-07T09:40:19Z</time>
      </trkpt>
      <trkpt lat="47.03198" lon="5.80742">
        <ele>323.7</ele>
        <time>2020-07-07T09:40:25Z</time>
      </trkpt>
      <trkpt lat="47.03201" lon="5.80748">
        <ele>324.4</ele>
        <time>2020-07-07T09:40:32Z</time>
      </trkpt>
      <trkpt lat="47.03202" lon="5.80755">
        <ele>324.7</ele>
        <time>2020-07-07T09:40:37Z</time>
      </trkpt>
      <trkpt lat="47.03205" lon="5.8076">
        <ele>325</ele>
        <time>2020-07-07T09:40:41Z</time>
      </trkpt>
      <trkpt lat="47.03208" lon="5.80765">
        <ele>325.2</ele>
        <time>2020-07-07T09:40:43Z</time>
      </trkpt>
      <trkpt lat="47.03212" lon="5.8077">
        <ele>325.7</ele>
        <time>2020-07-07T09:40:47Z</time>
      </trkpt>
      <trkpt lat="47.03216" lon="5.80774">
        <ele>326.1</ele>
        <time>2020-07-07T09:40:50Z</time>
      </trkpt>
      <trkpt lat="47.0322" lon="5.80776">
        <ele>326.8</ele>
        <time>2020-07-07T09:40:54Z</time>
      </trkpt>
      <trkpt lat="47.03224" lon="5.80779">
        <ele>327.7</ele>
        <time>2020-07-07T09:40:59Z</time>
      </trkpt>
      <trkpt lat="47.03229" lon="5.80782">
        <ele>328.4</ele>
        <time>2020-07-07T09:41:03Z</time>
      </trkpt>
      <trkpt lat="47.03232" lon="5.80788">
        <ele>329.4</ele>
        <time>2020-07-07T09:41:08Z</time>
      </trkpt>
      <trkpt lat="47.03235" lon="5.80794">
        <ele>330.4</ele>
        <time>2020-07-07T09:41:13Z</time>
      </trkpt>
      <trkpt lat="47.03239" lon="5.80798">
        <ele>331.2</ele>
        <time>2020-07-07T09:41:18Z</time>
      </trkpt>
      <trkpt lat="47.03242" lon="5.80804">
        <ele>332.2</ele>
        <time>2020-07-07T09:41:24Z</time>
      </trkpt>
      <trkpt lat="47.03245" lon="5.8081">
        <ele>332.8</ele>
        <time>2020-07-07T09:41:29Z</time>
      </trkpt>
      <trkpt lat="47.03248" lon="5.80817">
        <ele>333.3</ele>
        <time>2020-07-07T09:41:34Z</time>
      </trkpt>
      <trkpt lat="47.03251" lon="5.80822">
        <ele>333.8</ele>
        <time>2020-07-07T09:41:39Z</time>
      </trkpt>
      <trkpt lat="47.03255" lon="5.80827">
        <ele>334.4</ele>
        <time>2020-07-07T09:41:45Z</time>
      </trkpt>
      <trkpt lat="47.0327" lon="5.80847">
        <ele>335.7</ele>
        <time>2020-07-07T09:42:05Z</time>
      </trkpt>
      <trkpt lat="47.03273" lon="5.80853">
        <ele>335.9</ele>
        <time>2020-07-07T09:42:10Z</time>
      </trkpt>
      <trkpt lat="47.03276" lon="5.80859">
        <ele>335.8</ele>
        <time>2020-07-07T09:42:16Z</time>
      </trkpt>
      <trkpt lat="47.03279" lon="5.80865">
        <ele>335.7</ele>
        <time>2020-07-07T09:42:22Z</time>
      </trkpt>
      <trkpt lat="47.03282" lon="5.80871">
        <ele>335.8</ele>
        <time>2020-07-07T09:42:27Z</time>
      </trkpt>
      <trkpt lat="47.03286" lon="5.80875">
        <ele>336.1</ele>
        <time>2020-07-07T09:42:32Z</time>
      </trkpt>
      <trkpt lat="47.03289" lon="5.8088">
        <ele>336.2</ele>
        <time>2020-07-07T09:42:37Z</time>
      </trkpt>
      <trkpt lat="47.03293" lon="5.80886">
        <ele>336.1</ele>
        <time>2020-07-07T09:42:42Z</time>
      </trkpt>
      <trkpt lat="47.03296" lon="5.8089">
        <ele>336.1</ele>
        <time>2020-07-07T09:42:46Z</time>
      </trkpt>
      <trkpt lat="47.033" lon="5.80896">
        <ele>335.9</ele>
        <time>2020-07-07T09:42:51Z</time>
      </trkpt>
      <trkpt lat="47.03307" lon="5.80909">
        <ele>336.2</ele>
        <time>2020-07-07T09:43:03Z</time>
      </trkpt>
      <trkpt lat="47.0331" lon="5.80914">
        <ele>335.9</ele>
        <time>2020-07-07T09:43:08Z</time>
      </trkpt>
      <trkpt lat="47.03314" lon="5.80918">
        <ele>335.6</ele>
        <time>2020-07-07T09:43:12Z</time>
      </trkpt>
      <trkpt lat="47.03317" lon="5.80924">
        <ele>335.4</ele>
        <time>2020-07-07T09:43:17Z</time>
      </trkpt>
      <trkpt lat="47.03321" lon="5.80928">
        <ele>335.2</ele>
        <time>2020-07-07T09:43:22Z</time>
      </trkpt>
      <trkpt lat="47.03326" lon="5.80933">
        <ele>335</ele>
        <time>2020-07-07T09:43:27Z</time>
      </trkpt>
      <trkpt lat="47.0333" lon="5.80938">
        <ele>335</ele>
        <time>2020-07-07T09:43:32Z</time>
      </trkpt>
      <trkpt lat="47.03333" lon="5.80942">
        <ele>334.9</ele>
        <time>2020-07-07T09:43:36Z</time>
      </trkpt>
      <trkpt lat="47.03337" lon="5.80947">
        <ele>335</ele>
        <time>2020-07-07T09:43:40Z</time>
      </trkpt>
      <trkpt lat="47.03341" lon="5.80951">
        <ele>335</ele>
        <time>2020-07-07T09:43:44Z</time>
      </trkpt>
      <trkpt lat="47.03344" lon="5.80955">
        <ele>335.1</ele>
        <time>2020-07-07T09:43:49Z</time>
      </trkpt>
      <trkpt lat="47.03348" lon="5.80962">
        <ele>335.2</ele>
        <time>2020-07-07T09:43:55Z</time>
      </trkpt>
      <trkpt lat="47.03351" lon="5.80967">
        <ele>335.3</ele>
        <time>2020-07-07T09:43:59Z</time>
      </trkpt>
      <trkpt lat="47.03355" lon="5.80972">
        <ele>335.4</ele>
        <time>2020-07-07T09:44:05Z</time>
      </trkpt>
      <trkpt lat="47.03358" lon="5.80976">
        <ele>335.3</ele>
        <time>2020-07-07T09:44:09Z</time>
      </trkpt>
      <trkpt lat="47.03362" lon="5.8098">
        <ele>335.2</ele>
        <time>2020-07-07T09:44:13Z</time>
      </trkpt>
      <trkpt lat="47.03366" lon="5.80985">
        <ele>335.3</ele>
        <time>2020-07-07T09:44:18Z</time>
      </trkpt>
      <trkpt lat="47.0337" lon="5.8099">
        <ele>335.2</ele>
        <time>2020-07-07T09:44:24Z</time>
      </trkpt>
      <trkpt lat="47.03374" lon="5.80994">
        <ele>335.3</ele>
        <time>2020-07-07T09:44:28Z</time>
      </trkpt>
      <trkpt lat="47.03378" lon="5.80999">
        <ele>335.6</ele>
        <time>2020-07-07T09:44:32Z</time>
      </trkpt>
      <trkpt lat="47.03382" lon="5.81002">
        <ele>335.9</ele>
        <time>2020-07-07T09:44:36Z</time>
      </trkpt>
      <trkpt lat="47.03386" lon="5.81006">
        <ele>336.2</ele>
        <time>2020-07-07T09:44:41Z</time>
      </trkpt>
      <trkpt lat="47.03381" lon="5.81008">
        <ele>336.9</ele>
        <time>2020-07-07T09:44:52Z</time>
      </trkpt>
      <trkpt lat="47.03385" lon="5.81013">
        <ele>336.8</ele>
        <time>2020-07-07T09:45:20Z</time>
      </trkpt>
      <trkpt lat="47.03389" lon="5.81017">
        <ele>336.8</ele>
        <time>2020-07-07T09:45:24Z</time>
      </trkpt>
      <trkpt lat="47.03395" lon="5.8102">
        <ele>336.7</ele>
        <time>2020-07-07T09:45:29Z</time>
      </trkpt>
      <trkpt lat="47.034" lon="5.81022">
        <ele>336.7</ele>
        <time>2020-07-07T09:45:33Z</time>
      </trkpt>
      <trkpt lat="47.03405" lon="5.81023">
        <ele>336.6</ele>
        <time>2020-07-07T09:45:37Z</time>
      </trkpt>
      <trkpt lat="47.0341" lon="5.81025">
        <ele>336.5</ele>
        <time>2020-07-07T09:45:41Z</time>
      </trkpt>
      <trkpt lat="47.03416" lon="5.81027">
        <ele>336.5</ele>
        <time>2020-07-07T09:45:45Z</time>
      </trkpt>
      <trkpt lat="47.0342" lon="5.81028">
        <ele>336.5</ele>
        <time>2020-07-07T09:45:50Z</time>
      </trkpt>
      <trkpt lat="47.03425" lon="5.8103">
        <ele>336.4</ele>
        <time>2020-07-07T09:45:56Z</time>
      </trkpt>
      <trkpt lat="47.0343" lon="5.81033">
        <ele>336.7</ele>
        <time>2020-07-07T09:46:02Z</time>
      </trkpt>
      <trkpt lat="47.03434" lon="5.81033">
        <ele>336.9</ele>
        <time>2020-07-07T09:46:07Z</time>
      </trkpt>
      <trkpt lat="47.03439" lon="5.81034">
        <ele>337.1</ele>
        <time>2020-07-07T09:46:12Z</time>
      </trkpt>
      <trkpt lat="47.03444" lon="5.81036">
        <ele>337.4</ele>
        <time>2020-07-07T09:46:17Z</time>
      </trkpt>
      <trkpt lat="47.03449" lon="5.81037">
        <ele>337.4</ele>
        <time>2020-07-07T09:46:22Z</time>
      </trkpt>
      <trkpt lat="47.03453" lon="5.81038">
        <ele>337.3</ele>
        <time>2020-07-07T09:46:26Z</time>
      </trkpt>
      <trkpt lat="47.03458" lon="5.81038">
        <ele>337.3</ele>
        <time>2020-07-07T09:46:30Z</time>
      </trkpt>
      <trkpt lat="47.03463" lon="5.81039">
        <ele>337.2</ele>
        <time>2020-07-07T09:46:34Z</time>
      </trkpt>
      <trkpt lat="47.03468" lon="5.81041">
        <ele>337</ele>
        <time>2020-07-07T09:46:38Z</time>
      </trkpt>
      <trkpt lat="47.03473" lon="5.81042">
        <ele>336.7</ele>
        <time>2020-07-07T09:46:42Z</time>
      </trkpt>
      <trkpt lat="47.03478" lon="5.81042">
        <ele>336.4</ele>
        <time>2020-07-07T09:46:47Z</time>
      </trkpt>
      <trkpt lat="47.03482" lon="5.81045">
        <ele>336.3</ele>
        <time>2020-07-07T09:46:52Z</time>
      </trkpt>
      <trkpt lat="47.03487" lon="5.81047">
        <ele>336.1</ele>
        <time>2020-07-07T09:46:58Z</time>
      </trkpt>
      <trkpt lat="47.03491" lon="5.8105">
        <ele>335.9</ele>
        <time>2020-07-07T09:47:04Z</time>
      </trkpt>
      <trkpt lat="47.03497" lon="5.81052">
        <ele>335.9</ele>
        <time>2020-07-07T09:47:09Z</time>
      </trkpt>
      <trkpt lat="47.03502" lon="5.81053">
        <ele>335.9</ele>
        <time>2020-07-07T09:47:13Z</time>
      </trkpt>
      <trkpt lat="47.03507" lon="5.81054">
        <ele>335.9</ele>
        <time>2020-07-07T09:47:18Z</time>
      </trkpt>
      <trkpt lat="47.03511" lon="5.81057">
        <ele>335.8</ele>
        <time>2020-07-07T09:47:23Z</time>
      </trkpt>
      <trkpt lat="47.03517" lon="5.81058">
        <ele>335.6</ele>
        <time>2020-07-07T09:47:28Z</time>
      </trkpt>
      <trkpt lat="47.03521" lon="5.8106">
        <ele>335.4</ele>
        <time>2020-07-07T09:47:32Z</time>
      </trkpt>
      <trkpt lat="47.03526" lon="5.81061">
        <ele>335.1</ele>
        <time>2020-07-07T09:47:38Z</time>
      </trkpt>
      <trkpt lat="47.03532" lon="5.81061">
        <ele>335</ele>
        <time>2020-07-07T09:47:43Z</time>
      </trkpt>
      <trkpt lat="47.03537" lon="5.81062">
        <ele>334.9</ele>
        <time>2020-07-07T09:47:47Z</time>
      </trkpt>
      <trkpt lat="47.03542" lon="5.81064">
        <ele>334.6</ele>
        <time>2020-07-07T09:47:53Z</time>
      </trkpt>
      <trkpt lat="47.03547" lon="5.81065">
        <ele>334.4</ele>
        <time>2020-07-07T09:48:01Z</time>
      </trkpt>
      <trkpt lat="47.03551" lon="5.81068">
        <ele>333.9</ele>
        <time>2020-07-07T09:48:07Z</time>
      </trkpt>
      <trkpt lat="47.03555" lon="5.81071">
        <ele>333.2</ele>
        <time>2020-07-07T09:48:13Z</time>
      </trkpt>
      <trkpt lat="47.03559" lon="5.81075">
        <ele>332.4</ele>
        <time>2020-07-07T09:48:23Z</time>
      </trkpt>
      <trkpt lat="47.03563" lon="5.81077">
        <ele>332.2</ele>
        <time>2020-07-07T09:48:41Z</time>
      </trkpt>
      <trkpt lat="47.03563" lon="5.8107">
        <ele>331.8</ele>
        <time>2020-07-07T09:49:07Z</time>
      </trkpt>
      <trkpt lat="47.03562" lon="5.81077">
        <ele>330.3</ele>
        <time>2020-07-07T09:49:36Z</time>
      </trkpt>
      <trkpt lat="47.03558" lon="5.81072">
        <ele>328.2</ele>
        <time>2020-07-07T09:50:59Z</time>
      </trkpt>
      <trkpt lat="47.03554" lon="5.81066">
        <ele>328.3</ele>
        <time>2020-07-07T09:51:10Z</time>
      </trkpt>
      <trkpt lat="47.03549" lon="5.81062">
        <ele>328.4</ele>
        <time>2020-07-07T09:51:13Z</time>
      </trkpt>
      <trkpt lat="47.03542" lon="5.81059">
        <ele>328.7</ele>
        <time>2020-07-07T09:51:16Z</time>
      </trkpt>
      <trkpt lat="47.03538" lon="5.81056">
        <ele>329.1</ele>
        <time>2020-07-07T09:51:19Z</time>
      </trkpt>
      <trkpt lat="47.03533" lon="5.81054">
        <ele>330.1</ele>
        <time>2020-07-07T09:51:25Z</time>
      </trkpt>
      <trkpt lat="47.03531" lon="5.81048">
        <ele>331</ele>
        <time>2020-07-07T09:51:38Z</time>
      </trkpt>
      <trkpt lat="47.03526" lon="5.81047">
        <ele>331.1</ele>
        <time>2020-07-07T09:51:43Z</time>
      </trkpt>
      <trkpt lat="47.03521" lon="5.81048">
        <ele>331.2</ele>
        <time>2020-07-07T09:51:48Z</time>
      </trkpt>
      <trkpt lat="47.03516" lon="5.8105">
        <ele>331.4</ele>
        <time>2020-07-07T09:51:52Z</time>
      </trkpt>
      <trkpt lat="47.03511" lon="5.8105">
        <ele>331.5</ele>
        <time>2020-07-07T09:51:56Z</time>
      </trkpt>
      <trkpt lat="47.03506" lon="5.8105">
        <ele>331.6</ele>
        <time>2020-07-07T09:52:00Z</time>
      </trkpt>
      <trkpt lat="47.03502" lon="5.8105">
        <ele>331.4</ele>
        <time>2020-07-07T09:52:03Z</time>
      </trkpt>
      <trkpt lat="47.03497" lon="5.81052">
        <ele>331.3</ele>
        <time>2020-07-07T09:52:06Z</time>
      </trkpt>
      <trkpt lat="47.03492" lon="5.81053">
        <ele>330.8</ele>
        <time>2020-07-07T09:52:10Z</time>
      </trkpt>
      <trkpt lat="47.03488" lon="5.81053">
        <ele>330.6</ele>
        <time>2020-07-07T09:52:13Z</time>
      </trkpt>
      <trkpt lat="47.03482" lon="5.81052">
        <ele>330.4</ele>
        <time>2020-07-07T09:52:17Z</time>
      </trkpt>
      <trkpt lat="47.03476" lon="5.8105">
        <ele>330.2</ele>
        <time>2020-07-07T09:52:22Z</time>
      </trkpt>
      <trkpt lat="47.03472" lon="5.81048">
        <ele>330.1</ele>
        <time>2020-07-07T09:52:26Z</time>
      </trkpt>
      <trkpt lat="47.03467" lon="5.81047">
        <ele>330.1</ele>
        <time>2020-07-07T09:52:30Z</time>
      </trkpt>
      <trkpt lat="47.03463" lon="5.81046">
        <ele>330.1</ele>
        <time>2020-07-07T09:52:35Z</time>
      </trkpt>
      <trkpt lat="47.03457" lon="5.81046">
        <ele>330.1</ele>
        <time>2020-07-07T09:52:42Z</time>
      </trkpt>
      <trkpt lat="47.03453" lon="5.81045">
        <ele>330.1</ele>
        <time>2020-07-07T09:52:46Z</time>
      </trkpt>
      <trkpt lat="47.03448" lon="5.81042">
        <ele>330</ele>
        <time>2020-07-07T09:52:50Z</time>
      </trkpt>
      <trkpt lat="47.03443" lon="5.81041">
        <ele>330.1</ele>
        <time>2020-07-07T09:52:56Z</time>
      </trkpt>
      <trkpt lat="47.03438" lon="5.8104">
        <ele>330.1</ele>
        <time>2020-07-07T09:53:01Z</time>
      </trkpt>
      <trkpt lat="47.03433" lon="5.81039">
        <ele>330</ele>
        <time>2020-07-07T09:53:06Z</time>
      </trkpt>
      <trkpt lat="47.03428" lon="5.81037">
        <ele>329.8</ele>
        <time>2020-07-07T09:53:11Z</time>
      </trkpt>
      <trkpt lat="47.03422" lon="5.81035">
        <ele>329.7</ele>
        <time>2020-07-07T09:53:16Z</time>
      </trkpt>
      <trkpt lat="47.03416" lon="5.81034">
        <ele>329.6</ele>
        <time>2020-07-07T09:53:20Z</time>
      </trkpt>
      <trkpt lat="47.03412" lon="5.81033">
        <ele>329.5</ele>
        <time>2020-07-07T09:53:23Z</time>
      </trkpt>
      <trkpt lat="47.03407" lon="5.81031">
        <ele>329.5</ele>
        <time>2020-07-07T09:53:28Z</time>
      </trkpt>
      <trkpt lat="47.03402" lon="5.8103">
        <ele>329.3</ele>
        <time>2020-07-07T09:53:34Z</time>
      </trkpt>
      <trkpt lat="47.03397" lon="5.81026">
        <ele>329.1</ele>
        <time>2020-07-07T09:53:40Z</time>
      </trkpt>
      <trkpt lat="47.03393" lon="5.81023">
        <ele>328.8</ele>
        <time>2020-07-07T09:53:46Z</time>
      </trkpt>
      <trkpt lat="47.03389" lon="5.81019">
        <ele>328.5</ele>
        <time>2020-07-07T09:53:52Z</time>
      </trkpt>
      <trkpt lat="47.03385" lon="5.81014">
        <ele>328.4</ele>
        <time>2020-07-07T09:53:57Z</time>
      </trkpt>
      <trkpt lat="47.03382" lon="5.81011">
        <ele>328.4</ele>
        <time>2020-07-07T09:54:01Z</time>
      </trkpt>
      <trkpt lat="47.03377" lon="5.81007">
        <ele>328.5</ele>
        <time>2020-07-07T09:54:06Z</time>
      </trkpt>
      <trkpt lat="47.03374" lon="5.81002">
        <ele>328.6</ele>
        <time>2020-07-07T09:54:12Z</time>
      </trkpt>
      <trkpt lat="47.0337" lon="5.80998">
        <ele>328.6</ele>
        <time>2020-07-07T09:54:16Z</time>
      </trkpt>
      <trkpt lat="47.03366" lon="5.80995">
        <ele>328.4</ele>
        <time>2020-07-07T09:54:20Z</time>
      </trkpt>
      <trkpt lat="47.03362" lon="5.8099">
        <ele>328.5</ele>
        <time>2020-07-07T09:54:24Z</time>
      </trkpt>
      <trkpt lat="47.03358" lon="5.80985">
        <ele>328.6</ele>
        <time>2020-07-07T09:54:29Z</time>
      </trkpt>
      <trkpt lat="47.03354" lon="5.80982">
        <ele>329</ele>
        <time>2020-07-07T09:54:34Z</time>
      </trkpt>
      <trkpt lat="47.0335" lon="5.80977">
        <ele>329.3</ele>
        <time>2020-07-07T09:54:41Z</time>
      </trkpt>
      <trkpt lat="47.03346" lon="5.80973">
        <ele>329.1</ele>
        <time>2020-07-07T09:54:46Z</time>
      </trkpt>
      <trkpt lat="47.03342" lon="5.80966">
        <ele>328.6</ele>
        <time>2020-07-07T09:54:52Z</time>
      </trkpt>
      <trkpt lat="47.03338" lon="5.80961">
        <ele>328.2</ele>
        <time>2020-07-07T09:54:57Z</time>
      </trkpt>
      <trkpt lat="47.03334" lon="5.80957">
        <ele>328</ele>
        <time>2020-07-07T09:55:01Z</time>
      </trkpt>
      <trkpt lat="47.0333" lon="5.80951">
        <ele>328.1</ele>
        <time>2020-07-07T09:55:06Z</time>
      </trkpt>
      <trkpt lat="47.03327" lon="5.80946">
        <ele>328.2</ele>
        <time>2020-07-07T09:55:11Z</time>
      </trkpt>
      <trkpt lat="47.03322" lon="5.80942">
        <ele>328.4</ele>
        <time>2020-07-07T09:55:17Z</time>
      </trkpt>
      <trkpt lat="47.03319" lon="5.80938">
        <ele>328.4</ele>
        <time>2020-07-07T09:55:22Z</time>
      </trkpt>
      <trkpt lat="47.03309" lon="5.80927">
        <ele>327.8</ele>
        <time>2020-07-07T09:55:36Z</time>
      </trkpt>
      <trkpt lat="47.03305" lon="5.80921">
        <ele>327.4</ele>
        <time>2020-07-07T09:55:41Z</time>
      </trkpt>
      <trkpt lat="47.03302" lon="5.80913">
        <ele>327.4</ele>
        <time>2020-07-07T09:55:43Z</time>
      </trkpt>
      <trkpt lat="47.033" lon="5.80904">
        <ele>327.6</ele>
        <time>2020-07-07T09:55:45Z</time>
      </trkpt>
      <trkpt lat="47.03297" lon="5.80898">
        <ele>327.8</ele>
        <time>2020-07-07T09:55:47Z</time>
      </trkpt>
      <trkpt lat="47.03294" lon="5.8089">
        <ele>328.3</ele>
        <time>2020-07-07T09:55:50Z</time>
      </trkpt>
      <trkpt lat="47.03291" lon="5.80884">
        <ele>328.8</ele>
        <time>2020-07-07T09:55:52Z</time>
      </trkpt>
      <trkpt lat="47.03288" lon="5.80878">
        <ele>329.3</ele>
        <time>2020-07-07T09:55:55Z</time>
      </trkpt>
      <trkpt lat="47.03285" lon="5.80873">
        <ele>329.9</ele>
        <time>2020-07-07T09:56:00Z</time>
      </trkpt>
      <trkpt lat="47.0329" lon="5.80873">
        <ele>330.5</ele>
        <time>2020-07-07T09:56:08Z</time>
      </trkpt>
      <trkpt lat="47.03295" lon="5.80872">
        <ele>330.5</ele>
        <time>2020-07-07T09:56:11Z</time>
      </trkpt>
      <trkpt lat="47.03298" lon="5.80867">
        <ele>329.9</ele>
        <time>2020-07-07T09:56:16Z</time>
      </trkpt>
      <trkpt lat="47.03292" lon="5.80864">
        <ele>329.5</ele>
        <time>2020-07-07T09:56:21Z</time>
      </trkpt>
      <trkpt lat="47.03287" lon="5.80859">
        <ele>329.5</ele>
        <time>2020-07-07T09:56:24Z</time>
      </trkpt>
      <trkpt lat="47.03282" lon="5.80857">
        <ele>329.7</ele>
        <time>2020-07-07T09:56:26Z</time>
      </trkpt>
      <trkpt lat="47.03278" lon="5.80855">
        <ele>330.3</ele>
        <time>2020-07-07T09:56:29Z</time>
      </trkpt>
      <trkpt lat="47.03273" lon="5.80851">
        <ele>331.6</ele>
        <time>2020-07-07T09:56:36Z</time>
      </trkpt>
      <trkpt lat="47.0327" lon="5.80846">
        <ele>331.9</ele>
        <time>2020-07-07T09:56:39Z</time>
      </trkpt>
      <trkpt lat="47.03266" lon="5.8084">
        <ele>332.1</ele>
        <time>2020-07-07T09:56:44Z</time>
      </trkpt>
      <trkpt lat="47.03262" lon="5.80835">
        <ele>332.2</ele>
        <time>2020-07-07T09:56:48Z</time>
      </trkpt>
      <trkpt lat="47.03259" lon="5.80829">
        <ele>332.2</ele>
        <time>2020-07-07T09:56:52Z</time>
      </trkpt>
      <trkpt lat="47.03256" lon="5.80823">
        <ele>332.2</ele>
        <time>2020-07-07T09:56:58Z</time>
      </trkpt>
      <trkpt lat="47.03252" lon="5.80819">
        <ele>332.6</ele>
        <time>2020-07-07T09:57:03Z</time>
      </trkpt>
      <trkpt lat="47.03247" lon="5.80815">
        <ele>333.1</ele>
        <time>2020-07-07T09:57:08Z</time>
      </trkpt>
      <trkpt lat="47.03243" lon="5.8081">
        <ele>333.9</ele>
        <time>2020-07-07T09:57:14Z</time>
      </trkpt>
      <trkpt lat="47.03239" lon="5.80806">
        <ele>335</ele>
        <time>2020-07-07T09:57:21Z</time>
      </trkpt>
      <trkpt lat="47.03234" lon="5.80803">
        <ele>336.2</ele>
        <time>2020-07-07T09:57:30Z</time>
      </trkpt>
      <trkpt lat="47.0323" lon="5.80801">
        <ele>336.3</ele>
        <time>2020-07-07T09:57:35Z</time>
      </trkpt>
      <trkpt lat="47.03226" lon="5.80798">
        <ele>335.4</ele>
        <time>2020-07-07T09:57:43Z</time>
      </trkpt>
      <trkpt lat="47.03222" lon="5.80794">
        <ele>334.5</ele>
        <time>2020-07-07T09:57:49Z</time>
      </trkpt>
      <trkpt lat="47.03219" lon="5.8079">
        <ele>333.6</ele>
        <time>2020-07-07T09:57:54Z</time>
      </trkpt>
      <trkpt lat="47.03214" lon="5.80785">
        <ele>332.2</ele>
        <time>2020-07-07T09:58:00Z</time>
      </trkpt>
      <trkpt lat="47.03211" lon="5.80781">
        <ele>330.4</ele>
        <time>2020-07-07T09:58:07Z</time>
      </trkpt>
      <trkpt lat="47.03207" lon="5.80777">
        <ele>328.6</ele>
        <time>2020-07-07T09:58:14Z</time>
      </trkpt>
      <trkpt lat="47.03204" lon="5.80772">
        <ele>327.2</ele>
        <time>2020-07-07T09:58:21Z</time>
      </trkpt>
      <trkpt lat="47.032" lon="5.80769">
        <ele>324.9</ele>
        <time>2020-07-07T09:58:29Z</time>
      </trkpt>
      <trkpt lat="47.03195" lon="5.80759">
        <ele>317.7</ele>
        <time>2020-07-07T09:58:47Z</time>
      </trkpt>
      <trkpt lat="47.03193" lon="5.80751">
        <ele>313.8</ele>
        <time>2020-07-07T09:59:01Z</time>
      </trkpt>
      <trkpt lat="47.0319" lon="5.80745">
        <ele>313.8</ele>
        <time>2020-07-07T09:59:03Z</time>
      </trkpt>
      <trkpt lat="47.03187" lon="5.80739">
        <ele>313.9</ele>
        <time>2020-07-07T09:59:05Z</time>
      </trkpt>
      <trkpt lat="47.03184" lon="5.80733">
        <ele>314.1</ele>
        <time>2020-07-07T09:59:07Z</time>
      </trkpt>
      <trkpt lat="47.03182" lon="5.80727">
        <ele>314.4</ele>
        <time>2020-07-07T09:59:09Z</time>
      </trkpt>
      <trkpt lat="47.03178" lon="5.80722">
        <ele>315.4</ele>
        <time>2020-07-07T09:59:13Z</time>
      </trkpt>
      <trkpt lat="47.03173" lon="5.8072">
        <ele>317</ele>
        <time>2020-07-07T09:59:19Z</time>
      </trkpt>
      <trkpt lat="47.03171" lon="5.80713">
        <ele>317.9</ele>
        <time>2020-07-07T09:59:26Z</time>
      </trkpt>
      <trkpt lat="47.03155" lon="5.80713">
        <ele>317.7</ele>
        <time>2020-07-07T09:59:47Z</time>
      </trkpt>
      <trkpt lat="47.0315" lon="5.80715">
        <ele>318.2</ele>
        <time>2020-07-07T09:59:51Z</time>
      </trkpt>
      <trkpt lat="47.03145" lon="5.80717">
        <ele>318.9</ele>
        <time>2020-07-07T09:59:55Z</time>
      </trkpt>
      <trkpt lat="47.03139" lon="5.80718">
        <ele>319.9</ele>
        <time>2020-07-07T10:00:00Z</time>
      </trkpt>
      <trkpt lat="47.03135" lon="5.80719">
        <ele>320.4</ele>
        <time>2020-07-07T10:00:02Z</time>
      </trkpt>
      <trkpt lat="47.0313" lon="5.8072">
        <ele>321.3</ele>
        <time>2020-07-07T10:00:05Z</time>
      </trkpt>
      <trkpt lat="47.03125" lon="5.80722">
        <ele>322.4</ele>
        <time>2020-07-07T10:00:08Z</time>
      </trkpt>
      <trkpt lat="47.0312" lon="5.80725">
        <ele>323.8</ele>
        <time>2020-07-07T10:00:11Z</time>
      </trkpt>
      <trkpt lat="47.03114" lon="5.80727">
        <ele>325.3</ele>
        <time>2020-07-07T10:00:14Z</time>
      </trkpt>
      <trkpt lat="47.03108" lon="5.80729">
        <ele>326.7</ele>
        <time>2020-07-07T10:00:17Z</time>
      </trkpt>
      <trkpt lat="47.03103" lon="5.80732">
        <ele>328.6</ele>
        <time>2020-07-07T10:00:22Z</time>
      </trkpt>
      <trkpt lat="47.03098" lon="5.80731">
        <ele>330</ele>
        <time>2020-07-07T10:00:27Z</time>
      </trkpt>
      <trkpt lat="47.03094" lon="5.8073">
        <ele>331</ele>
        <time>2020-07-07T10:00:31Z</time>
      </trkpt>
      <trkpt lat="47.03089" lon="5.80728">
        <ele>331.6</ele>
        <time>2020-07-07T10:00:34Z</time>
      </trkpt>
      <trkpt lat="47.03084" lon="5.80725">
        <ele>332.4</ele>
        <time>2020-07-07T10:00:38Z</time>
      </trkpt>
      <trkpt lat="47.03079" lon="5.80723">
        <ele>333.3</ele>
        <time>2020-07-07T10:00:45Z</time>
      </trkpt>
      <trkpt lat="47.03073" lon="5.80722">
        <ele>333.8</ele>
        <time>2020-07-07T10:00:50Z</time>
      </trkpt>
      <trkpt lat="47.03069" lon="5.80722">
        <ele>334</ele>
        <time>2020-07-07T10:00:55Z</time>
      </trkpt>
      <trkpt lat="47.03064" lon="5.80723">
        <ele>333.9</ele>
        <time>2020-07-07T10:01:00Z</time>
      </trkpt>
      <trkpt lat="47.03059" lon="5.80723">
        <ele>333.6</ele>
        <time>2020-07-07T10:01:04Z</time>
      </trkpt>
      <trkpt lat="47.03054" lon="5.80721">
        <ele>333.5</ele>
        <time>2020-07-07T10:01:07Z</time>
      </trkpt>
      <trkpt lat="47.0305" lon="5.80717">
        <ele>333.3</ele>
        <time>2020-07-07T10:01:12Z</time>
      </trkpt>
      <trkpt lat="47.03045" lon="5.80716">
        <ele>333.3</ele>
        <time>2020-07-07T10:01:17Z</time>
      </trkpt>
      <trkpt lat="47.03041" lon="5.80715">
        <ele>333.8</ele>
        <time>2020-07-07T10:01:26Z</time>
      </trkpt>
      <trkpt lat="47.03036" lon="5.80715">
        <ele>334</ele>
        <time>2020-07-07T10:01:33Z</time>
      </trkpt>
      <trkpt lat="47.03031" lon="5.80717">
        <ele>334</ele>
        <time>2020-07-07T10:01:38Z</time>
      </trkpt>
      <trkpt lat="47.03027" lon="5.80721">
        <ele>334.1</ele>
        <time>2020-07-07T10:01:43Z</time>
      </trkpt>
      <trkpt lat="47.03022" lon="5.80723">
        <ele>334</ele>
        <time>2020-07-07T10:01:49Z</time>
      </trkpt>
      <trkpt lat="47.03017" lon="5.8072">
        <ele>333.7</ele>
        <time>2020-07-07T10:01:55Z</time>
      </trkpt>
      <trkpt lat="47.03012" lon="5.80718">
        <ele>333.6</ele>
        <time>2020-07-07T10:02:00Z</time>
      </trkpt>
      <trkpt lat="47.03008" lon="5.80716">
        <ele>333.2</ele>
        <time>2020-07-07T10:02:04Z</time>
      </trkpt>
      <trkpt lat="47.03004" lon="5.80714">
        <ele>332.6</ele>
        <time>2020-07-07T10:02:08Z</time>
      </trkpt>
      <trkpt lat="47.02999" lon="5.80711">
        <ele>331.8</ele>
        <time>2020-07-07T10:02:12Z</time>
      </trkpt>
      <trkpt lat="47.02995" lon="5.80707">
        <ele>330.9</ele>
        <time>2020-07-07T10:02:17Z</time>
      </trkpt>
      <trkpt lat="47.02986" lon="5.807">
        <ele>327.4</ele>
        <time>2020-07-07T10:02:28Z</time>
      </trkpt>
      <trkpt lat="47.02971" lon="5.80695">
        <ele>321.6</ele>
        <time>2020-07-07T10:02:48Z</time>
      </trkpt>
      <trkpt lat="47.02967" lon="5.80696">
        <ele>321.2</ele>
        <time>2020-07-07T10:02:52Z</time>
      </trkpt>
      <trkpt lat="47.02962" lon="5.80697">
        <ele>321.2</ele>
        <time>2020-07-07T10:02:56Z</time>
      </trkpt>
      <trkpt lat="47.02957" lon="5.80699">
        <ele>321.4</ele>
        <time>2020-07-07T10:02:58Z</time>
      </trkpt>
      <trkpt lat="47.02952" lon="5.80701">
        <ele>321.6</ele>
        <time>2020-07-07T10:03:01Z</time>
      </trkpt>
      <trkpt lat="47.02948" lon="5.80702">
        <ele>321.8</ele>
        <time>2020-07-07T10:03:03Z</time>
      </trkpt>
      <trkpt lat="47.02941" lon="5.80702">
        <ele>322</ele>
        <time>2020-07-07T10:03:05Z</time>
      </trkpt>
      <trkpt lat="47.02937" lon="5.80703">
        <ele>322.4</ele>
        <time>2020-07-07T10:03:08Z</time>
      </trkpt>
      <trkpt lat="47.0293" lon="5.80702">
        <ele>322.6</ele>
        <time>2020-07-07T10:03:10Z</time>
      </trkpt>
      <trkpt lat="47.02925" lon="5.80701">
        <ele>322.8</ele>
        <time>2020-07-07T10:03:12Z</time>
      </trkpt>
      <trkpt lat="47.02919" lon="5.807">
        <ele>323.3</ele>
        <time>2020-07-07T10:03:15Z</time>
      </trkpt>
      <trkpt lat="47.02914" lon="5.80699">
        <ele>324</ele>
        <time>2020-07-07T10:03:19Z</time>
      </trkpt>
      <trkpt lat="47.02909" lon="5.80701">
        <ele>325.3</ele>
        <time>2020-07-07T10:03:27Z</time>
      </trkpt>
      <trkpt lat="47.02904" lon="5.80701">
        <ele>325.7</ele>
        <time>2020-07-07T10:03:34Z</time>
      </trkpt>
      <trkpt lat="47.02899" lon="5.80701">
        <ele>325.2</ele>
        <time>2020-07-07T10:03:41Z</time>
      </trkpt>
      <trkpt lat="47.02895" lon="5.80701">
        <ele>324.1</ele>
        <time>2020-07-07T10:03:49Z</time>
      </trkpt>
      <trkpt lat="47.0289" lon="5.80704">
        <ele>323.1</ele>
        <time>2020-07-07T10:04:02Z</time>
      </trkpt>
      <trkpt lat="47.02886" lon="5.80704">
        <ele>323.1</ele>
        <time>2020-07-07T10:04:09Z</time>
      </trkpt>
      <trkpt lat="47.02881" lon="5.80705">
        <ele>323</ele>
        <time>2020-07-07T10:04:13Z</time>
      </trkpt>
      <trkpt lat="47.02876" lon="5.80704">
        <ele>322.8</ele>
        <time>2020-07-07T10:04:17Z</time>
      </trkpt>
      <trkpt lat="47.02871" lon="5.80704">
        <ele>322.5</ele>
        <time>2020-07-07T10:04:23Z</time>
      </trkpt>
      <trkpt lat="47.02865" lon="5.80704">
        <ele>322.1</ele>
        <time>2020-07-07T10:04:27Z</time>
      </trkpt>
      <trkpt lat="47.02861" lon="5.80705">
        <ele>321.6</ele>
        <time>2020-07-07T10:04:31Z</time>
      </trkpt>
      <trkpt lat="47.02856" lon="5.80705">
        <ele>321</ele>
        <time>2020-07-07T10:04:35Z</time>
      </trkpt>
      <trkpt lat="47.02853" lon="5.807">
        <ele>319.5</ele>
        <time>2020-07-07T10:04:48Z</time>
      </trkpt>
      <trkpt lat="47.02848" lon="5.80696">
        <ele>319.5</ele>
        <time>2020-07-07T10:04:56Z</time>
      </trkpt>
      <trkpt lat="47.02844" lon="5.80691">
        <ele>319.7</ele>
        <time>2020-07-07T10:04:59Z</time>
      </trkpt>
      <trkpt lat="47.02839" lon="5.80686">
        <ele>320</ele>
        <time>2020-07-07T10:05:02Z</time>
      </trkpt>
      <trkpt lat="47.02835" lon="5.80683">
        <ele>320.6</ele>
        <time>2020-07-07T10:05:06Z</time>
      </trkpt>
      <trkpt lat="47.02831" lon="5.80678">
        <ele>321.3</ele>
        <time>2020-07-07T10:05:11Z</time>
      </trkpt>
      <trkpt lat="47.02826" lon="5.80675">
        <ele>321.8</ele>
        <time>2020-07-07T10:05:18Z</time>
      </trkpt>
      <trkpt lat="47.02822" lon="5.80673">
        <ele>322.1</ele>
        <time>2020-07-07T10:05:24Z</time>
      </trkpt>
      <trkpt lat="47.02818" lon="5.80669">
        <ele>322.4</ele>
        <time>2020-07-07T10:05:30Z</time>
      </trkpt>
      <trkpt lat="47.02813" lon="5.80663">
        <ele>322.6</ele>
        <time>2020-07-07T10:05:35Z</time>
      </trkpt>
      <trkpt lat="47.02809" lon="5.80659">
        <ele>322.8</ele>
        <time>2020-07-07T10:05:40Z</time>
      </trkpt>
      <trkpt lat="47.02805" lon="5.80656">
        <ele>323.2</ele>
        <time>2020-07-07T10:05:48Z</time>
      </trkpt>
      <trkpt lat="47.02801" lon="5.80651">
        <ele>323.4</ele>
        <time>2020-07-07T10:05:51Z</time>
      </trkpt>
      <trkpt lat="47.02797" lon="5.80647">
        <ele>323.8</ele>
        <time>2020-07-07T10:05:54Z</time>
      </trkpt>
      <trkpt lat="47.02794" lon="5.80643">
        <ele>324.4</ele>
        <time>2020-07-07T10:05:57Z</time>
      </trkpt>
      <trkpt lat="47.0279" lon="5.80638">
        <ele>324.8</ele>
        <time>2020-07-07T10:06:19Z</time>
      </trkpt>
      <trkpt lat="47.02786" lon="5.80633">
        <ele>325.8</ele>
        <time>2020-07-07T10:07:03Z</time>
      </trkpt>
      <trkpt lat="47.02783" lon="5.80628">
        <ele>325.3</ele>
        <time>2020-07-07T10:07:09Z</time>
      </trkpt>
      <trkpt lat="47.02788" lon="5.80626">
        <ele>323.3</ele>
        <time>2020-07-07T10:07:47Z</time>
      </trkpt>
      <trkpt lat="47.0279" lon="5.80632">
        <ele>322.7</ele>
        <time>2020-07-07T10:07:56Z</time>
      </trkpt>
      <trkpt lat="47.02786" lon="5.80629">
        <ele>319.8</ele>
        <time>2020-07-07T10:08:15Z</time>
      </trkpt>
      <trkpt lat="47.02791" lon="5.80631">
        <ele>317.1</ele>
        <time>2020-07-07T10:08:27Z</time>
      </trkpt>
      <trkpt lat="47.02796" lon="5.80631">
        <ele>316.5</ele>
        <time>2020-07-07T10:08:32Z</time>
      </trkpt>
      <trkpt lat="47.02792" lon="5.80636">
        <ele>314.9</ele>
        <time>2020-07-07T10:08:52Z</time>
      </trkpt>
      <trkpt lat="47.02788" lon="5.80638">
        <ele>314.4</ele>
        <time>2020-07-07T10:09:04Z</time>
      </trkpt>
      <trkpt lat="47.02783" lon="5.80637">
        <ele>313.3</ele>
        <time>2020-07-07T10:09:49Z</time>
      </trkpt>
      <trkpt lat="47.02788" lon="5.80635">
        <ele>312.5</ele>
        <time>2020-07-07T10:10:13Z</time>
      </trkpt>
      <trkpt lat="47.02793" lon="5.80633">
        <ele>331</ele>
        <time>2020-07-07T10:47:16Z</time>
      </trkpt>
      <trkpt lat="47.02789" lon="5.80637">
        <ele>330.5</ele>
        <time>2020-07-07T10:47:39Z</time>
      </trkpt>
      <trkpt lat="47.02784" lon="5.80635">
        <ele>330.5</ele>
        <time>2020-07-07T10:47:44Z</time>
      </trkpt>
      <trkpt lat="47.02779" lon="5.8063">
        <ele>330.6</ele>
        <time>2020-07-07T10:47:49Z</time>
      </trkpt>
      <trkpt lat="47.02774" lon="5.80626">
        <ele>331</ele>
        <time>2020-07-07T10:47:54Z</time>
      </trkpt>
      <trkpt lat="47.02769" lon="5.80624">
        <ele>331.3</ele>
        <time>2020-07-07T10:47:59Z</time>
      </trkpt>
      <trkpt lat="47.02764" lon="5.80624">
        <ele>331.5</ele>
        <time>2020-07-07T10:48:04Z</time>
      </trkpt>
      <trkpt lat="47.02759" lon="5.80622">
        <ele>331.6</ele>
        <time>2020-07-07T10:48:09Z</time>
      </trkpt>
      <trkpt lat="47.02755" lon="5.80619">
        <ele>331.7</ele>
        <time>2020-07-07T10:48:15Z</time>
      </trkpt>
      <trkpt lat="47.0275" lon="5.80617">
        <ele>331.8</ele>
        <time>2020-07-07T10:48:21Z</time>
      </trkpt>
      <trkpt lat="47.02746" lon="5.80613">
        <ele>331.8</ele>
        <time>2020-07-07T10:48:28Z</time>
      </trkpt>
      <trkpt lat="47.02741" lon="5.8061">
        <ele>332</ele>
        <time>2020-07-07T10:48:32Z</time>
      </trkpt>
      <trkpt lat="47.02737" lon="5.80607">
        <ele>332.2</ele>
        <time>2020-07-07T10:48:37Z</time>
      </trkpt>
      <trkpt lat="47.02732" lon="5.80606">
        <ele>332.3</ele>
        <time>2020-07-07T10:48:42Z</time>
      </trkpt>
      <trkpt lat="47.02727" lon="5.80606">
        <ele>332.4</ele>
        <time>2020-07-07T10:48:49Z</time>
      </trkpt>
      <trkpt lat="47.02723" lon="5.80601">
        <ele>331.5</ele>
        <time>2020-07-07T10:49:01Z</time>
      </trkpt>
      <trkpt lat="47.02719" lon="5.80598">
        <ele>326.3</ele>
        <time>2020-07-07T10:49:35Z</time>
      </trkpt>
      <trkpt lat="47.02715" lon="5.80594">
        <ele>324.2</ele>
        <time>2020-07-07T10:49:42Z</time>
      </trkpt>
      <trkpt lat="47.0271" lon="5.80593">
        <ele>322.1</ele>
        <time>2020-07-07T10:49:51Z</time>
      </trkpt>
      <trkpt lat="47.02705" lon="5.80595">
        <ele>321.3</ele>
        <time>2020-07-07T10:49:57Z</time>
      </trkpt>
      <trkpt lat="47.027" lon="5.80599">
        <ele>321.1</ele>
        <time>2020-07-07T10:50:02Z</time>
      </trkpt>
      <trkpt lat="47.02696" lon="5.80603">
        <ele>321</ele>
        <time>2020-07-07T10:50:09Z</time>
      </trkpt>
      <trkpt lat="47.02692" lon="5.80605">
        <ele>320.7</ele>
        <time>2020-07-07T10:50:14Z</time>
      </trkpt>
      <trkpt lat="47.02688" lon="5.80609">
        <ele>320.3</ele>
        <time>2020-07-07T10:50:19Z</time>
      </trkpt>
      <trkpt lat="47.02683" lon="5.80611">
        <ele>319.6</ele>
        <time>2020-07-07T10:50:24Z</time>
      </trkpt>
      <trkpt lat="47.02679" lon="5.80614">
        <ele>318.5</ele>
        <time>2020-07-07T10:50:33Z</time>
      </trkpt>
      <trkpt lat="47.02674" lon="5.80615">
        <ele>317</ele>
        <time>2020-07-07T10:50:42Z</time>
      </trkpt>
      <trkpt lat="47.02669" lon="5.80615">
        <ele>315.4</ele>
        <time>2020-07-07T10:50:48Z</time>
      </trkpt>
      <trkpt lat="47.02665" lon="5.80617">
        <ele>314</ele>
        <time>2020-07-07T10:50:53Z</time>
      </trkpt>
      <trkpt lat="47.02661" lon="5.8062">
        <ele>312.6</ele>
        <time>2020-07-07T10:50:58Z</time>
      </trkpt>
      <trkpt lat="47.02656" lon="5.80623">
        <ele>311.5</ele>
        <time>2020-07-07T10:51:03Z</time>
      </trkpt>
      <trkpt lat="47.02652" lon="5.80625">
        <ele>310.6</ele>
        <time>2020-07-07T10:51:09Z</time>
      </trkpt>
      <trkpt lat="47.02647" lon="5.80627">
        <ele>310.2</ele>
        <time>2020-07-07T10:51:14Z</time>
      </trkpt>
      <trkpt lat="47.02642" lon="5.80628">
        <ele>310</ele>
        <time>2020-07-07T10:51:20Z</time>
      </trkpt>
      <trkpt lat="47.02637" lon="5.80629">
        <ele>310.1</ele>
        <time>2020-07-07T10:51:24Z</time>
      </trkpt>
      <trkpt lat="47.02632" lon="5.8063">
        <ele>310.3</ele>
        <time>2020-07-07T10:51:28Z</time>
      </trkpt>
      <trkpt lat="47.02627" lon="5.80632">
        <ele>310.3</ele>
        <time>2020-07-07T10:51:34Z</time>
      </trkpt>
      <trkpt lat="47.02622" lon="5.80632">
        <ele>310.4</ele>
        <time>2020-07-07T10:51:39Z</time>
      </trkpt>
      <trkpt lat="47.02617" lon="5.80631">
        <ele>310.5</ele>
        <time>2020-07-07T10:51:45Z</time>
      </trkpt>
      <trkpt lat="47.02611" lon="5.80631">
        <ele>310.4</ele>
        <time>2020-07-07T10:51:51Z</time>
      </trkpt>
      <trkpt lat="47.02607" lon="5.8063">
        <ele>310.1</ele>
        <time>2020-07-07T10:51:56Z</time>
      </trkpt>
      <trkpt lat="47.02602" lon="5.8063">
        <ele>309.5</ele>
        <time>2020-07-07T10:52:03Z</time>
      </trkpt>
      <trkpt lat="47.02597" lon="5.8063">
        <ele>309.1</ele>
        <time>2020-07-07T10:52:08Z</time>
      </trkpt>
      <trkpt lat="47.02592" lon="5.80631">
        <ele>308.7</ele>
        <time>2020-07-07T10:52:13Z</time>
      </trkpt>
      <trkpt lat="47.02587" lon="5.8063">
        <ele>308.5</ele>
        <time>2020-07-07T10:52:18Z</time>
      </trkpt>
      <trkpt lat="47.02578" lon="5.80631">
        <ele>307.1</ele>
        <time>2020-07-07T10:53:06Z</time>
      </trkpt>
      <trkpt lat="47.02573" lon="5.80631">
        <ele>307.1</ele>
        <time>2020-07-07T10:53:09Z</time>
      </trkpt>
      <trkpt lat="47.02569" lon="5.80631">
        <ele>307</ele>
        <time>2020-07-07T10:53:12Z</time>
      </trkpt>
      <trkpt lat="47.02564" lon="5.8063">
        <ele>306.9</ele>
        <time>2020-07-07T10:53:16Z</time>
      </trkpt>
      <trkpt lat="47.02559" lon="5.8063">
        <ele>306.9</ele>
        <time>2020-07-07T10:53:22Z</time>
      </trkpt>
      <trkpt lat="47.02554" lon="5.8063">
        <ele>307</ele>
        <time>2020-07-07T10:53:28Z</time>
      </trkpt>
      <trkpt lat="47.02549" lon="5.80628">
        <ele>307.3</ele>
        <time>2020-07-07T10:53:35Z</time>
      </trkpt>
      <trkpt lat="47.02544" lon="5.80626">
        <ele>307.4</ele>
        <time>2020-07-07T10:53:41Z</time>
      </trkpt>
      <trkpt lat="47.02539" lon="5.80623">
        <ele>307.6</ele>
        <time>2020-07-07T10:53:46Z</time>
      </trkpt>
      <trkpt lat="47.02534" lon="5.80621">
        <ele>308</ele>
        <time>2020-07-07T10:53:52Z</time>
      </trkpt>
      <trkpt lat="47.0253" lon="5.80618">
        <ele>308.2</ele>
        <time>2020-07-07T10:53:56Z</time>
      </trkpt>
      <trkpt lat="47.02525" lon="5.80616">
        <ele>308.5</ele>
        <time>2020-07-07T10:54:01Z</time>
      </trkpt>
      <trkpt lat="47.02521" lon="5.80615">
        <ele>308.9</ele>
        <time>2020-07-07T10:54:08Z</time>
      </trkpt>
      <trkpt lat="47.02516" lon="5.80613">
        <ele>309</ele>
        <time>2020-07-07T10:54:13Z</time>
      </trkpt>
      <trkpt lat="47.02512" lon="5.80609">
        <ele>309.1</ele>
        <time>2020-07-07T10:54:17Z</time>
      </trkpt>
      <trkpt lat="47.02508" lon="5.80606">
        <ele>309.1</ele>
        <time>2020-07-07T10:54:21Z</time>
      </trkpt>
      <trkpt lat="47.02504" lon="5.80601">
        <ele>309.2</ele>
        <time>2020-07-07T10:54:26Z</time>
      </trkpt>
      <trkpt lat="47.025" lon="5.80598">
        <ele>309.2</ele>
        <time>2020-07-07T10:54:31Z</time>
      </trkpt>
      <trkpt lat="47.02496" lon="5.80594">
        <ele>309.1</ele>
        <time>2020-07-07T10:54:38Z</time>
      </trkpt>
      <trkpt lat="47.0249" lon="5.8059">
        <ele>309</ele>
        <time>2020-07-07T10:54:43Z</time>
      </trkpt>
      <trkpt lat="47.02486" lon="5.80588">
        <ele>309</ele>
        <time>2020-07-07T10:54:46Z</time>
      </trkpt>
      <trkpt lat="47.02481" lon="5.80585">
        <ele>308.8</ele>
        <time>2020-07-07T10:54:51Z</time>
      </trkpt>
      <trkpt lat="47.02477" lon="5.80581">
        <ele>308.4</ele>
        <time>2020-07-07T10:54:58Z</time>
      </trkpt>
      <trkpt lat="47.02473" lon="5.80575">
        <ele>307.6</ele>
        <time>2020-07-07T10:55:04Z</time>
      </trkpt>
      <trkpt lat="47.02469" lon="5.8057">
        <ele>306.9</ele>
        <time>2020-07-07T10:55:07Z</time>
      </trkpt>
      <trkpt lat="47.02466" lon="5.80564">
        <ele>305.5</ele>
        <time>2020-07-07T10:55:12Z</time>
      </trkpt>
      <trkpt lat="47.02463" lon="5.80559">
        <ele>303.9</ele>
        <time>2020-07-07T10:55:17Z</time>
      </trkpt>
      <trkpt lat="47.02459" lon="5.80555">
        <ele>301.5</ele>
        <time>2020-07-07T10:55:24Z</time>
      </trkpt>
      <trkpt lat="47.02455" lon="5.8055">
        <ele>299.8</ele>
        <time>2020-07-07T10:55:29Z</time>
      </trkpt>
      <trkpt lat="47.02451" lon="5.80546">
        <ele>298.5</ele>
        <time>2020-07-07T10:55:32Z</time>
      </trkpt>
      <trkpt lat="47.02448" lon="5.80539">
        <ele>296.7</ele>
        <time>2020-07-07T10:55:36Z</time>
      </trkpt>
      <trkpt lat="47.02445" lon="5.80534">
        <ele>292.9</ele>
        <time>2020-07-07T10:55:45Z</time>
      </trkpt>
      <trkpt lat="47.02441" lon="5.80533">
        <ele>290.8</ele>
        <time>2020-07-07T10:55:51Z</time>
      </trkpt>
      <trkpt lat="47.02436" lon="5.80534">
        <ele>290</ele>
        <time>2020-07-07T10:55:54Z</time>
      </trkpt>
      <trkpt lat="47.02431" lon="5.80536">
        <ele>289.1</ele>
        <time>2020-07-07T10:56:04Z</time>
      </trkpt>
      <trkpt lat="47.02428" lon="5.80541">
        <ele>289.6</ele>
        <time>2020-07-07T10:56:14Z</time>
      </trkpt>
      <trkpt lat="47.02425" lon="5.80546">
        <ele>290.8</ele>
        <time>2020-07-07T10:56:23Z</time>
      </trkpt>
      <trkpt lat="47.02419" lon="5.80543">
        <ele>290.5</ele>
        <time>2020-07-07T10:56:38Z</time>
      </trkpt>
      <trkpt lat="47.02414" lon="5.80537">
        <ele>290.6</ele>
        <time>2020-07-07T10:56:41Z</time>
      </trkpt>
      <trkpt lat="47.02409" lon="5.80535">
        <ele>290.7</ele>
        <time>2020-07-07T10:56:44Z</time>
      </trkpt>
      <trkpt lat="47.02404" lon="5.80532">
        <ele>291</ele>
        <time>2020-07-07T10:56:50Z</time>
      </trkpt>
      <trkpt lat="47.024" lon="5.80529">
        <ele>290.9</ele>
        <time>2020-07-07T10:56:58Z</time>
      </trkpt>
      <trkpt lat="47.02396" lon="5.80524">
        <ele>289.8</ele>
        <time>2020-07-07T10:57:10Z</time>
      </trkpt>
      <trkpt lat="47.02392" lon="5.80519">
        <ele>289.6</ele>
        <time>2020-07-07T10:57:14Z</time>
      </trkpt>
      <trkpt lat="47.02388" lon="5.80514">
        <ele>289.1</ele>
        <time>2020-07-07T10:57:24Z</time>
      </trkpt>
      <trkpt lat="47.02383" lon="5.80512">
        <ele>288.6</ele>
        <time>2020-07-07T10:57:28Z</time>
      </trkpt>
      <trkpt lat="47.02378" lon="5.80508">
        <ele>288</ele>
        <time>2020-07-07T10:57:33Z</time>
      </trkpt>
      <trkpt lat="47.02374" lon="5.80504">
        <ele>287.6</ele>
        <time>2020-07-07T10:57:36Z</time>
      </trkpt>
      <trkpt lat="47.02369" lon="5.80501">
        <ele>286.8</ele>
        <time>2020-07-07T10:57:42Z</time>
      </trkpt>
      <trkpt lat="47.02365" lon="5.80498">
        <ele>286.4</ele>
        <time>2020-07-07T10:57:46Z</time>
      </trkpt>
      <trkpt lat="47.02361" lon="5.80494">
        <ele>285.8</ele>
        <time>2020-07-07T10:57:50Z</time>
      </trkpt>
      <trkpt lat="47.02357" lon="5.80491">
        <ele>285</ele>
        <time>2020-07-07T10:57:55Z</time>
      </trkpt>
      <trkpt lat="47.02352" lon="5.80487">
        <ele>283.8</ele>
        <time>2020-07-07T10:58:01Z</time>
      </trkpt>
      <trkpt lat="47.02348" lon="5.80483">
        <ele>282.6</ele>
        <time>2020-07-07T10:58:06Z</time>
      </trkpt>
      <trkpt lat="47.02343" lon="5.8048">
        <ele>281.3</ele>
        <time>2020-07-07T10:58:11Z</time>
      </trkpt>
      <trkpt lat="47.02339" lon="5.80478">
        <ele>280.2</ele>
        <time>2020-07-07T10:58:15Z</time>
      </trkpt>
      <trkpt lat="47.02334" lon="5.80475">
        <ele>278.5</ele>
        <time>2020-07-07T10:58:20Z</time>
      </trkpt>
      <trkpt lat="47.02329" lon="5.80472">
        <ele>276.6</ele>
        <time>2020-07-07T10:58:25Z</time>
      </trkpt>
      <trkpt lat="47.02324" lon="5.80468">
        <ele>274.7</ele>
        <time>2020-07-07T10:58:30Z</time>
      </trkpt>
      <trkpt lat="47.0232" lon="5.80465">
        <ele>272.8</ele>
        <time>2020-07-07T10:58:35Z</time>
      </trkpt>
      <trkpt lat="47.02315" lon="5.80461">
        <ele>270.6</ele>
        <time>2020-07-07T10:58:41Z</time>
      </trkpt>
      <trkpt lat="47.0231" lon="5.80458">
        <ele>268.6</ele>
        <time>2020-07-07T10:58:47Z</time>
      </trkpt>
      <trkpt lat="47.02306" lon="5.80454">
        <ele>267.1</ele>
        <time>2020-07-07T10:58:52Z</time>
      </trkpt>
      <trkpt lat="47.02302" lon="5.8045">
        <ele>266</ele>
        <time>2020-07-07T10:58:56Z</time>
      </trkpt>
      <trkpt lat="47.02298" lon="5.80446">
        <ele>264.8</ele>
        <time>2020-07-07T10:59:01Z</time>
      </trkpt>
      <trkpt lat="47.02294" lon="5.80443">
        <ele>264.2</ele>
        <time>2020-07-07T10:59:05Z</time>
      </trkpt>
      <trkpt lat="47.0228" lon="5.80432">
        <ele>262.1</ele>
        <time>2020-07-07T10:59:17Z</time>
      </trkpt>
      <trkpt lat="47.02275" lon="5.8043">
        <ele>261.5</ele>
        <time>2020-07-07T10:59:23Z</time>
      </trkpt>
      <trkpt lat="47.0227" lon="5.80429">
        <ele>260.7</ele>
        <time>2020-07-07T10:59:30Z</time>
      </trkpt>
      <trkpt lat="47.02266" lon="5.80425">
        <ele>259.8</ele>
        <time>2020-07-07T10:59:35Z</time>
      </trkpt>
      <trkpt lat="47.02262" lon="5.80421">
        <ele>258.9</ele>
        <time>2020-07-07T10:59:40Z</time>
      </trkpt>
      <trkpt lat="47.02259" lon="5.80416">
        <ele>258.4</ele>
        <time>2020-07-07T10:59:45Z</time>
      </trkpt>
      <trkpt lat="47.02255" lon="5.80411">
        <ele>258.2</ele>
        <time>2020-07-07T10:59:51Z</time>
      </trkpt>
      <trkpt lat="47.02252" lon="5.80407">
        <ele>258.2</ele>
        <time>2020-07-07T10:59:55Z</time>
      </trkpt>
      <trkpt lat="47.02248" lon="5.80403">
        <ele>258.2</ele>
        <time>2020-07-07T11:00:00Z</time>
      </trkpt>
      <trkpt lat="47.02243" lon="5.80401">
        <ele>258.3</ele>
        <time>2020-07-07T11:00:07Z</time>
      </trkpt>
      <trkpt lat="47.02239" lon="5.80397">
        <ele>257.9</ele>
        <time>2020-07-07T11:00:12Z</time>
      </trkpt>
      <trkpt lat="47.02234" lon="5.80393">
        <ele>257.4</ele>
        <time>2020-07-07T11:00:18Z</time>
      </trkpt>
      <trkpt lat="47.0223" lon="5.8039">
        <ele>256.8</ele>
        <time>2020-07-07T11:00:23Z</time>
      </trkpt>
      <trkpt lat="47.02226" lon="5.80385">
        <ele>256.1</ele>
        <time>2020-07-07T11:00:27Z</time>
      </trkpt>
      <trkpt lat="47.02223" lon="5.80381">
        <ele>255.3</ele>
        <time>2020-07-07T11:00:31Z</time>
      </trkpt>
      <trkpt lat="47.02219" lon="5.80376">
        <ele>254.6</ele>
        <time>2020-07-07T11:00:35Z</time>
      </trkpt>
      <trkpt lat="47.02216" lon="5.80372">
        <ele>254.2</ele>
        <time>2020-07-07T11:00:42Z</time>
      </trkpt>
      <trkpt lat="47.02208" lon="5.80362">
        <ele>253.7</ele>
        <time>2020-07-07T11:00:52Z</time>
      </trkpt>
      <trkpt lat="47.02205" lon="5.80358">
        <ele>253.5</ele>
        <time>2020-07-07T11:00:55Z</time>
      </trkpt>
      <trkpt lat="47.02201" lon="5.80353">
        <ele>252.9</ele>
        <time>2020-07-07T11:01:00Z</time>
      </trkpt>
      <trkpt lat="47.02197" lon="5.80349">
        <ele>252.3</ele>
        <time>2020-07-07T11:01:04Z</time>
      </trkpt>
      <trkpt lat="47.02193" lon="5.80346">
        <ele>251.4</ele>
        <time>2020-07-07T11:01:09Z</time>
      </trkpt>
      <trkpt lat="47.02189" lon="5.80342">
        <ele>250.5</ele>
        <time>2020-07-07T11:01:14Z</time>
      </trkpt>
      <trkpt lat="47.02185" lon="5.80336">
        <ele>249.7</ele>
        <time>2020-07-07T11:01:18Z</time>
      </trkpt>
      <trkpt lat="47.02182" lon="5.8033">
        <ele>248.9</ele>
        <time>2020-07-07T11:01:24Z</time>
      </trkpt>
      <trkpt lat="47.02179" lon="5.80325">
        <ele>248.5</ele>
        <time>2020-07-07T11:01:29Z</time>
      </trkpt>
      <trkpt lat="47.02175" lon="5.80319">
        <ele>248.3</ele>
        <time>2020-07-07T11:01:35Z</time>
      </trkpt>
      <trkpt lat="47.02171" lon="5.80315">
        <ele>248.3</ele>
        <time>2020-07-07T11:01:40Z</time>
      </trkpt>
      <trkpt lat="47.02167" lon="5.80311">
        <ele>248.3</ele>
        <time>2020-07-07T11:01:45Z</time>
      </trkpt>
      <trkpt lat="47.02162" lon="5.80312">
        <ele>247.6</ele>
        <time>2020-07-07T11:01:55Z</time>
      </trkpt>
      <trkpt lat="47.02158" lon="5.80314">
        <ele>246.8</ele>
        <time>2020-07-07T11:02:01Z</time>
      </trkpt>
      <trkpt lat="47.02152" lon="5.80314">
        <ele>246.2</ele>
        <time>2020-07-07T11:02:05Z</time>
      </trkpt>
      <trkpt lat="47.02147" lon="5.80314">
        <ele>245.5</ele>
        <time>2020-07-07T11:02:09Z</time>
      </trkpt>
      <trkpt lat="47.02133" lon="5.80315">
        <ele>242.1</ele>
        <time>2020-07-07T11:02:25Z</time>
      </trkpt>
      <trkpt lat="47.02128" lon="5.80312">
        <ele>241.5</ele>
        <time>2020-07-07T11:02:30Z</time>
      </trkpt>
      <trkpt lat="47.02123" lon="5.8031">
        <ele>241.1</ele>
        <time>2020-07-07T11:02:34Z</time>
      </trkpt>
      <trkpt lat="47.02121" lon="5.80303">
        <ele>240.7</ele>
        <time>2020-07-07T11:02:41Z</time>
      </trkpt>
      <trkpt lat="47.02117" lon="5.80298">
        <ele>241</ele>
        <time>2020-07-07T11:02:47Z</time>
      </trkpt>
      <trkpt lat="47.02114" lon="5.80293">
        <ele>243.5</ele>
        <time>2020-07-07T11:02:59Z</time>
      </trkpt>
      <trkpt lat="47.02109" lon="5.80295">
        <ele>245.5</ele>
        <time>2020-07-07T11:03:06Z</time>
      </trkpt>
      <trkpt lat="47.02104" lon="5.80298">
        <ele>247.3</ele>
        <time>2020-07-07T11:03:13Z</time>
      </trkpt>
      <trkpt lat="47.02099" lon="5.80301">
        <ele>248.2</ele>
        <time>2020-07-07T11:03:18Z</time>
      </trkpt>
      <trkpt lat="47.02095" lon="5.80304">
        <ele>248.7</ele>
        <time>2020-07-07T11:03:22Z</time>
      </trkpt>
      <trkpt lat="47.0209" lon="5.80305">
        <ele>249.1</ele>
        <time>2020-07-07T11:03:28Z</time>
      </trkpt>
      <trkpt lat="47.02085" lon="5.80303">
        <ele>249.1</ele>
        <time>2020-07-07T11:03:33Z</time>
      </trkpt>
      <trkpt lat="47.0208" lon="5.80304">
        <ele>249.2</ele>
        <time>2020-07-07T11:03:38Z</time>
      </trkpt>
      <trkpt lat="47.02075" lon="5.80304">
        <ele>249.2</ele>
        <time>2020-07-07T11:03:43Z</time>
      </trkpt>
      <trkpt lat="47.0207" lon="5.80303">
        <ele>249.3</ele>
        <time>2020-07-07T11:03:47Z</time>
      </trkpt>
      <trkpt lat="47.02064" lon="5.80304">
        <ele>249.6</ele>
        <time>2020-07-07T11:03:51Z</time>
      </trkpt>
      <trkpt lat="47.02059" lon="5.80305">
        <ele>249.9</ele>
        <time>2020-07-07T11:03:54Z</time>
      </trkpt>
      <trkpt lat="47.02055" lon="5.80306">
        <ele>250.9</ele>
        <time>2020-07-07T11:03:59Z</time>
      </trkpt>
      <trkpt lat="47.0205" lon="5.80307">
        <ele>252.1</ele>
        <time>2020-07-07T11:04:03Z</time>
      </trkpt>
      <trkpt lat="47.02045" lon="5.80309">
        <ele>253.4</ele>
        <time>2020-07-07T11:04:07Z</time>
      </trkpt>
      <trkpt lat="47.0204" lon="5.80311">
        <ele>254.3</ele>
        <time>2020-07-07T11:04:10Z</time>
      </trkpt>
      <trkpt lat="47.02035" lon="5.80313">
        <ele>255.4</ele>
        <time>2020-07-07T11:04:14Z</time>
      </trkpt>
      <trkpt lat="47.02031" lon="5.80317">
        <ele>256.2</ele>
        <time>2020-07-07T11:04:17Z</time>
      </trkpt>
      <trkpt lat="47.02026" lon="5.8032">
        <ele>257.2</ele>
        <time>2020-07-07T11:04:21Z</time>
      </trkpt>
      <trkpt lat="47.02021" lon="5.80321">
        <ele>258.2</ele>
        <time>2020-07-07T11:04:26Z</time>
      </trkpt>
      <trkpt lat="47.02016" lon="5.80322">
        <ele>259</ele>
        <time>2020-07-07T11:04:31Z</time>
      </trkpt>
      <trkpt lat="47.02011" lon="5.80323">
        <ele>259.9</ele>
        <time>2020-07-07T11:04:36Z</time>
      </trkpt>
      <trkpt lat="47.02005" lon="5.80324">
        <ele>261</ele>
        <time>2020-07-07T11:04:41Z</time>
      </trkpt>
      <trkpt lat="47.02" lon="5.80324">
        <ele>262.2</ele>
        <time>2020-07-07T11:04:46Z</time>
      </trkpt>
      <trkpt lat="47.01996" lon="5.80325">
        <ele>263.3</ele>
        <time>2020-07-07T11:04:52Z</time>
      </trkpt>
      <trkpt lat="47.01991" lon="5.80324">
        <ele>264.3</ele>
        <time>2020-07-07T11:04:57Z</time>
      </trkpt>
      <trkpt lat="47.01981" lon="5.80321">
        <ele>266.3</ele>
        <time>2020-07-07T11:05:08Z</time>
      </trkpt>
      <trkpt lat="47.01976" lon="5.80318">
        <ele>266.2</ele>
        <time>2020-07-07T11:05:13Z</time>
      </trkpt>
      <trkpt lat="47.01972" lon="5.80315">
        <ele>265.7</ele>
        <time>2020-07-07T11:05:18Z</time>
      </trkpt>
      <trkpt lat="47.01968" lon="5.80312">
        <ele>265.1</ele>
        <time>2020-07-07T11:05:23Z</time>
      </trkpt>
      <trkpt lat="47.01964" lon="5.80306">
        <ele>264.5</ele>
        <time>2020-07-07T11:05:27Z</time>
      </trkpt>
      <trkpt lat="47.0196" lon="5.80302">
        <ele>263.4</ele>
        <time>2020-07-07T11:05:33Z</time>
      </trkpt>
      <trkpt lat="47.01955" lon="5.80303">
        <ele>263</ele>
        <time>2020-07-07T11:05:36Z</time>
      </trkpt>
      <trkpt lat="47.01951" lon="5.80305">
        <ele>263</ele>
        <time>2020-07-07T11:05:38Z</time>
      </trkpt>
      <trkpt lat="47.01946" lon="5.80308">
        <ele>263.1</ele>
        <time>2020-07-07T11:05:40Z</time>
      </trkpt>
      <trkpt lat="47.01941" lon="5.80311">
        <ele>263.4</ele>
        <time>2020-07-07T11:05:43Z</time>
      </trkpt>
      <trkpt lat="47.01936" lon="5.8031">
        <ele>264.3</ele>
        <time>2020-07-07T11:05:48Z</time>
      </trkpt>
      <trkpt lat="47.01924" lon="5.80308">
        <ele>268.5</ele>
        <time>2020-07-07T11:06:04Z</time>
      </trkpt>
      <trkpt lat="47.01921" lon="5.80303">
        <ele>269.2</ele>
        <time>2020-07-07T11:06:09Z</time>
      </trkpt>
      <trkpt lat="47.01917" lon="5.80299">
        <ele>269.9</ele>
        <time>2020-07-07T11:06:13Z</time>
      </trkpt>
      <trkpt lat="47.01912" lon="5.80296">
        <ele>270.4</ele>
        <time>2020-07-07T11:06:16Z</time>
      </trkpt>
      <trkpt lat="47.01907" lon="5.80294">
        <ele>271.1</ele>
        <time>2020-07-07T11:06:20Z</time>
      </trkpt>
      <trkpt lat="47.01902" lon="5.80292">
        <ele>272.1</ele>
        <time>2020-07-07T11:06:25Z</time>
      </trkpt>
      <trkpt lat="47.01897" lon="5.80289">
        <ele>273.3</ele>
        <time>2020-07-07T11:06:30Z</time>
      </trkpt>
      <trkpt lat="47.01886" lon="5.8028">
        <ele>276.5</ele>
        <time>2020-07-07T11:06:42Z</time>
      </trkpt>
      <trkpt lat="47.01882" lon="5.80276">
        <ele>277</ele>
        <time>2020-07-07T11:06:49Z</time>
      </trkpt>
      <trkpt lat="47.01879" lon="5.80271">
        <ele>277.5</ele>
        <time>2020-07-07T11:06:54Z</time>
      </trkpt>
      <trkpt lat="47.01875" lon="5.80266">
        <ele>278.1</ele>
        <time>2020-07-07T11:07:00Z</time>
      </trkpt>
      <trkpt lat="47.01874" lon="5.80258">
        <ele>278.6</ele>
        <time>2020-07-07T11:07:05Z</time>
      </trkpt>
      <trkpt lat="47.01869" lon="5.80256">
        <ele>279</ele>
        <time>2020-07-07T11:07:10Z</time>
      </trkpt>
      <trkpt lat="47.01864" lon="5.80256">
        <ele>279.5</ele>
        <time>2020-07-07T11:07:15Z</time>
      </trkpt>
      <trkpt lat="47.01858" lon="5.80255">
        <ele>280.1</ele>
        <time>2020-07-07T11:07:19Z</time>
      </trkpt>
      <trkpt lat="47.01853" lon="5.80255">
        <ele>280.7</ele>
        <time>2020-07-07T11:07:22Z</time>
      </trkpt>
      <trkpt lat="47.01848" lon="5.80254">
        <ele>281.6</ele>
        <time>2020-07-07T11:07:26Z</time>
      </trkpt>
      <trkpt lat="47.01843" lon="5.80253">
        <ele>282.6</ele>
        <time>2020-07-07T11:07:30Z</time>
      </trkpt>
      <trkpt lat="47.01828" lon="5.80247">
        <ele>285.1</ele>
        <time>2020-07-07T11:07:45Z</time>
      </trkpt>
      <trkpt lat="47.0183" lon="5.80253">
        <ele>284.8</ele>
        <time>2020-07-07T11:07:52Z</time>
      </trkpt>
      <trkpt lat="47.01825" lon="5.80253">
        <ele>284</ele>
        <time>2020-07-07T11:08:01Z</time>
      </trkpt>
      <trkpt lat="47.0182" lon="5.80251">
        <ele>283.7</ele>
        <time>2020-07-07T11:08:05Z</time>
      </trkpt>
      <trkpt lat="47.01813" lon="5.80247">
        <ele>283.6</ele>
        <time>2020-07-07T11:08:07Z</time>
      </trkpt>
      <trkpt lat="47.01808" lon="5.80244">
        <ele>283.5</ele>
        <time>2020-07-07T11:08:10Z</time>
      </trkpt>
      <trkpt lat="47.01802" lon="5.80241">
        <ele>283.5</ele>
        <time>2020-07-07T11:08:14Z</time>
      </trkpt>
      <trkpt lat="47.01798" lon="5.80237">
        <ele>283.6</ele>
        <time>2020-07-07T11:08:18Z</time>
      </trkpt>
      <trkpt lat="47.01793" lon="5.80233">
        <ele>283.7</ele>
        <time>2020-07-07T11:08:23Z</time>
      </trkpt>
      <trkpt lat="47.01788" lon="5.8023">
        <ele>284.1</ele>
        <time>2020-07-07T11:08:28Z</time>
      </trkpt>
      <trkpt lat="47.01783" lon="5.80228">
        <ele>284.5</ele>
        <time>2020-07-07T11:08:32Z</time>
      </trkpt>
      <trkpt lat="47.01779" lon="5.80225">
        <ele>285.1</ele>
        <time>2020-07-07T11:08:37Z</time>
      </trkpt>
      <trkpt lat="47.01774" lon="5.80223">
        <ele>285.7</ele>
        <time>2020-07-07T11:08:42Z</time>
      </trkpt>
      <trkpt lat="47.01769" lon="5.80221">
        <ele>286.3</ele>
        <time>2020-07-07T11:08:47Z</time>
      </trkpt>
      <trkpt lat="47.01764" lon="5.8022">
        <ele>286.6</ele>
        <time>2020-07-07T11:08:52Z</time>
      </trkpt>
      <trkpt lat="47.01759" lon="5.80219">
        <ele>287</ele>
        <time>2020-07-07T11:08:57Z</time>
      </trkpt>
      <trkpt lat="47.01754" lon="5.80216">
        <ele>287.6</ele>
        <time>2020-07-07T11:09:03Z</time>
      </trkpt>
      <trkpt lat="47.0175" lon="5.80213">
        <ele>287.6</ele>
        <time>2020-07-07T11:09:13Z</time>
      </trkpt>
      <trkpt lat="47.01744" lon="5.8021">
        <ele>287.3</ele>
        <time>2020-07-07T11:09:18Z</time>
      </trkpt>
      <trkpt lat="47.0174" lon="5.80206">
        <ele>287.2</ele>
        <time>2020-07-07T11:09:23Z</time>
      </trkpt>
      <trkpt lat="47.01735" lon="5.80203">
        <ele>287.5</ele>
        <time>2020-07-07T11:09:28Z</time>
      </trkpt>
      <trkpt lat="47.0173" lon="5.802">
        <ele>287.6</ele>
        <time>2020-07-07T11:09:32Z</time>
      </trkpt>
      <trkpt lat="47.01725" lon="5.80196">
        <ele>287.8</ele>
        <time>2020-07-07T11:09:36Z</time>
      </trkpt>
      <trkpt lat="47.01722" lon="5.80191">
        <ele>288</ele>
        <time>2020-07-07T11:09:41Z</time>
      </trkpt>
      <trkpt lat="47.01717" lon="5.8019">
        <ele>288.3</ele>
        <time>2020-07-07T11:09:45Z</time>
      </trkpt>
      <trkpt lat="47.01712" lon="5.80188">
        <ele>288.8</ele>
        <time>2020-07-07T11:09:50Z</time>
      </trkpt>
      <trkpt lat="47.01709" lon="5.80183">
        <ele>289.1</ele>
        <time>2020-07-07T11:09:55Z</time>
      </trkpt>
      <trkpt lat="47.01696" lon="5.80164">
        <ele>290.2</ele>
        <time>2020-07-07T11:10:10Z</time>
      </trkpt>
      <trkpt lat="47.01692" lon="5.80161">
        <ele>290.7</ele>
        <time>2020-07-07T11:10:14Z</time>
      </trkpt>
      <trkpt lat="47.01688" lon="5.80157">
        <ele>291.2</ele>
        <time>2020-07-07T11:10:18Z</time>
      </trkpt>
      <trkpt lat="47.01684" lon="5.80153">
        <ele>292.2</ele>
        <time>2020-07-07T11:10:24Z</time>
      </trkpt>
      <trkpt lat="47.01681" lon="5.80147">
        <ele>294.1</ele>
        <time>2020-07-07T11:10:32Z</time>
      </trkpt>
      <trkpt lat="47.01678" lon="5.80141">
        <ele>295.2</ele>
        <time>2020-07-07T11:10:36Z</time>
      </trkpt>
      <trkpt lat="47.01675" lon="5.80137">
        <ele>296.1</ele>
        <time>2020-07-07T11:10:40Z</time>
      </trkpt>
      <trkpt lat="47.0167" lon="5.80134">
        <ele>298.7</ele>
        <time>2020-07-07T11:10:50Z</time>
      </trkpt>
      <trkpt lat="47.01666" lon="5.8013">
        <ele>300</ele>
        <time>2020-07-07T11:10:55Z</time>
      </trkpt>
      <trkpt lat="47.01662" lon="5.80127">
        <ele>301</ele>
        <time>2020-07-07T11:10:59Z</time>
      </trkpt>
      <trkpt lat="47.01656" lon="5.80123">
        <ele>302.1</ele>
        <time>2020-07-07T11:11:04Z</time>
      </trkpt>
      <trkpt lat="47.01652" lon="5.80118">
        <ele>302.6</ele>
        <time>2020-07-07T11:11:07Z</time>
      </trkpt>
      <trkpt lat="47.01648" lon="5.80113">
        <ele>302.9</ele>
        <time>2020-07-07T11:11:11Z</time>
      </trkpt>
      <trkpt lat="47.01645" lon="5.80108">
        <ele>302.8</ele>
        <time>2020-07-07T11:11:15Z</time>
      </trkpt>
      <trkpt lat="47.01642" lon="5.80102">
        <ele>302.4</ele>
        <time>2020-07-07T11:11:19Z</time>
      </trkpt>
      <trkpt lat="47.01638" lon="5.80096">
        <ele>301.7</ele>
        <time>2020-07-07T11:11:23Z</time>
      </trkpt>
      <trkpt lat="47.01636" lon="5.80089">
        <ele>300.7</ele>
        <time>2020-07-07T11:11:27Z</time>
      </trkpt>
      <trkpt lat="47.01633" lon="5.80082">
        <ele>299.4</ele>
        <time>2020-07-07T11:11:31Z</time>
      </trkpt>
      <trkpt lat="47.0163" lon="5.80076">
        <ele>298</ele>
        <time>2020-07-07T11:11:35Z</time>
      </trkpt>
      <trkpt lat="47.01627" lon="5.8007">
        <ele>296.3</ele>
        <time>2020-07-07T11:11:39Z</time>
      </trkpt>
      <trkpt lat="47.01624" lon="5.80063">
        <ele>294.4</ele>
        <time>2020-07-07T11:11:43Z</time>
      </trkpt>
      <trkpt lat="47.01621" lon="5.80057">
        <ele>291.5</ele>
        <time>2020-07-07T11:11:49Z</time>
      </trkpt>
      <trkpt lat="47.01618" lon="5.80053">
        <ele>289.5</ele>
        <time>2020-07-07T11:11:53Z</time>
      </trkpt>
      <trkpt lat="47.01613" lon="5.80051">
        <ele>287.6</ele>
        <time>2020-07-07T11:11:57Z</time>
      </trkpt>
      <trkpt lat="47.01608" lon="5.8005">
        <ele>286.1</ele>
        <time>2020-07-07T11:12:01Z</time>
      </trkpt>
      <trkpt lat="47.01603" lon="5.8005">
        <ele>284.7</ele>
        <time>2020-07-07T11:12:06Z</time>
      </trkpt>
      <trkpt lat="47.01598" lon="5.8005">
        <ele>283.9</ele>
        <time>2020-07-07T11:12:10Z</time>
      </trkpt>
      <trkpt lat="47.01583" lon="5.80054">
        <ele>282</ele>
        <time>2020-07-07T11:12:22Z</time>
      </trkpt>
      <trkpt lat="47.01578" lon="5.80052">
        <ele>281.7</ele>
        <time>2020-07-07T11:12:26Z</time>
      </trkpt>
      <trkpt lat="47.01573" lon="5.80053">
        <ele>281.4</ele>
        <time>2020-07-07T11:12:31Z</time>
      </trkpt>
      <trkpt lat="47.01568" lon="5.80053">
        <ele>281.3</ele>
        <time>2020-07-07T11:12:35Z</time>
      </trkpt>
      <trkpt lat="47.01563" lon="5.80053">
        <ele>281.2</ele>
        <time>2020-07-07T11:12:40Z</time>
      </trkpt>
      <trkpt lat="47.01558" lon="5.80054">
        <ele>281.1</ele>
        <time>2020-07-07T11:12:46Z</time>
      </trkpt>
      <trkpt lat="47.01553" lon="5.80054">
        <ele>280.7</ele>
        <time>2020-07-07T11:12:51Z</time>
      </trkpt>
      <trkpt lat="47.01548" lon="5.80054">
        <ele>280.5</ele>
        <time>2020-07-07T11:12:54Z</time>
      </trkpt>
      <trkpt lat="47.01543" lon="5.80054">
        <ele>280.1</ele>
        <time>2020-07-07T11:12:58Z</time>
      </trkpt>
      <trkpt lat="47.01538" lon="5.80053">
        <ele>280</ele>
        <time>2020-07-07T11:13:02Z</time>
      </trkpt>
      <trkpt lat="47.01532" lon="5.80051">
        <ele>280.1</ele>
        <time>2020-07-07T11:13:07Z</time>
      </trkpt>
      <trkpt lat="47.01528" lon="5.80051">
        <ele>279.9</ele>
        <time>2020-07-07T11:13:12Z</time>
      </trkpt>
      <trkpt lat="47.01523" lon="5.8005">
        <ele>279.5</ele>
        <time>2020-07-07T11:13:17Z</time>
      </trkpt>
      <trkpt lat="47.01518" lon="5.80048">
        <ele>279.3</ele>
        <time>2020-07-07T11:13:23Z</time>
      </trkpt>
      <trkpt lat="47.01507" lon="5.80037">
        <ele>280.5</ele>
        <time>2020-07-07T11:13:38Z</time>
      </trkpt>
      <trkpt lat="47.01501" lon="5.80017">
        <ele>282.4</ele>
        <time>2020-07-07T11:13:50Z</time>
      </trkpt>
      <trkpt lat="47.01498" lon="5.80013">
        <ele>282.5</ele>
        <time>2020-07-07T11:13:54Z</time>
      </trkpt>
      <trkpt lat="47.01493" lon="5.80011">
        <ele>282.4</ele>
        <time>2020-07-07T11:13:59Z</time>
      </trkpt>
      <trkpt lat="47.01488" lon="5.80009">
        <ele>282.6</ele>
        <time>2020-07-07T11:14:03Z</time>
      </trkpt>
      <trkpt lat="47.01483" lon="5.80008">
        <ele>282.8</ele>
        <time>2020-07-07T11:14:06Z</time>
      </trkpt>
      <trkpt lat="47.01478" lon="5.80005">
        <ele>283.1</ele>
        <time>2020-07-07T11:14:09Z</time>
      </trkpt>
      <trkpt lat="47.01473" lon="5.80001">
        <ele>283.7</ele>
        <time>2020-07-07T11:14:13Z</time>
      </trkpt>
      <trkpt lat="47.01469" lon="5.79998">
        <ele>284.1</ele>
        <time>2020-07-07T11:14:17Z</time>
      </trkpt>
      <trkpt lat="47.01464" lon="5.79994">
        <ele>284.5</ele>
        <time>2020-07-07T11:14:21Z</time>
      </trkpt>
      <trkpt lat="47.01455" lon="5.79982">
        <ele>284.9</ele>
        <time>2020-07-07T11:14:32Z</time>
      </trkpt>
      <trkpt lat="47.0145" lon="5.79982">
        <ele>285.1</ele>
        <time>2020-07-07T11:14:45Z</time>
      </trkpt>
      <trkpt lat="47.01444" lon="5.79983">
        <ele>285.1</ele>
        <time>2020-07-07T11:14:51Z</time>
      </trkpt>
      <trkpt lat="47.01433" lon="5.79984">
        <ele>282.8</ele>
        <time>2020-07-07T11:15:04Z</time>
      </trkpt>
      <trkpt lat="47.01429" lon="5.79984">
        <ele>282.6</ele>
        <time>2020-07-07T11:15:08Z</time>
      </trkpt>
      <trkpt lat="47.01424" lon="5.79983">
        <ele>282.1</ele>
        <time>2020-07-07T11:15:13Z</time>
      </trkpt>
      <trkpt lat="47.0142" lon="5.79984">
        <ele>279.7</ele>
        <time>2020-07-07T11:15:30Z</time>
      </trkpt>
      <trkpt lat="47.01415" lon="5.79986">
        <ele>278.4</ele>
        <time>2020-07-07T11:15:36Z</time>
      </trkpt>
      <trkpt lat="47.01411" lon="5.79988">
        <ele>277.6</ele>
        <time>2020-07-07T11:15:40Z</time>
      </trkpt>
      <trkpt lat="47.01406" lon="5.7999">
        <ele>276.6</ele>
        <time>2020-07-07T11:15:45Z</time>
      </trkpt>
      <trkpt lat="47.01401" lon="5.79993">
        <ele>276</ele>
        <time>2020-07-07T11:15:50Z</time>
      </trkpt>
      <trkpt lat="47.01396" lon="5.79996">
        <ele>275.7</ele>
        <time>2020-07-07T11:15:54Z</time>
      </trkpt>
      <trkpt lat="47.01392" lon="5.79999">
        <ele>275.1</ele>
        <time>2020-07-07T11:15:59Z</time>
      </trkpt>
      <trkpt lat="47.01388" lon="5.80003">
        <ele>274.1</ele>
        <time>2020-07-07T11:16:06Z</time>
      </trkpt>
      <trkpt lat="47.01386" lon="5.80009">
        <ele>271.9</ele>
        <time>2020-07-07T11:16:18Z</time>
      </trkpt>
      <trkpt lat="47.01381" lon="5.8001">
        <ele>271.5</ele>
        <time>2020-07-07T11:16:22Z</time>
      </trkpt>
      <trkpt lat="47.01377" lon="5.80012">
        <ele>271.2</ele>
        <time>2020-07-07T11:16:28Z</time>
      </trkpt>
      <trkpt lat="47.01373" lon="5.80018">
        <ele>272</ele>
        <time>2020-07-07T11:16:54Z</time>
      </trkpt>
      <trkpt lat="47.01356" lon="5.80034">
        <ele>274</ele>
        <time>2020-07-07T11:17:11Z</time>
      </trkpt>
      <trkpt lat="47.01351" lon="5.80035">
        <ele>274</ele>
        <time>2020-07-07T11:17:15Z</time>
      </trkpt>
      <trkpt lat="47.01346" lon="5.80036">
        <ele>274</ele>
        <time>2020-07-07T11:17:19Z</time>
      </trkpt>
      <trkpt lat="47.01341" lon="5.80036">
        <ele>273.8</ele>
        <time>2020-07-07T11:17:25Z</time>
      </trkpt>
      <trkpt lat="47.01336" lon="5.80036">
        <ele>273.8</ele>
        <time>2020-07-07T11:17:28Z</time>
      </trkpt>
      <trkpt lat="47.01331" lon="5.80037">
        <ele>273.9</ele>
        <time>2020-07-07T11:17:32Z</time>
      </trkpt>
      <trkpt lat="47.01327" lon="5.80041">
        <ele>274.1</ele>
        <time>2020-07-07T11:17:36Z</time>
      </trkpt>
      <trkpt lat="47.01324" lon="5.80045">
        <ele>274.3</ele>
        <time>2020-07-07T11:17:39Z</time>
      </trkpt>
      <trkpt lat="47.0132" lon="5.80049">
        <ele>274.9</ele>
        <time>2020-07-07T11:17:43Z</time>
      </trkpt>
      <trkpt lat="47.01315" lon="5.8005">
        <ele>275.8</ele>
        <time>2020-07-07T11:17:48Z</time>
      </trkpt>
      <trkpt lat="47.01306" lon="5.80057">
        <ele>278.9</ele>
        <time>2020-07-07T11:19:22Z</time>
      </trkpt>
      <trkpt lat="47.01307" lon="5.80064">
        <ele>278.3</ele>
        <time>2020-07-07T11:19:27Z</time>
      </trkpt>
      <trkpt lat="47.01306" lon="5.80072">
        <ele>277.5</ele>
        <time>2020-07-07T11:19:32Z</time>
      </trkpt>
      <trkpt lat="47.01306" lon="5.80079">
        <ele>276.6</ele>
        <time>2020-07-07T11:19:36Z</time>
      </trkpt>
      <trkpt lat="47.01306" lon="5.80087">
        <ele>275.5</ele>
        <time>2020-07-07T11:19:40Z</time>
      </trkpt>
      <trkpt lat="47.01305" lon="5.80094">
        <ele>274.3</ele>
        <time>2020-07-07T11:19:44Z</time>
      </trkpt>
      <trkpt lat="47.01305" lon="5.80102">
        <ele>273.4</ele>
        <time>2020-07-07T11:19:48Z</time>
      </trkpt>
      <trkpt lat="47.01304" lon="5.8011">
        <ele>272.9</ele>
        <time>2020-07-07T11:19:52Z</time>
      </trkpt>
      <trkpt lat="47.01305" lon="5.80118">
        <ele>272.5</ele>
        <time>2020-07-07T11:19:56Z</time>
      </trkpt>
      <trkpt lat="47.01305" lon="5.80124">
        <ele>272.1</ele>
        <time>2020-07-07T11:20:00Z</time>
      </trkpt>
      <trkpt lat="47.01304" lon="5.80131">
        <ele>271.4</ele>
        <time>2020-07-07T11:20:05Z</time>
      </trkpt>
      <trkpt lat="47.01303" lon="5.80139">
        <ele>270.9</ele>
        <time>2020-07-07T11:20:11Z</time>
      </trkpt>
      <trkpt lat="47.01302" lon="5.80145">
        <ele>270.8</ele>
        <time>2020-07-07T11:20:15Z</time>
      </trkpt>
      <trkpt lat="47.01301" lon="5.80152">
        <ele>270.8</ele>
        <time>2020-07-07T11:20:19Z</time>
      </trkpt>
      <trkpt lat="47.01302" lon="5.80158">
        <ele>270.8</ele>
        <time>2020-07-07T11:20:23Z</time>
      </trkpt>
      <trkpt lat="47.01302" lon="5.80166">
        <ele>270.7</ele>
        <time>2020-07-07T11:20:27Z</time>
      </trkpt>
      <trkpt lat="47.01303" lon="5.80173">
        <ele>270.7</ele>
        <time>2020-07-07T11:20:32Z</time>
      </trkpt>
      <trkpt lat="47.01303" lon="5.8018">
        <ele>270.5</ele>
        <time>2020-07-07T11:20:36Z</time>
      </trkpt>
      <trkpt lat="47.01304" lon="5.80187">
        <ele>270.3</ele>
        <time>2020-07-07T11:20:39Z</time>
      </trkpt>
      <trkpt lat="47.01304" lon="5.80194">
        <ele>270</ele>
        <time>2020-07-07T11:20:43Z</time>
      </trkpt>
      <trkpt lat="47.01304" lon="5.80201">
        <ele>269.7</ele>
        <time>2020-07-07T11:20:47Z</time>
      </trkpt>
      <trkpt lat="47.01303" lon="5.80209">
        <ele>269.3</ele>
        <time>2020-07-07T11:20:52Z</time>
      </trkpt>
      <trkpt lat="47.01303" lon="5.80217">
        <ele>268.9</ele>
        <time>2020-07-07T11:20:58Z</time>
      </trkpt>
      <trkpt lat="47.01304" lon="5.80224">
        <ele>268.7</ele>
        <time>2020-07-07T11:21:02Z</time>
      </trkpt>
      <trkpt lat="47.01302" lon="5.80232">
        <ele>268.8</ele>
        <time>2020-07-07T11:21:07Z</time>
      </trkpt>
      <trkpt lat="47.01303" lon="5.80239">
        <ele>268.9</ele>
        <time>2020-07-07T11:21:13Z</time>
      </trkpt>
      <trkpt lat="47.01303" lon="5.80247">
        <ele>269</ele>
        <time>2020-07-07T11:21:19Z</time>
      </trkpt>
      <trkpt lat="47.01304" lon="5.80254">
        <ele>269</ele>
        <time>2020-07-07T11:21:24Z</time>
      </trkpt>
      <trkpt lat="47.01306" lon="5.80261">
        <ele>269</ele>
        <time>2020-07-07T11:21:28Z</time>
      </trkpt>
      <trkpt lat="47.01306" lon="5.80268">
        <ele>269.1</ele>
        <time>2020-07-07T11:21:33Z</time>
      </trkpt>
      <trkpt lat="47.01306" lon="5.80275">
        <ele>269.3</ele>
        <time>2020-07-07T11:21:38Z</time>
      </trkpt>
      <trkpt lat="47.01305" lon="5.80282">
        <ele>269.8</ele>
        <time>2020-07-07T11:21:44Z</time>
      </trkpt>
      <trkpt lat="47.01304" lon="5.8029">
        <ele>270.2</ele>
        <time>2020-07-07T11:21:50Z</time>
      </trkpt>
      <trkpt lat="47.01302" lon="5.80296">
        <ele>270.8</ele>
        <time>2020-07-07T11:21:57Z</time>
      </trkpt>
      <trkpt lat="47.01299" lon="5.80302">
        <ele>271.4</ele>
        <time>2020-07-07T11:22:04Z</time>
      </trkpt>
      <trkpt lat="47.01294" lon="5.80302">
        <ele>271.6</ele>
        <time>2020-07-07T11:22:09Z</time>
      </trkpt>
      <trkpt lat="47.01289" lon="5.80299">
        <ele>271.8</ele>
        <time>2020-07-07T11:22:13Z</time>
      </trkpt>
      <trkpt lat="47.01285" lon="5.80297">
        <ele>272.2</ele>
        <time>2020-07-07T11:22:23Z</time>
      </trkpt>
      <trkpt lat="47.01287" lon="5.80303">
        <ele>272.3</ele>
        <time>2020-07-07T11:22:39Z</time>
      </trkpt>
      <trkpt lat="47.01283" lon="5.80306">
        <ele>277.3</ele>
        <time>2020-07-07T11:23:12Z</time>
      </trkpt>
      <trkpt lat="47.01278" lon="5.80306">
        <ele>280.2</ele>
        <time>2020-07-07T11:23:22Z</time>
      </trkpt>
      <trkpt lat="47.01274" lon="5.80308">
        <ele>281.1</ele>
        <time>2020-07-07T11:23:32Z</time>
      </trkpt>
      <trkpt lat="47.01263" lon="5.80294">
        <ele>279.3</ele>
        <time>2020-07-07T11:26:26Z</time>
      </trkpt>
      <trkpt lat="47.0126" lon="5.8029">
        <ele>279</ele>
        <time>2020-07-07T11:26:29Z</time>
      </trkpt>
      <trkpt lat="47.01256" lon="5.80286">
        <ele>278.7</ele>
        <time>2020-07-07T11:26:34Z</time>
      </trkpt>
      <trkpt lat="47.01251" lon="5.80283">
        <ele>278.8</ele>
        <time>2020-07-07T11:26:45Z</time>
      </trkpt>
      <trkpt lat="47.01246" lon="5.80281">
        <ele>278.4</ele>
        <time>2020-07-07T11:26:49Z</time>
      </trkpt>
      <trkpt lat="47.01242" lon="5.80278">
        <ele>278.1</ele>
        <time>2020-07-07T11:26:52Z</time>
      </trkpt>
      <trkpt lat="47.0123" lon="5.80266">
        <ele>276.1</ele>
        <time>2020-07-07T11:27:09Z</time>
      </trkpt>
      <trkpt lat="47.01227" lon="5.80261">
        <ele>275.2</ele>
        <time>2020-07-07T11:27:15Z</time>
      </trkpt>
      <trkpt lat="47.01223" lon="5.80256">
        <ele>273.5</ele>
        <time>2020-07-07T11:27:23Z</time>
      </trkpt>
      <trkpt lat="47.01218" lon="5.80254">
        <ele>272.1</ele>
        <time>2020-07-07T11:27:29Z</time>
      </trkpt>
      <trkpt lat="47.0121" lon="5.80252">
        <ele>269.7</ele>
        <time>2020-07-07T11:27:41Z</time>
      </trkpt>
      <trkpt lat="47.01205" lon="5.80251">
        <ele>269.3</ele>
        <time>2020-07-07T11:27:46Z</time>
      </trkpt>
      <trkpt lat="47.012" lon="5.8025">
        <ele>268.1</ele>
        <time>2020-07-07T11:27:52Z</time>
      </trkpt>
      <trkpt lat="47.01195" lon="5.8025">
        <ele>266.8</ele>
        <time>2020-07-07T11:27:56Z</time>
      </trkpt>
      <trkpt lat="47.01191" lon="5.80249">
        <ele>265.5</ele>
        <time>2020-07-07T11:28:00Z</time>
      </trkpt>
      <trkpt lat="47.01182" lon="5.80246">
        <ele>261.3</ele>
        <time>2020-07-07T11:28:09Z</time>
      </trkpt>
      <trkpt lat="47.01177" lon="5.80244">
        <ele>259.9</ele>
        <time>2020-07-07T11:28:13Z</time>
      </trkpt>
      <trkpt lat="47.0117" lon="5.80244">
        <ele>259</ele>
        <time>2020-07-07T11:28:16Z</time>
      </trkpt>
      <trkpt lat="47.01165" lon="5.80246">
        <ele>258.5</ele>
        <time>2020-07-07T11:28:25Z</time>
      </trkpt>
      <trkpt lat="47.01161" lon="5.8025">
        <ele>259.6</ele>
        <time>2020-07-07T11:28:29Z</time>
      </trkpt>
      <trkpt lat="47.01155" lon="5.80253">
        <ele>261.3</ele>
        <time>2020-07-07T11:28:35Z</time>
      </trkpt>
      <trkpt lat="47.0115" lon="5.80254">
        <ele>262.1</ele>
        <time>2020-07-07T11:28:38Z</time>
      </trkpt>
      <trkpt lat="47.01145" lon="5.80256">
        <ele>262.9</ele>
        <time>2020-07-07T11:28:41Z</time>
      </trkpt>
      <trkpt lat="47.01139" lon="5.80256">
        <ele>264.1</ele>
        <time>2020-07-07T11:28:45Z</time>
      </trkpt>
      <trkpt lat="47.01134" lon="5.80256">
        <ele>264.8</ele>
        <time>2020-07-07T11:28:47Z</time>
      </trkpt>
      <trkpt lat="47.01128" lon="5.80255">
        <ele>266</ele>
        <time>2020-07-07T11:28:50Z</time>
      </trkpt>
      <trkpt lat="47.01123" lon="5.80256">
        <ele>267.4</ele>
        <time>2020-07-07T11:28:53Z</time>
      </trkpt>
      <trkpt lat="47.01118" lon="5.80256">
        <ele>269.5</ele>
        <time>2020-07-07T11:28:57Z</time>
      </trkpt>
      <trkpt lat="47.01112" lon="5.80255">
        <ele>271.7</ele>
        <time>2020-07-07T11:29:01Z</time>
      </trkpt>
      <trkpt lat="47.01107" lon="5.80254">
        <ele>273.8</ele>
        <time>2020-07-07T11:29:05Z</time>
      </trkpt>
      <trkpt lat="47.01102" lon="5.80252">
        <ele>275.7</ele>
        <time>2020-07-07T11:29:09Z</time>
      </trkpt>
      <trkpt lat="47.01097" lon="5.80252">
        <ele>277.8</ele>
        <time>2020-07-07T11:29:15Z</time>
      </trkpt>
      <trkpt lat="47.01093" lon="5.80255">
        <ele>278.7</ele>
        <time>2020-07-07T11:29:30Z</time>
      </trkpt>
      <trkpt lat="47.01088" lon="5.80253">
        <ele>278.5</ele>
        <time>2020-07-07T11:29:34Z</time>
      </trkpt>
      <trkpt lat="47.01085" lon="5.80248">
        <ele>278</ele>
        <time>2020-07-07T11:29:39Z</time>
      </trkpt>
      <trkpt lat="47.01081" lon="5.80242">
        <ele>277.5</ele>
        <time>2020-07-07T11:29:44Z</time>
      </trkpt>
      <trkpt lat="47.01078" lon="5.80237">
        <ele>276.9</ele>
        <time>2020-07-07T11:29:48Z</time>
      </trkpt>
      <trkpt lat="47.01075" lon="5.80232">
        <ele>276.3</ele>
        <time>2020-07-07T11:29:52Z</time>
      </trkpt>
      <trkpt lat="47.01071" lon="5.80229">
        <ele>275.2</ele>
        <time>2020-07-07T11:29:56Z</time>
      </trkpt>
      <trkpt lat="47.01067" lon="5.80224">
        <ele>273.9</ele>
        <time>2020-07-07T11:30:00Z</time>
      </trkpt>
      <trkpt lat="47.01063" lon="5.80222">
        <ele>271.7</ele>
        <time>2020-07-07T11:30:06Z</time>
      </trkpt>
      <trkpt lat="47.01058" lon="5.8022">
        <ele>270.1</ele>
        <time>2020-07-07T11:30:11Z</time>
      </trkpt>
      <trkpt lat="47.01053" lon="5.8022">
        <ele>269</ele>
        <time>2020-07-07T11:30:15Z</time>
      </trkpt>
      <trkpt lat="47.01035" lon="5.8022">
        <ele>266.8</ele>
        <time>2020-07-07T11:30:27Z</time>
      </trkpt>
      <trkpt lat="47.01031" lon="5.80219">
        <ele>266.2</ele>
        <time>2020-07-07T11:30:34Z</time>
      </trkpt>
      <trkpt lat="47.01026" lon="5.80218">
        <ele>265.2</ele>
        <time>2020-07-07T11:30:40Z</time>
      </trkpt>
      <trkpt lat="47.01021" lon="5.80218">
        <ele>264.1</ele>
        <time>2020-07-07T11:30:45Z</time>
      </trkpt>
      <trkpt lat="47.01016" lon="5.80218">
        <ele>263.1</ele>
        <time>2020-07-07T11:30:49Z</time>
      </trkpt>
      <trkpt lat="47.01013" lon="5.80227">
        <ele>262.5</ele>
        <time>2020-07-07T11:30:52Z</time>
      </trkpt>
      <trkpt lat="47.01011" lon="5.80233">
        <ele>262.2</ele>
        <time>2020-07-07T11:30:54Z</time>
      </trkpt>
      <trkpt lat="47.01009" lon="5.80239">
        <ele>262.1</ele>
        <time>2020-07-07T11:30:56Z</time>
      </trkpt>
      <trkpt lat="47.01006" lon="5.80245">
        <ele>262.3</ele>
        <time>2020-07-07T11:30:58Z</time>
      </trkpt>
      <trkpt lat="47.01002" lon="5.8025">
        <ele>262.9</ele>
        <time>2020-07-07T11:31:01Z</time>
      </trkpt>
      <trkpt lat="47.00997" lon="5.80251">
        <ele>263.9</ele>
        <time>2020-07-07T11:31:04Z</time>
      </trkpt>
      <trkpt lat="47.00992" lon="5.80251">
        <ele>265.1</ele>
        <time>2020-07-07T11:31:08Z</time>
      </trkpt>
      <trkpt lat="47.00987" lon="5.80249">
        <ele>266.1</ele>
        <time>2020-07-07T11:31:11Z</time>
      </trkpt>
      <trkpt lat="47.00982" lon="5.80248">
        <ele>267.2</ele>
        <time>2020-07-07T11:31:14Z</time>
      </trkpt>
      <trkpt lat="47.00977" lon="5.80247">
        <ele>268.6</ele>
        <time>2020-07-07T11:31:18Z</time>
      </trkpt>
      <trkpt lat="47.00971" lon="5.80245">
        <ele>270.1</ele>
        <time>2020-07-07T11:31:22Z</time>
      </trkpt>
      <trkpt lat="47.00966" lon="5.80245">
        <ele>272.2</ele>
        <time>2020-07-07T11:31:27Z</time>
      </trkpt>
      <trkpt lat="47.0096" lon="5.80245">
        <ele>274.8</ele>
        <time>2020-07-07T11:31:33Z</time>
      </trkpt>
      <trkpt lat="47.00948" lon="5.80242">
        <ele>279.8</ele>
        <time>2020-07-07T11:31:43Z</time>
      </trkpt>
      <trkpt lat="47.00943" lon="5.80242">
        <ele>280.4</ele>
        <time>2020-07-07T11:31:48Z</time>
      </trkpt>
      <trkpt lat="47.00937" lon="5.80242">
        <ele>280.6</ele>
        <time>2020-07-07T11:31:53Z</time>
      </trkpt>
      <trkpt lat="47.00939" lon="5.8025">
        <ele>280.2</ele>
        <time>2020-07-07T11:32:01Z</time>
      </trkpt>
      <trkpt lat="47.00939" lon="5.80258">
        <ele>280</ele>
        <time>2020-07-07T11:32:04Z</time>
      </trkpt>
      <trkpt lat="47.0094" lon="5.80266">
        <ele>279.8</ele>
        <time>2020-07-07T11:32:07Z</time>
      </trkpt>
      <trkpt lat="47.00941" lon="5.80273">
        <ele>279.4</ele>
        <time>2020-07-07T11:32:12Z</time>
      </trkpt>
      <trkpt lat="47.00936" lon="5.80275">
        <ele>273.9</ele>
        <time>2020-07-07T11:32:32Z</time>
      </trkpt>
      <trkpt lat="47.00931" lon="5.80275">
        <ele>271.1</ele>
        <time>2020-07-07T11:32:38Z</time>
      </trkpt>
      <trkpt lat="47.00927" lon="5.80278">
        <ele>266.9</ele>
        <time>2020-07-07T11:32:46Z</time>
      </trkpt>
      <trkpt lat="47.00922" lon="5.80279">
        <ele>262</ele>
        <time>2020-07-07T11:32:56Z</time>
      </trkpt>
      <trkpt lat="47.00906" lon="5.80292">
        <ele>257.5</ele>
        <time>2020-07-07T11:33:03Z</time>
      </trkpt>
      <trkpt lat="47.00901" lon="5.80293">
        <ele>257</ele>
        <time>2020-07-07T11:33:07Z</time>
      </trkpt>
      <trkpt lat="47.00894" lon="5.80298">
        <ele>256.7</ele>
        <time>2020-07-07T11:33:11Z</time>
      </trkpt>
      <trkpt lat="47.0089" lon="5.80301">
        <ele>256.6</ele>
        <time>2020-07-07T11:33:14Z</time>
      </trkpt>
      <trkpt lat="47.00885" lon="5.80304">
        <ele>256.6</ele>
        <time>2020-07-07T11:33:18Z</time>
      </trkpt>
      <trkpt lat="47.00881" lon="5.80307">
        <ele>257</ele>
        <time>2020-07-07T11:33:25Z</time>
      </trkpt>
      <trkpt lat="47.00867" lon="5.8031">
        <ele>259</ele>
        <time>2020-07-07T11:33:34Z</time>
      </trkpt>
      <trkpt lat="47.00851" lon="5.80315">
        <ele>261.2</ele>
        <time>2020-07-07T11:33:45Z</time>
      </trkpt>
      <trkpt lat="47.00847" lon="5.80315">
        <ele>261.8</ele>
        <time>2020-07-07T11:33:48Z</time>
      </trkpt>
      <trkpt lat="47.00843" lon="5.80318">
        <ele>262.3</ele>
        <time>2020-07-07T11:33:51Z</time>
      </trkpt>
      <trkpt lat="47.00838" lon="5.80321">
        <ele>263.1</ele>
        <time>2020-07-07T11:33:56Z</time>
      </trkpt>
      <trkpt lat="47.00829" lon="5.80328">
        <ele>265.6</ele>
        <time>2020-07-07T11:34:10Z</time>
      </trkpt>
      <trkpt lat="47.00825" lon="5.80332">
        <ele>266</ele>
        <time>2020-07-07T11:34:14Z</time>
      </trkpt>
      <trkpt lat="47.00821" lon="5.80336">
        <ele>266.4</ele>
        <time>2020-07-07T11:34:20Z</time>
      </trkpt>
      <trkpt lat="47.00814" lon="5.80345">
        <ele>267</ele>
        <time>2020-07-07T11:34:32Z</time>
      </trkpt>
      <trkpt lat="47.00811" lon="5.80352">
        <ele>267.2</ele>
        <time>2020-07-07T11:34:36Z</time>
      </trkpt>
      <trkpt lat="47.00808" lon="5.80358">
        <ele>268.1</ele>
        <time>2020-07-07T11:34:43Z</time>
      </trkpt>
      <trkpt lat="47.00804" lon="5.8036">
        <ele>269.4</ele>
        <time>2020-07-07T11:34:49Z</time>
      </trkpt>
      <trkpt lat="47.00799" lon="5.80363">
        <ele>269.7</ele>
        <time>2020-07-07T11:34:51Z</time>
      </trkpt>
      <trkpt lat="47.00794" lon="5.80368">
        <ele>270.3</ele>
        <time>2020-07-07T11:34:55Z</time>
      </trkpt>
      <trkpt lat="47.0079" lon="5.80373">
        <ele>271.4</ele>
        <time>2020-07-07T11:35:00Z</time>
      </trkpt>
      <trkpt lat="47.00785" lon="5.80386">
        <ele>274.8</ele>
        <time>2020-07-07T11:35:11Z</time>
      </trkpt>
      <trkpt lat="47.00782" lon="5.80393">
        <ele>275.2</ele>
        <time>2020-07-07T11:35:13Z</time>
      </trkpt>
      <trkpt lat="47.00779" lon="5.80397">
        <ele>275.8</ele>
        <time>2020-07-07T11:35:15Z</time>
      </trkpt>
      <trkpt lat="47.00775" lon="5.80403">
        <ele>277.4</ele>
        <time>2020-07-07T11:35:21Z</time>
      </trkpt>
      <trkpt lat="47.00772" lon="5.80407">
        <ele>279.5</ele>
        <time>2020-07-07T11:35:29Z</time>
      </trkpt>
      <trkpt lat="47.00767" lon="5.80412">
        <ele>280.4</ele>
        <time>2020-07-07T11:35:32Z</time>
      </trkpt>
      <trkpt lat="47.00764" lon="5.80416">
        <ele>281.4</ele>
        <time>2020-07-07T11:35:35Z</time>
      </trkpt>
      <trkpt lat="47.00758" lon="5.8042">
        <ele>283.5</ele>
        <time>2020-07-07T11:35:40Z</time>
      </trkpt>
      <trkpt lat="47.00754" lon="5.80423">
        <ele>285.2</ele>
        <time>2020-07-07T11:35:44Z</time>
      </trkpt>
      <trkpt lat="47.00752" lon="5.8043">
        <ele>287.1</ele>
        <time>2020-07-07T11:35:51Z</time>
      </trkpt>
      <trkpt lat="47.00752" lon="5.80452">
        <ele>290.5</ele>
        <time>2020-07-07T11:36:05Z</time>
      </trkpt>
      <trkpt lat="47.00752" lon="5.80459">
        <ele>289.4</ele>
        <time>2020-07-07T11:36:13Z</time>
      </trkpt>
      <trkpt lat="47.0075" lon="5.80467">
        <ele>288.5</ele>
        <time>2020-07-07T11:36:17Z</time>
      </trkpt>
      <trkpt lat="47.00747" lon="5.80474">
        <ele>287.7</ele>
        <time>2020-07-07T11:36:20Z</time>
      </trkpt>
      <trkpt lat="47.00746" lon="5.8048">
        <ele>286.5</ele>
        <time>2020-07-07T11:36:25Z</time>
      </trkpt>
      <trkpt lat="47.00727" lon="5.80484">
        <ele>277.5</ele>
        <time>2020-07-07T11:37:54Z</time>
      </trkpt>
      <trkpt lat="47.00711" lon="5.80488">
        <ele>278</ele>
        <time>2020-07-07T11:38:06Z</time>
      </trkpt>
      <trkpt lat="47.00706" lon="5.80489">
        <ele>278</ele>
        <time>2020-07-07T11:38:11Z</time>
      </trkpt>
      <trkpt lat="47.00696" lon="5.80497">
        <ele>279.8</ele>
        <time>2020-07-07T11:38:22Z</time>
      </trkpt>
      <trkpt lat="47.00691" lon="5.805">
        <ele>280.2</ele>
        <time>2020-07-07T11:38:25Z</time>
      </trkpt>
      <trkpt lat="47.00687" lon="5.80503">
        <ele>281.4</ele>
        <time>2020-07-07T11:38:34Z</time>
      </trkpt>
      <trkpt lat="47.00681" lon="5.80504">
        <ele>282.5</ele>
        <time>2020-07-07T11:38:40Z</time>
      </trkpt>
      <trkpt lat="47.00675" lon="5.80502">
        <ele>283.2</ele>
        <time>2020-07-07T11:38:44Z</time>
      </trkpt>
      <trkpt lat="47.00671" lon="5.80501">
        <ele>283.6</ele>
        <time>2020-07-07T11:38:47Z</time>
      </trkpt>
      <trkpt lat="47.00666" lon="5.80501">
        <ele>285</ele>
        <time>2020-07-07T11:39:01Z</time>
      </trkpt>
      <trkpt lat="47.00661" lon="5.80497">
        <ele>285.2</ele>
        <time>2020-07-07T11:39:06Z</time>
      </trkpt>
      <trkpt lat="47.00657" lon="5.80495">
        <ele>285.3</ele>
        <time>2020-07-07T11:39:10Z</time>
      </trkpt>
      <trkpt lat="47.00652" lon="5.80494">
        <ele>285.3</ele>
        <time>2020-07-07T11:39:12Z</time>
      </trkpt>
      <trkpt lat="47.00647" lon="5.80494">
        <ele>285.4</ele>
        <time>2020-07-07T11:39:16Z</time>
      </trkpt>
      <trkpt lat="47.00644" lon="5.80501">
        <ele>296</ele>
        <time>2020-07-07T11:40:33Z</time>
      </trkpt>
      <trkpt lat="47.00621" lon="5.80495">
        <ele>298.6</ele>
        <time>2020-07-07T11:41:03Z</time>
      </trkpt>
      <trkpt lat="47.00598" lon="5.80488">
        <ele>299.4</ele>
        <time>2020-07-07T11:41:16Z</time>
      </trkpt>
      <trkpt lat="47.00592" lon="5.80487">
        <ele>299.3</ele>
        <time>2020-07-07T11:41:21Z</time>
      </trkpt>
      <trkpt lat="47.00585" lon="5.80479">
        <ele>298.7</ele>
        <time>2020-07-07T11:41:31Z</time>
      </trkpt>
      <trkpt lat="47.00581" lon="5.80475">
        <ele>297</ele>
        <time>2020-07-07T11:41:40Z</time>
      </trkpt>
      <trkpt lat="47.00576" lon="5.80477">
        <ele>296.4</ele>
        <time>2020-07-07T11:41:55Z</time>
      </trkpt>
      <trkpt lat="47.00571" lon="5.80479">
        <ele>296.8</ele>
        <time>2020-07-07T11:42:06Z</time>
      </trkpt>
      <trkpt lat="47.00557" lon="5.80476">
        <ele>297.3</ele>
        <time>2020-07-07T11:42:18Z</time>
      </trkpt>
      <trkpt lat="47.00551" lon="5.80474">
        <ele>297.1</ele>
        <time>2020-07-07T11:42:20Z</time>
      </trkpt>
      <trkpt lat="47.00547" lon="5.80472">
        <ele>296.5</ele>
        <time>2020-07-07T11:42:24Z</time>
      </trkpt>
      <trkpt lat="47.00542" lon="5.80473">
        <ele>295.2</ele>
        <time>2020-07-07T11:42:33Z</time>
      </trkpt>
      <trkpt lat="47.00538" lon="5.80474">
        <ele>295.2</ele>
        <time>2020-07-07T11:42:42Z</time>
      </trkpt>
      <trkpt lat="47.00536" lon="5.80485">
        <ele>296.4</ele>
        <time>2020-07-07T11:42:59Z</time>
      </trkpt>
      <trkpt lat="47.00533" lon="5.80492">
        <ele>296.9</ele>
        <time>2020-07-07T11:43:03Z</time>
      </trkpt>
      <trkpt lat="47.0053" lon="5.80496">
        <ele>298.1</ele>
        <time>2020-07-07T11:43:09Z</time>
      </trkpt>
      <trkpt lat="47.00521" lon="5.80498">
        <ele>301.3</ele>
        <time>2020-07-07T11:43:23Z</time>
      </trkpt>
      <trkpt lat="47.00516" lon="5.80498">
        <ele>302.3</ele>
        <time>2020-07-07T11:43:28Z</time>
      </trkpt>
      <trkpt lat="47.00498" lon="5.80504">
        <ele>307.5</ele>
        <time>2020-07-07T11:43:46Z</time>
      </trkpt>
      <trkpt lat="47.00493" lon="5.80507">
        <ele>307.9</ele>
        <time>2020-07-07T11:43:49Z</time>
      </trkpt>
      <trkpt lat="47.00489" lon="5.8051">
        <ele>308.2</ele>
        <time>2020-07-07T11:43:52Z</time>
      </trkpt>
      <trkpt lat="47.00461" lon="5.80513">
        <ele>313.2</ele>
        <time>2020-07-07T11:44:26Z</time>
      </trkpt>
      <trkpt lat="47.00456" lon="5.80513">
        <ele>313.9</ele>
        <time>2020-07-07T11:44:30Z</time>
      </trkpt>
      <trkpt lat="47.0045" lon="5.80518">
        <ele>320</ele>
        <time>2020-07-07T11:45:35Z</time>
      </trkpt>
      <trkpt lat="47.00446" lon="5.80519">
        <ele>320.7</ele>
        <time>2020-07-07T11:45:44Z</time>
      </trkpt>
      <trkpt lat="47.00441" lon="5.80521">
        <ele>321.4</ele>
        <time>2020-07-07T11:45:48Z</time>
      </trkpt>
      <trkpt lat="47.00436" lon="5.80523">
        <ele>327.2</ele>
        <time>2020-07-07T11:46:02Z</time>
      </trkpt>
      <trkpt lat="47.00431" lon="5.80525">
        <ele>329.6</ele>
        <time>2020-07-07T11:46:07Z</time>
      </trkpt>
      <trkpt lat="47.00427" lon="5.80528">
        <ele>330.9</ele>
        <time>2020-07-07T11:46:10Z</time>
      </trkpt>
      <trkpt lat="47.00421" lon="5.80529">
        <ele>332.2</ele>
        <time>2020-07-07T11:46:13Z</time>
      </trkpt>
      <trkpt lat="47.00411" lon="5.80532">
        <ele>339.5</ele>
        <time>2020-07-07T11:46:28Z</time>
      </trkpt>
      <trkpt lat="47.00406" lon="5.80532">
        <ele>340.6</ele>
        <time>2020-07-07T11:46:36Z</time>
      </trkpt>
      <trkpt lat="47.00401" lon="5.80531">
        <ele>340</ele>
        <time>2020-07-07T11:46:41Z</time>
      </trkpt>
      <trkpt lat="47.00397" lon="5.80528">
        <ele>338.9</ele>
        <time>2020-07-07T11:46:45Z</time>
      </trkpt>
      <trkpt lat="47.00392" lon="5.80526">
        <ele>337.4</ele>
        <time>2020-07-07T11:46:49Z</time>
      </trkpt>
      <trkpt lat="47.00387" lon="5.80523">
        <ele>334.8</ele>
        <time>2020-07-07T11:46:55Z</time>
      </trkpt>
      <trkpt lat="47.00382" lon="5.80521">
        <ele>331.3</ele>
        <time>2020-07-07T11:47:04Z</time>
      </trkpt>
      <trkpt lat="47.00376" lon="5.80521">
        <ele>330.7</ele>
        <time>2020-07-07T11:47:07Z</time>
      </trkpt>
      <trkpt lat="47.00372" lon="5.80521">
        <ele>330.4</ele>
        <time>2020-07-07T11:47:11Z</time>
      </trkpt>
      <trkpt lat="47.00366" lon="5.8052">
        <ele>332.7</ele>
        <time>2020-07-07T11:47:22Z</time>
      </trkpt>
      <trkpt lat="47.00338" lon="5.80523">
        <ele>342.5</ele>
        <time>2020-07-07T11:47:40Z</time>
      </trkpt>
      <trkpt lat="47.00325" lon="5.80522">
        <ele>351.1</ele>
        <time>2020-07-07T11:47:59Z</time>
      </trkpt>
      <trkpt lat="47.00321" lon="5.8052">
        <ele>352.4</ele>
        <time>2020-07-07T11:48:08Z</time>
      </trkpt>
      <trkpt lat="47.00316" lon="5.80516">
        <ele>351.9</ele>
        <time>2020-07-07T11:48:12Z</time>
      </trkpt>
      <trkpt lat="47.00312" lon="5.80513">
        <ele>351.1</ele>
        <time>2020-07-07T11:48:15Z</time>
      </trkpt>
      <trkpt lat="47.00307" lon="5.80511">
        <ele>349.2</ele>
        <time>2020-07-07T11:48:21Z</time>
      </trkpt>
      <trkpt lat="47.00302" lon="5.8051">
        <ele>346.5</ele>
        <time>2020-07-07T11:48:28Z</time>
      </trkpt>
      <trkpt lat="47.00297" lon="5.80509">
        <ele>344.7</ele>
        <time>2020-07-07T11:48:32Z</time>
      </trkpt>
      <trkpt lat="47.00292" lon="5.80507">
        <ele>342.7</ele>
        <time>2020-07-07T11:48:37Z</time>
      </trkpt>
      <trkpt lat="47.00288" lon="5.80504">
        <ele>340.7</ele>
        <time>2020-07-07T11:48:44Z</time>
      </trkpt>
      <trkpt lat="47.00283" lon="5.805">
        <ele>339.4</ele>
        <time>2020-07-07T11:48:50Z</time>
      </trkpt>
      <trkpt lat="47.00279" lon="5.80497">
        <ele>338.6</ele>
        <time>2020-07-07T11:48:54Z</time>
      </trkpt>
      <trkpt lat="47.00274" lon="5.80494">
        <ele>337.1</ele>
        <time>2020-07-07T11:49:01Z</time>
      </trkpt>
      <trkpt lat="47.0027" lon="5.80491">
        <ele>336.1</ele>
        <time>2020-07-07T11:49:06Z</time>
      </trkpt>
      <trkpt lat="47.00266" lon="5.80488">
        <ele>335.3</ele>
        <time>2020-07-07T11:49:11Z</time>
      </trkpt>
      <trkpt lat="47.00262" lon="5.80486">
        <ele>334.6</ele>
        <time>2020-07-07T11:49:18Z</time>
      </trkpt>
      <trkpt lat="47.00256" lon="5.80484">
        <ele>334.5</ele>
        <time>2020-07-07T11:49:21Z</time>
      </trkpt>
      <trkpt lat="47.00245" lon="5.80482">
        <ele>335.2</ele>
        <time>2020-07-07T11:49:37Z</time>
      </trkpt>
      <trkpt lat="47.0024" lon="5.80481">
        <ele>336.8</ele>
        <time>2020-07-07T11:49:42Z</time>
      </trkpt>
      <trkpt lat="47.00235" lon="5.8048">
        <ele>341.7</ele>
        <time>2020-07-07T11:49:52Z</time>
      </trkpt>
      <trkpt lat="47.00228" lon="5.8048">
        <ele>345.2</ele>
        <time>2020-07-07T11:50:00Z</time>
      </trkpt>
      <trkpt lat="47.00223" lon="5.80479">
        <ele>345.9</ele>
        <time>2020-07-07T11:50:02Z</time>
      </trkpt>
      <trkpt lat="47.00218" lon="5.80478">
        <ele>346.6</ele>
        <time>2020-07-07T11:50:05Z</time>
      </trkpt>
      <trkpt lat="47.00214" lon="5.80477">
        <ele>347.1</ele>
        <time>2020-07-07T11:50:08Z</time>
      </trkpt>
      <trkpt lat="47.00208" lon="5.80477">
        <ele>347.3</ele>
        <time>2020-07-07T11:50:12Z</time>
      </trkpt>
      <trkpt lat="47.00204" lon="5.80476">
        <ele>347.2</ele>
        <time>2020-07-07T11:50:15Z</time>
      </trkpt>
      <trkpt lat="47.00199" lon="5.80473">
        <ele>346.9</ele>
        <time>2020-07-07T11:50:20Z</time>
      </trkpt>
      <trkpt lat="47.00195" lon="5.80469">
        <ele>346.6</ele>
        <time>2020-07-07T11:50:26Z</time>
      </trkpt>
      <trkpt lat="47.00191" lon="5.80463">
        <ele>346.2</ele>
        <time>2020-07-07T11:50:31Z</time>
      </trkpt>
      <trkpt lat="47.00187" lon="5.80459">
        <ele>345.7</ele>
        <time>2020-07-07T11:50:35Z</time>
      </trkpt>
      <trkpt lat="47.00183" lon="5.80455">
        <ele>345</ele>
        <time>2020-07-07T11:50:39Z</time>
      </trkpt>
      <trkpt lat="47.00179" lon="5.80449">
        <ele>344.2</ele>
        <time>2020-07-07T11:50:44Z</time>
      </trkpt>
      <trkpt lat="47.00176" lon="5.80443">
        <ele>343.3</ele>
        <time>2020-07-07T11:50:48Z</time>
      </trkpt>
      <trkpt lat="47.00173" lon="5.80437">
        <ele>341.8</ele>
        <time>2020-07-07T11:50:55Z</time>
      </trkpt>
      <trkpt lat="47.00169" lon="5.80434">
        <ele>337.4</ele>
        <time>2020-07-07T11:51:08Z</time>
      </trkpt>
      <trkpt lat="47.00165" lon="5.8043">
        <ele>335.4</ele>
        <time>2020-07-07T11:51:13Z</time>
      </trkpt>
      <trkpt lat="47.00161" lon="5.80429">
        <ele>331.9</ele>
        <time>2020-07-07T11:51:23Z</time>
      </trkpt>
      <trkpt lat="47.00156" lon="5.80431">
        <ele>330.8</ele>
        <time>2020-07-07T11:51:29Z</time>
      </trkpt>
      <trkpt lat="47.00151" lon="5.8043">
        <ele>330.6</ele>
        <time>2020-07-07T11:51:32Z</time>
      </trkpt>
      <trkpt lat="47.00145" lon="5.80432">
        <ele>331.6</ele>
        <time>2020-07-07T11:51:38Z</time>
      </trkpt>
      <trkpt lat="47.00139" lon="5.80435">
        <ele>332</ele>
        <time>2020-07-07T11:51:40Z</time>
      </trkpt>
      <trkpt lat="47.00132" lon="5.80438">
        <ele>332.4</ele>
        <time>2020-07-07T11:51:42Z</time>
      </trkpt>
      <trkpt lat="47.00127" lon="5.80441">
        <ele>332.8</ele>
        <time>2020-07-07T11:51:44Z</time>
      </trkpt>
      <trkpt lat="47.00123" lon="5.80444">
        <ele>333.9</ele>
        <time>2020-07-07T11:51:48Z</time>
      </trkpt>
      <trkpt lat="47.00118" lon="5.80446">
        <ele>338.8</ele>
        <time>2020-07-07T11:52:00Z</time>
      </trkpt>
      <trkpt lat="47.00112" lon="5.80448">
        <ele>342.5</ele>
        <time>2020-07-07T11:52:07Z</time>
      </trkpt>
      <trkpt lat="47.00107" lon="5.8045">
        <ele>344</ele>
        <time>2020-07-07T11:52:10Z</time>
      </trkpt>
      <trkpt lat="47.00103" lon="5.8045">
        <ele>345.9</ele>
        <time>2020-07-07T11:52:16Z</time>
      </trkpt>
      <trkpt lat="47.00097" lon="5.80449">
        <ele>346.3</ele>
        <time>2020-07-07T11:52:19Z</time>
      </trkpt>
      <trkpt lat="47.00093" lon="5.80447">
        <ele>346.5</ele>
        <time>2020-07-07T11:52:24Z</time>
      </trkpt>
      <trkpt lat="47.00088" lon="5.80447">
        <ele>346.9</ele>
        <time>2020-07-07T11:52:31Z</time>
      </trkpt>
      <trkpt lat="47.00083" lon="5.80448">
        <ele>347.1</ele>
        <time>2020-07-07T11:52:33Z</time>
      </trkpt>
      <trkpt lat="47.00078" lon="5.80448">
        <ele>347.8</ele>
        <time>2020-07-07T11:52:37Z</time>
      </trkpt>
      <trkpt lat="47.00073" lon="5.80448">
        <ele>349.2</ele>
        <time>2020-07-07T11:52:44Z</time>
      </trkpt>
      <trkpt lat="47.00068" lon="5.80448">
        <ele>349.7</ele>
        <time>2020-07-07T11:52:47Z</time>
      </trkpt>
      <trkpt lat="47.00062" lon="5.80448">
        <ele>350</ele>
        <time>2020-07-07T11:52:50Z</time>
      </trkpt>
      <trkpt lat="47.00057" lon="5.80448">
        <ele>350.1</ele>
        <time>2020-07-07T11:52:53Z</time>
      </trkpt>
      <trkpt lat="47.00053" lon="5.8045">
        <ele>349.8</ele>
        <time>2020-07-07T11:52:59Z</time>
      </trkpt>
      <trkpt lat="47.00048" lon="5.80449">
        <ele>348.4</ele>
        <time>2020-07-07T11:53:07Z</time>
      </trkpt>
      <trkpt lat="47.00043" lon="5.80446">
        <ele>346.4</ele>
        <time>2020-07-07T11:53:14Z</time>
      </trkpt>
      <trkpt lat="47.00035" lon="5.80455">
        <ele>351.3</ele>
        <time>2020-07-07T11:55:03Z</time>
      </trkpt>
      <trkpt lat="47.00037" lon="5.80462">
        <ele>352.3</ele>
        <time>2020-07-07T11:55:08Z</time>
      </trkpt>
      <trkpt lat="47.00038" lon="5.80469">
        <ele>353</ele>
        <time>2020-07-07T11:55:11Z</time>
      </trkpt>
      <trkpt lat="47.0004" lon="5.80478">
        <ele>353.9</ele>
        <time>2020-07-07T11:55:15Z</time>
      </trkpt>
      <trkpt lat="47.0004" lon="5.80485">
        <ele>355.6</ele>
        <time>2020-07-07T11:55:21Z</time>
      </trkpt>
      <trkpt lat="47.00042" lon="5.80491">
        <ele>356.6</ele>
        <time>2020-07-07T11:55:26Z</time>
      </trkpt>
      <trkpt lat="47.00043" lon="5.80498">
        <ele>357.2</ele>
        <time>2020-07-07T11:55:30Z</time>
      </trkpt>
      <trkpt lat="47.00045" lon="5.80505">
        <ele>357.8</ele>
        <time>2020-07-07T11:55:34Z</time>
      </trkpt>
      <trkpt lat="47.00048" lon="5.80511">
        <ele>358.3</ele>
        <time>2020-07-07T11:55:37Z</time>
      </trkpt>
      <trkpt lat="47.00052" lon="5.80516">
        <ele>358.9</ele>
        <time>2020-07-07T11:55:41Z</time>
      </trkpt>
      <trkpt lat="47.00054" lon="5.80522">
        <ele>359.9</ele>
        <time>2020-07-07T11:55:47Z</time>
      </trkpt>
      <trkpt lat="47.00057" lon="5.80528">
        <ele>361.1</ele>
        <time>2020-07-07T11:55:54Z</time>
      </trkpt>
      <trkpt lat="47.00062" lon="5.8053">
        <ele>362.4</ele>
        <time>2020-07-07T11:56:01Z</time>
      </trkpt>
      <trkpt lat="47.00066" lon="5.80533">
        <ele>363.2</ele>
        <time>2020-07-07T11:56:06Z</time>
      </trkpt>
      <trkpt lat="47.00071" lon="5.80536">
        <ele>363.8</ele>
        <time>2020-07-07T11:56:11Z</time>
      </trkpt>
      <trkpt lat="47.00076" lon="5.80538">
        <ele>364.1</ele>
        <time>2020-07-07T11:56:14Z</time>
      </trkpt>
      <trkpt lat="47.0008" lon="5.8054">
        <ele>364.3</ele>
        <time>2020-07-07T11:56:17Z</time>
      </trkpt>
      <trkpt lat="47.00085" lon="5.80543">
        <ele>364.5</ele>
        <time>2020-07-07T11:56:22Z</time>
      </trkpt>
      <trkpt lat="47.0009" lon="5.80546">
        <ele>364.9</ele>
        <time>2020-07-07T11:56:27Z</time>
      </trkpt>
      <trkpt lat="47.00095" lon="5.8055">
        <ele>365.2</ele>
        <time>2020-07-07T11:56:32Z</time>
      </trkpt>
      <trkpt lat="47.00098" lon="5.80555">
        <ele>365.4</ele>
        <time>2020-07-07T11:56:36Z</time>
      </trkpt>
      <trkpt lat="47.00102" lon="5.80558">
        <ele>365.4</ele>
        <time>2020-07-07T11:56:40Z</time>
      </trkpt>
      <trkpt lat="47.00107" lon="5.80562">
        <ele>365.3</ele>
        <time>2020-07-07T11:56:44Z</time>
      </trkpt>
      <trkpt lat="47.00111" lon="5.80565">
        <ele>364.8</ele>
        <time>2020-07-07T11:56:49Z</time>
      </trkpt>
      <trkpt lat="47.00115" lon="5.80569">
        <ele>363.7</ele>
        <time>2020-07-07T11:56:57Z</time>
      </trkpt>
      <trkpt lat="47.00119" lon="5.80573">
        <ele>362.7</ele>
        <time>2020-07-07T11:57:04Z</time>
      </trkpt>
      <trkpt lat="47.00123" lon="5.80579">
        <ele>362.2</ele>
        <time>2020-07-07T11:57:08Z</time>
      </trkpt>
      <trkpt lat="47.00126" lon="5.80584">
        <ele>361.7</ele>
        <time>2020-07-07T11:57:11Z</time>
      </trkpt>
      <trkpt lat="47.00129" lon="5.80589">
        <ele>361.5</ele>
        <time>2020-07-07T11:57:15Z</time>
      </trkpt>
      <trkpt lat="47.00132" lon="5.80596">
        <ele>361.5</ele>
        <time>2020-07-07T11:57:22Z</time>
      </trkpt>
      <trkpt lat="47.00135" lon="5.80601">
        <ele>361.5</ele>
        <time>2020-07-07T11:57:26Z</time>
      </trkpt>
      <trkpt lat="47.00139" lon="5.80607">
        <ele>361.5</ele>
        <time>2020-07-07T11:57:29Z</time>
      </trkpt>
      <trkpt lat="47.00143" lon="5.80611">
        <ele>361.7</ele>
        <time>2020-07-07T11:57:35Z</time>
      </trkpt>
      <trkpt lat="47.00147" lon="5.80616">
        <ele>362.2</ele>
        <time>2020-07-07T11:57:41Z</time>
      </trkpt>
      <trkpt lat="47.00152" lon="5.8062">
        <ele>362.7</ele>
        <time>2020-07-07T11:57:46Z</time>
      </trkpt>
      <trkpt lat="47.00156" lon="5.80624">
        <ele>362.8</ele>
        <time>2020-07-07T11:57:51Z</time>
      </trkpt>
      <trkpt lat="47.0016" lon="5.80627">
        <ele>362.8</ele>
        <time>2020-07-07T11:57:58Z</time>
      </trkpt>
      <trkpt lat="47.00165" lon="5.8063">
        <ele>362.7</ele>
        <time>2020-07-07T11:58:07Z</time>
      </trkpt>
      <trkpt lat="47.0017" lon="5.80632">
        <ele>362.5</ele>
        <time>2020-07-07T11:58:12Z</time>
      </trkpt>
      <trkpt lat="47.00174" lon="5.80636">
        <ele>362.3</ele>
        <time>2020-07-07T11:58:19Z</time>
      </trkpt>
      <trkpt lat="47.00177" lon="5.80644">
        <ele>361.6</ele>
        <time>2020-07-07T11:58:32Z</time>
      </trkpt>
      <trkpt lat="47.00181" lon="5.80649">
        <ele>361.2</ele>
        <time>2020-07-07T11:58:40Z</time>
      </trkpt>
      <trkpt lat="47.00185" lon="5.80651">
        <ele>360.6</ele>
        <time>2020-07-07T11:58:46Z</time>
      </trkpt>
      <trkpt lat="47.00188" lon="5.80656">
        <ele>359.8</ele>
        <time>2020-07-07T11:58:52Z</time>
      </trkpt>
      <trkpt lat="47.00191" lon="5.80663">
        <ele>359</ele>
        <time>2020-07-07T11:58:58Z</time>
      </trkpt>
      <trkpt lat="47.00194" lon="5.80668">
        <ele>358.3</ele>
        <time>2020-07-07T11:59:02Z</time>
      </trkpt>
      <trkpt lat="47.00202" lon="5.80677">
        <ele>355.8</ele>
        <time>2020-07-07T11:59:09Z</time>
      </trkpt>
      <trkpt lat="47.00206" lon="5.80682">
        <ele>354.9</ele>
        <time>2020-07-07T11:59:13Z</time>
      </trkpt>
      <trkpt lat="47.0021" lon="5.80686">
        <ele>353.2</ele>
        <time>2020-07-07T11:59:19Z</time>
      </trkpt>
      <trkpt lat="47.00214" lon="5.8069">
        <ele>351</ele>
        <time>2020-07-07T11:59:26Z</time>
      </trkpt>
      <trkpt lat="47.00217" lon="5.80695">
        <ele>349.9</ele>
        <time>2020-07-07T11:59:30Z</time>
      </trkpt>
      <trkpt lat="47.0022" lon="5.80702">
        <ele>348.8</ele>
        <time>2020-07-07T11:59:34Z</time>
      </trkpt>
      <trkpt lat="47.00223" lon="5.8071">
        <ele>348.2</ele>
        <time>2020-07-07T11:59:37Z</time>
      </trkpt>
      <trkpt lat="47.00226" lon="5.80715">
        <ele>347.4</ele>
        <time>2020-07-07T11:59:42Z</time>
      </trkpt>
      <trkpt lat="47.00231" lon="5.80721">
        <ele>346.6</ele>
        <time>2020-07-07T11:59:48Z</time>
      </trkpt>
      <trkpt lat="47.00234" lon="5.80727">
        <ele>346</ele>
        <time>2020-07-07T11:59:52Z</time>
      </trkpt>
      <trkpt lat="47.00235" lon="5.80734">
        <ele>345.6</ele>
        <time>2020-07-07T12:00:03Z</time>
      </trkpt>
      <trkpt lat="47.00239" lon="5.80743">
        <ele>346.3</ele>
        <time>2020-07-07T12:00:07Z</time>
      </trkpt>
      <trkpt lat="47.00243" lon="5.80748">
        <ele>346.8</ele>
        <time>2020-07-07T12:00:09Z</time>
      </trkpt>
      <trkpt lat="47.00247" lon="5.80754">
        <ele>347.4</ele>
        <time>2020-07-07T12:00:11Z</time>
      </trkpt>
      <trkpt lat="47.0025" lon="5.80759">
        <ele>348.5</ele>
        <time>2020-07-07T12:00:14Z</time>
      </trkpt>
      <trkpt lat="47.00252" lon="5.80766">
        <ele>350</ele>
        <time>2020-07-07T12:00:18Z</time>
      </trkpt>
      <trkpt lat="47.00254" lon="5.80772">
        <ele>351.8</ele>
        <time>2020-07-07T12:00:23Z</time>
      </trkpt>
      <trkpt lat="47.00255" lon="5.80779">
        <ele>353.3</ele>
        <time>2020-07-07T12:00:28Z</time>
      </trkpt>
      <trkpt lat="47.00259" lon="5.80783">
        <ele>354.9</ele>
        <time>2020-07-07T12:00:35Z</time>
      </trkpt>
      <trkpt lat="47.00261" lon="5.80789">
        <ele>355.7</ele>
        <time>2020-07-07T12:00:42Z</time>
      </trkpt>
      <trkpt lat="47.00264" lon="5.80794">
        <ele>356.5</ele>
        <time>2020-07-07T12:00:52Z</time>
      </trkpt>
      <trkpt lat="47.00274" lon="5.80803">
        <ele>358</ele>
        <time>2020-07-07T12:01:06Z</time>
      </trkpt>
      <trkpt lat="47.0027" lon="5.80807">
        <ele>360.3</ele>
        <time>2020-07-07T12:01:35Z</time>
      </trkpt>
      <trkpt lat="47.00265" lon="5.80806">
        <ele>360.8</ele>
        <time>2020-07-07T12:01:39Z</time>
      </trkpt>
      <trkpt lat="47.00259" lon="5.80804">
        <ele>361.1</ele>
        <time>2020-07-07T12:01:43Z</time>
      </trkpt>
      <trkpt lat="47.00255" lon="5.80801">
        <ele>361.2</ele>
        <time>2020-07-07T12:01:56Z</time>
      </trkpt>
      <trkpt lat="47.00257" lon="5.80793">
        <ele>363.8</ele>
        <time>2020-07-07T12:02:38Z</time>
      </trkpt>
      <trkpt lat="47.00261" lon="5.80782">
        <ele>368.5</ele>
        <time>2020-07-07T12:02:50Z</time>
      </trkpt>
      <trkpt lat="47.00265" lon="5.80787">
        <ele>374.6</ele>
        <time>2020-07-07T12:03:19Z</time>
      </trkpt>
      <trkpt lat="47.00269" lon="5.80793">
        <ele>376.8</ele>
        <time>2020-07-07T12:03:27Z</time>
      </trkpt>
      <trkpt lat="47.00271" lon="5.80799">
        <ele>377.2</ele>
        <time>2020-07-07T12:03:30Z</time>
      </trkpt>
      <trkpt lat="47.00274" lon="5.80805">
        <ele>377.6</ele>
        <time>2020-07-07T12:03:39Z</time>
      </trkpt>
      <trkpt lat="47.00277" lon="5.8081">
        <ele>377.4</ele>
        <time>2020-07-07T12:03:42Z</time>
      </trkpt>
      <trkpt lat="47.00278" lon="5.80816">
        <ele>377.8</ele>
        <time>2020-07-07T12:03:57Z</time>
      </trkpt>
      <trkpt lat="47.00278" lon="5.80824">
        <ele>379.3</ele>
        <time>2020-07-07T12:04:11Z</time>
      </trkpt>
      <trkpt lat="47.00269" lon="5.80842">
        <ele>381.7</ele>
        <time>2020-07-07T12:04:34Z</time>
      </trkpt>
      <trkpt lat="47.00265" lon="5.80847">
        <ele>381.8</ele>
        <time>2020-07-07T12:04:42Z</time>
      </trkpt>
      <trkpt lat="47.0026" lon="5.80848">
        <ele>382.1</ele>
        <time>2020-07-07T12:04:45Z</time>
      </trkpt>
      <trkpt lat="47.00255" lon="5.80852">
        <ele>382.4</ele>
        <time>2020-07-07T12:04:49Z</time>
      </trkpt>
      <trkpt lat="47.00254" lon="5.8086">
        <ele>382</ele>
        <time>2020-07-07T12:04:55Z</time>
      </trkpt>
      <trkpt lat="47.00256" lon="5.80867">
        <ele>380.7</ele>
        <time>2020-07-07T12:05:02Z</time>
      </trkpt>
      <trkpt lat="47.00257" lon="5.80874">
        <ele>379.6</ele>
        <time>2020-07-07T12:05:09Z</time>
      </trkpt>
      <trkpt lat="47.00256" lon="5.80888">
        <ele>379.8</ele>
        <time>2020-07-07T12:05:14Z</time>
      </trkpt>
      <trkpt lat="47.00255" lon="5.809">
        <ele>379.9</ele>
        <time>2020-07-07T12:05:16Z</time>
      </trkpt>
      <trkpt lat="47.00254" lon="5.80907">
        <ele>380.2</ele>
        <time>2020-07-07T12:05:19Z</time>
      </trkpt>
      <trkpt lat="47.00253" lon="5.80914">
        <ele>379.4</ele>
        <time>2020-07-07T12:05:30Z</time>
      </trkpt>
      <trkpt lat="47.00251" lon="5.8092">
        <ele>375.3</ele>
        <time>2020-07-07T12:05:41Z</time>
      </trkpt>
      <trkpt lat="47.00249" lon="5.80937">
        <ele>361.5</ele>
        <time>2020-07-07T12:06:17Z</time>
      </trkpt>
      <trkpt lat="47.00249" lon="5.80945">
        <ele>361.4</ele>
        <time>2020-07-07T12:06:21Z</time>
      </trkpt>
      <trkpt lat="47.00248" lon="5.80951">
        <ele>361.6</ele>
        <time>2020-07-07T12:06:25Z</time>
      </trkpt>
      <trkpt lat="47.00248" lon="5.80958">
        <ele>362.2</ele>
        <time>2020-07-07T12:06:33Z</time>
      </trkpt>
      <trkpt lat="47.00247" lon="5.80966">
        <ele>362.8</ele>
        <time>2020-07-07T12:06:38Z</time>
      </trkpt>
      <trkpt lat="47.00244" lon="5.80973">
        <ele>363.9</ele>
        <time>2020-07-07T12:06:48Z</time>
      </trkpt>
      <trkpt lat="47.00242" lon="5.80979">
        <ele>364.4</ele>
        <time>2020-07-07T12:06:52Z</time>
      </trkpt>
      <trkpt lat="47.00241" lon="5.80986">
        <ele>365</ele>
        <time>2020-07-07T12:06:56Z</time>
      </trkpt>
      <trkpt lat="47.00238" lon="5.80991">
        <ele>365.6</ele>
        <time>2020-07-07T12:07:00Z</time>
      </trkpt>
      <trkpt lat="47.00235" lon="5.80999">
        <ele>366.1</ele>
        <time>2020-07-07T12:07:04Z</time>
      </trkpt>
      <trkpt lat="47.00233" lon="5.81005">
        <ele>366.8</ele>
        <time>2020-07-07T12:07:09Z</time>
      </trkpt>
      <trkpt lat="47.00229" lon="5.81011">
        <ele>367.5</ele>
        <time>2020-07-07T12:07:15Z</time>
      </trkpt>
      <trkpt lat="47.00225" lon="5.8102">
        <ele>367.9</ele>
        <time>2020-07-07T12:07:19Z</time>
      </trkpt>
      <trkpt lat="47.00222" lon="5.81026">
        <ele>368.7</ele>
        <time>2020-07-07T12:07:27Z</time>
      </trkpt>
      <trkpt lat="47.00219" lon="5.81031">
        <ele>368.9</ele>
        <time>2020-07-07T12:07:31Z</time>
      </trkpt>
      <trkpt lat="47.00215" lon="5.81036">
        <ele>368.9</ele>
        <time>2020-07-07T12:07:39Z</time>
      </trkpt>
      <trkpt lat="47.00211" lon="5.81042">
        <ele>368.9</ele>
        <time>2020-07-07T12:07:45Z</time>
      </trkpt>
      <trkpt lat="47.002" lon="5.81062">
        <ele>368.8</ele>
        <time>2020-07-07T12:08:00Z</time>
      </trkpt>
      <trkpt lat="47.00198" lon="5.8107">
        <ele>368.6</ele>
        <time>2020-07-07T12:08:05Z</time>
      </trkpt>
      <trkpt lat="47.00192" lon="5.81081">
        <ele>367.8</ele>
        <time>2020-07-07T12:08:16Z</time>
      </trkpt>
      <trkpt lat="47.00188" lon="5.8109">
        <ele>367.6</ele>
        <time>2020-07-07T12:08:22Z</time>
      </trkpt>
      <trkpt lat="47.00185" lon="5.81097">
        <ele>367.7</ele>
        <time>2020-07-07T12:08:25Z</time>
      </trkpt>
      <trkpt lat="47.00183" lon="5.81104">
        <ele>367.8</ele>
        <time>2020-07-07T12:08:27Z</time>
      </trkpt>
      <trkpt lat="47.00182" lon="5.81111">
        <ele>368</ele>
        <time>2020-07-07T12:08:29Z</time>
      </trkpt>
      <trkpt lat="47.00178" lon="5.81118">
        <ele>368.5</ele>
        <time>2020-07-07T12:08:32Z</time>
      </trkpt>
      <trkpt lat="47.00175" lon="5.81124">
        <ele>370.2</ele>
        <time>2020-07-07T12:08:39Z</time>
      </trkpt>
      <trkpt lat="47.00174" lon="5.81131">
        <ele>371</ele>
        <time>2020-07-07T12:08:42Z</time>
      </trkpt>
      <trkpt lat="47.00173" lon="5.81138">
        <ele>371.8</ele>
        <time>2020-07-07T12:08:45Z</time>
      </trkpt>
      <trkpt lat="47.00171" lon="5.81145">
        <ele>372.7</ele>
        <time>2020-07-07T12:08:48Z</time>
      </trkpt>
      <trkpt lat="47.00168" lon="5.81151">
        <ele>374.1</ele>
        <time>2020-07-07T12:08:53Z</time>
      </trkpt>
      <trkpt lat="47.00167" lon="5.81158">
        <ele>375.1</ele>
        <time>2020-07-07T12:08:57Z</time>
      </trkpt>
      <trkpt lat="47.00165" lon="5.81165">
        <ele>376</ele>
        <time>2020-07-07T12:09:02Z</time>
      </trkpt>
      <trkpt lat="47.00165" lon="5.81172">
        <ele>376.7</ele>
        <time>2020-07-07T12:09:08Z</time>
      </trkpt>
      <trkpt lat="47.00162" lon="5.81177">
        <ele>377.4</ele>
        <time>2020-07-07T12:09:19Z</time>
      </trkpt>
      <trkpt lat="47.00161" lon="5.81186">
        <ele>377.5</ele>
        <time>2020-07-07T12:09:25Z</time>
      </trkpt>
      <trkpt lat="47.00159" lon="5.81193">
        <ele>377.5</ele>
        <time>2020-07-07T12:09:27Z</time>
      </trkpt>
      <trkpt lat="47.00157" lon="5.812">
        <ele>377.6</ele>
        <time>2020-07-07T12:09:31Z</time>
      </trkpt>
      <trkpt lat="47.00156" lon="5.81206">
        <ele>378.2</ele>
        <time>2020-07-07T12:09:39Z</time>
      </trkpt>
      <trkpt lat="47.00157" lon="5.81215">
        <ele>378.6</ele>
        <time>2020-07-07T12:09:43Z</time>
      </trkpt>
      <trkpt lat="47.00159" lon="5.81223">
        <ele>378.8</ele>
        <time>2020-07-07T12:09:46Z</time>
      </trkpt>
      <trkpt lat="47.00159" lon="5.8123">
        <ele>378.8</ele>
        <time>2020-07-07T12:09:51Z</time>
      </trkpt>
      <trkpt lat="47.00158" lon="5.81238">
        <ele>378.3</ele>
        <time>2020-07-07T12:09:59Z</time>
      </trkpt>
      <trkpt lat="47.00156" lon="5.81245">
        <ele>377.9</ele>
        <time>2020-07-07T12:10:08Z</time>
      </trkpt>
      <trkpt lat="47.00155" lon="5.81252">
        <ele>377.9</ele>
        <time>2020-07-07T12:10:12Z</time>
      </trkpt>
      <trkpt lat="47.00153" lon="5.81259">
        <ele>378</ele>
        <time>2020-07-07T12:10:19Z</time>
      </trkpt>
      <trkpt lat="47.00154" lon="5.81267">
        <ele>378</ele>
        <time>2020-07-07T12:10:22Z</time>
      </trkpt>
      <trkpt lat="47.00154" lon="5.81275">
        <ele>377.9</ele>
        <time>2020-07-07T12:10:25Z</time>
      </trkpt>
      <trkpt lat="47.00152" lon="5.81283">
        <ele>377.6</ele>
        <time>2020-07-07T12:10:28Z</time>
      </trkpt>
      <trkpt lat="47.00153" lon="5.8129">
        <ele>376.6</ele>
        <time>2020-07-07T12:10:33Z</time>
      </trkpt>
      <trkpt lat="47.00155" lon="5.81316">
        <ele>363.5</ele>
        <time>2020-07-07T12:11:14Z</time>
      </trkpt>
      <trkpt lat="47.00154" lon="5.81323">
        <ele>363.1</ele>
        <time>2020-07-07T12:11:17Z</time>
      </trkpt>
      <trkpt lat="47.00154" lon="5.8133">
        <ele>362.3</ele>
        <time>2020-07-07T12:11:25Z</time>
      </trkpt>
      <trkpt lat="47.00153" lon="5.81336">
        <ele>362.3</ele>
        <time>2020-07-07T12:11:36Z</time>
      </trkpt>
      <trkpt lat="47.00153" lon="5.81344">
        <ele>361.8</ele>
        <time>2020-07-07T12:11:47Z</time>
      </trkpt>
      <trkpt lat="47.0015" lon="5.81361">
        <ele>360.8</ele>
        <time>2020-07-07T12:11:59Z</time>
      </trkpt>
      <trkpt lat="47.00149" lon="5.81368">
        <ele>359.2</ele>
        <time>2020-07-07T12:12:09Z</time>
      </trkpt>
      <trkpt lat="47.00148" lon="5.81377">
        <ele>357.6</ele>
        <time>2020-07-07T12:12:20Z</time>
      </trkpt>
      <trkpt lat="47.00148" lon="5.81386">
        <ele>356.8</ele>
        <time>2020-07-07T12:12:25Z</time>
      </trkpt>
      <trkpt lat="47.00147" lon="5.81394">
        <ele>356.3</ele>
        <time>2020-07-07T12:12:28Z</time>
      </trkpt>
      <trkpt lat="47.00147" lon="5.81403">
        <ele>355.7</ele>
        <time>2020-07-07T12:12:32Z</time>
      </trkpt>
      <trkpt lat="47.00146" lon="5.81409">
        <ele>355.4</ele>
        <time>2020-07-07T12:12:35Z</time>
      </trkpt>
      <trkpt lat="47.00144" lon="5.81417">
        <ele>355.8</ele>
        <time>2020-07-07T12:12:58Z</time>
      </trkpt>
      <trkpt lat="47.00142" lon="5.81424">
        <ele>356.3</ele>
        <time>2020-07-07T12:13:05Z</time>
      </trkpt>
      <trkpt lat="47.0014" lon="5.81433">
        <ele>356.9</ele>
        <time>2020-07-07T12:13:15Z</time>
      </trkpt>
      <trkpt lat="47.00139" lon="5.8144">
        <ele>356.9</ele>
        <time>2020-07-07T12:13:17Z</time>
      </trkpt>
      <trkpt lat="47.00138" lon="5.81446">
        <ele>356.8</ele>
        <time>2020-07-07T12:13:25Z</time>
      </trkpt>
      <trkpt lat="47.00136" lon="5.81461">
        <ele>356.8</ele>
        <time>2020-07-07T12:13:41Z</time>
      </trkpt>
      <trkpt lat="47.00132" lon="5.81482">
        <ele>356.9</ele>
        <time>2020-07-07T12:13:49Z</time>
      </trkpt>
      <trkpt lat="47.00131" lon="5.81488">
        <ele>357.2</ele>
        <time>2020-07-07T12:13:55Z</time>
      </trkpt>
      <trkpt lat="47.00131" lon="5.81495">
        <ele>357.7</ele>
        <time>2020-07-07T12:14:03Z</time>
      </trkpt>
      <trkpt lat="47.00131" lon="5.81523">
        <ele>360</ele>
        <time>2020-07-07T12:14:34Z</time>
      </trkpt>
      <trkpt lat="47.0013" lon="5.81532">
        <ele>360.4</ele>
        <time>2020-07-07T12:14:38Z</time>
      </trkpt>
      <trkpt lat="47.00129" lon="5.8154">
        <ele>361.3</ele>
        <time>2020-07-07T12:14:43Z</time>
      </trkpt>
      <trkpt lat="47.00128" lon="5.81548">
        <ele>362.4</ele>
        <time>2020-07-07T12:14:48Z</time>
      </trkpt>
      <trkpt lat="47.00126" lon="5.81554">
        <ele>363.9</ele>
        <time>2020-07-07T12:14:56Z</time>
      </trkpt>
      <trkpt lat="47.00126" lon="5.81561">
        <ele>364.4</ele>
        <time>2020-07-07T12:14:59Z</time>
      </trkpt>
      <trkpt lat="47.00125" lon="5.81569">
        <ele>366.3</ele>
        <time>2020-07-07T12:15:09Z</time>
      </trkpt>
      <trkpt lat="47.00123" lon="5.81576">
        <ele>367.4</ele>
        <time>2020-07-07T12:15:19Z</time>
      </trkpt>
      <trkpt lat="47.00122" lon="5.81584">
        <ele>367.8</ele>
        <time>2020-07-07T12:15:24Z</time>
      </trkpt>
      <trkpt lat="47.0012" lon="5.81592">
        <ele>368.1</ele>
        <time>2020-07-07T12:15:29Z</time>
      </trkpt>
      <trkpt lat="47.00122" lon="5.81599">
        <ele>368.4</ele>
        <time>2020-07-07T12:15:39Z</time>
      </trkpt>
      <trkpt lat="47.00124" lon="5.81605">
        <ele>368.2</ele>
        <time>2020-07-07T12:15:54Z</time>
      </trkpt>
      <trkpt lat="47.00124" lon="5.81613">
        <ele>368.1</ele>
        <time>2020-07-07T12:16:02Z</time>
      </trkpt>
      <trkpt lat="47.00123" lon="5.8162">
        <ele>368</ele>
        <time>2020-07-07T12:16:05Z</time>
      </trkpt>
      <trkpt lat="47.00123" lon="5.81627">
        <ele>367.8</ele>
        <time>2020-07-07T12:16:13Z</time>
      </trkpt>
      <trkpt lat="47.00123" lon="5.81634">
        <ele>367.6</ele>
        <time>2020-07-07T12:16:19Z</time>
      </trkpt>
      <trkpt lat="47.00122" lon="5.81642">
        <ele>367.6</ele>
        <time>2020-07-07T12:16:21Z</time>
      </trkpt>
      <trkpt lat="47.00122" lon="5.81664">
        <ele>365.7</ele>
        <time>2020-07-07T12:17:01Z</time>
      </trkpt>
      <trkpt lat="47.00121" lon="5.81673">
        <ele>365.5</ele>
        <time>2020-07-07T12:17:03Z</time>
      </trkpt>
      <trkpt lat="47.0012" lon="5.8168">
        <ele>365.3</ele>
        <time>2020-07-07T12:17:05Z</time>
      </trkpt>
      <trkpt lat="47.0012" lon="5.81686">
        <ele>364</ele>
        <time>2020-07-07T12:17:16Z</time>
      </trkpt>
      <trkpt lat="47.0012" lon="5.81693">
        <ele>363.4</ele>
        <time>2020-07-07T12:17:29Z</time>
      </trkpt>
      <trkpt lat="47.0012" lon="5.817">
        <ele>363.1</ele>
        <time>2020-07-07T12:17:36Z</time>
      </trkpt>
      <trkpt lat="47.0012" lon="5.81708">
        <ele>363</ele>
        <time>2020-07-07T12:17:38Z</time>
      </trkpt>
      <trkpt lat="47.00119" lon="5.81716">
        <ele>363</ele>
        <time>2020-07-07T12:17:40Z</time>
      </trkpt>
      <trkpt lat="47.00118" lon="5.81724">
        <ele>362.9</ele>
        <time>2020-07-07T12:17:42Z</time>
      </trkpt>
      <trkpt lat="47.00114" lon="5.81743">
        <ele>363.4</ele>
        <time>2020-07-07T12:18:13Z</time>
      </trkpt>
      <trkpt lat="47.00113" lon="5.8175">
        <ele>360.9</ele>
        <time>2020-07-07T12:18:28Z</time>
      </trkpt>
      <trkpt lat="47.00114" lon="5.81756">
        <ele>360.4</ele>
        <time>2020-07-07T12:18:40Z</time>
      </trkpt>
      <trkpt lat="47.00116" lon="5.81766">
        <ele>360.3</ele>
        <time>2020-07-07T12:18:44Z</time>
      </trkpt>
      <trkpt lat="47.00117" lon="5.81772">
        <ele>360.3</ele>
        <time>2020-07-07T12:18:47Z</time>
      </trkpt>
      <trkpt lat="47.0012" lon="5.81783">
        <ele>360.5</ele>
        <time>2020-07-07T12:18:51Z</time>
      </trkpt>
      <trkpt lat="47.00122" lon="5.81795">
        <ele>360.6</ele>
        <time>2020-07-07T12:18:53Z</time>
      </trkpt>
      <trkpt lat="47.00125" lon="5.81803">
        <ele>360.7</ele>
        <time>2020-07-07T12:18:55Z</time>
      </trkpt>
      <trkpt lat="47.00129" lon="5.8181">
        <ele>360.8</ele>
        <time>2020-07-07T12:18:58Z</time>
      </trkpt>
      <trkpt lat="47.00132" lon="5.81815">
        <ele>361.1</ele>
        <time>2020-07-07T12:19:03Z</time>
      </trkpt>
      <trkpt lat="47.00136" lon="5.8182">
        <ele>361.3</ele>
        <time>2020-07-07T12:19:10Z</time>
      </trkpt>
      <trkpt lat="47.00136" lon="5.81826">
        <ele>361.1</ele>
        <time>2020-07-07T12:19:14Z</time>
      </trkpt>
      <trkpt lat="47.00138" lon="5.81832">
        <ele>359.7</ele>
        <time>2020-07-07T12:19:23Z</time>
      </trkpt>
      <trkpt lat="47.00135" lon="5.81839">
        <ele>357.9</ele>
        <time>2020-07-07T12:19:29Z</time>
      </trkpt>
      <trkpt lat="47.00133" lon="5.81845">
        <ele>355.8</ele>
        <time>2020-07-07T12:19:35Z</time>
      </trkpt>
      <trkpt lat="47.00134" lon="5.81852">
        <ele>353.8</ele>
        <time>2020-07-07T12:19:41Z</time>
      </trkpt>
      <trkpt lat="47.00135" lon="5.81862">
        <ele>341.2</ele>
        <time>2020-07-07T12:20:56Z</time>
      </trkpt>
      <trkpt lat="47.00139" lon="5.81858">
        <ele>340.9</ele>
        <time>2020-07-07T12:22:13Z</time>
      </trkpt>
      <trkpt lat="47.00143" lon="5.81855">
        <ele>341.1</ele>
        <time>2020-07-07T12:22:24Z</time>
      </trkpt>
      <trkpt lat="47.00147" lon="5.81856">
        <ele>342.1</ele>
        <time>2020-07-07T12:22:51Z</time>
      </trkpt>
      <trkpt lat="47.00143" lon="5.81853">
        <ele>344.7</ele>
        <time>2020-07-07T12:23:41Z</time>
      </trkpt>
      <trkpt lat="47.00147" lon="5.81858">
        <ele>345.7</ele>
        <time>2020-07-07T12:23:58Z</time>
      </trkpt>
      <trkpt lat="47.00151" lon="5.81857">
        <ele>345.1</ele>
        <time>2020-07-07T12:25:05Z</time>
      </trkpt>
      <trkpt lat="47.00155" lon="5.8186">
        <ele>346.8</ele>
        <time>2020-07-07T12:25:20Z</time>
      </trkpt>
      <trkpt lat="47.00151" lon="5.81851">
        <ele>350.6</ele>
        <time>2020-07-07T12:26:00Z</time>
      </trkpt>
      <trkpt lat="47.00154" lon="5.81856">
        <ele>352.5</ele>
        <time>2020-07-07T12:26:25Z</time>
      </trkpt>
      <trkpt lat="47.00149" lon="5.81856">
        <ele>353</ele>
        <time>2020-07-07T12:26:34Z</time>
      </trkpt>
      <trkpt lat="47.00145" lon="5.81853">
        <ele>353.1</ele>
        <time>2020-07-07T12:26:38Z</time>
      </trkpt>
      <trkpt lat="47.0014" lon="5.81849">
        <ele>353.1</ele>
        <time>2020-07-07T12:26:41Z</time>
      </trkpt>
      <trkpt lat="47.00136" lon="5.81844">
        <ele>353</ele>
        <time>2020-07-07T12:26:44Z</time>
      </trkpt>
      <trkpt lat="47.00132" lon="5.81839">
        <ele>352.9</ele>
        <time>2020-07-07T12:26:48Z</time>
      </trkpt>
      <trkpt lat="47.00129" lon="5.81834">
        <ele>352.6</ele>
        <time>2020-07-07T12:26:54Z</time>
      </trkpt>
      <trkpt lat="47.0013" lon="5.81839">
        <ele>346.2</ele>
        <time>2020-07-07T12:29:40Z</time>
      </trkpt>
      <trkpt lat="47.00126" lon="5.81841">
        <ele>341</ele>
        <time>2020-07-07T12:31:17Z</time>
      </trkpt>
      <trkpt lat="47.00121" lon="5.81839">
        <ele>339.2</ele>
        <time>2020-07-07T12:31:25Z</time>
      </trkpt>
      <trkpt lat="47.00116" lon="5.81839">
        <ele>338.5</ele>
        <time>2020-07-07T12:31:29Z</time>
      </trkpt>
      <trkpt lat="47.00102" lon="5.81827">
        <ele>337.7</ele>
        <time>2020-07-07T12:31:56Z</time>
      </trkpt>
      <trkpt lat="47.001" lon="5.81819">
        <ele>337.8</ele>
        <time>2020-07-07T12:32:01Z</time>
      </trkpt>
      <trkpt lat="47.00098" lon="5.81813">
        <ele>338.2</ele>
        <time>2020-07-07T12:32:15Z</time>
      </trkpt>
      <trkpt lat="47.00099" lon="5.81805">
        <ele>340.9</ele>
        <time>2020-07-07T12:32:36Z</time>
      </trkpt>
      <trkpt lat="47.00099" lon="5.81798">
        <ele>341.4</ele>
        <time>2020-07-07T12:32:39Z</time>
      </trkpt>
      <trkpt lat="47.00099" lon="5.8179">
        <ele>342.1</ele>
        <time>2020-07-07T12:32:44Z</time>
      </trkpt>
      <trkpt lat="47.00102" lon="5.81783">
        <ele>342.9</ele>
        <time>2020-07-07T12:32:49Z</time>
      </trkpt>
      <trkpt lat="47.00104" lon="5.81777">
        <ele>344.6</ele>
        <time>2020-07-07T12:32:57Z</time>
      </trkpt>
      <trkpt lat="47.00107" lon="5.81771">
        <ele>346.9</ele>
        <time>2020-07-07T12:33:10Z</time>
      </trkpt>
      <trkpt lat="47.00107" lon="5.81764">
        <ele>347.5</ele>
        <time>2020-07-07T12:33:14Z</time>
      </trkpt>
      <trkpt lat="47.00109" lon="5.8175">
        <ele>348</ele>
        <time>2020-07-07T12:33:37Z</time>
      </trkpt>
      <trkpt lat="47.00104" lon="5.81743">
        <ele>348.5</ele>
        <time>2020-07-07T12:33:48Z</time>
      </trkpt>
      <trkpt lat="47.001" lon="5.8174">
        <ele>348.6</ele>
        <time>2020-07-07T12:33:50Z</time>
      </trkpt>
      <trkpt lat="47.00096" lon="5.81735">
        <ele>348.6</ele>
        <time>2020-07-07T12:33:54Z</time>
      </trkpt>
      <trkpt lat="47.00094" lon="5.81727">
        <ele>348.6</ele>
        <time>2020-07-07T12:34:02Z</time>
      </trkpt>
      <trkpt lat="47.00091" lon="5.81721">
        <ele>348.5</ele>
        <time>2020-07-07T12:34:05Z</time>
      </trkpt>
      <trkpt lat="47.00087" lon="5.81717">
        <ele>348</ele>
        <time>2020-07-07T12:34:14Z</time>
      </trkpt>
      <trkpt lat="47.00083" lon="5.81712">
        <ele>347.5</ele>
        <time>2020-07-07T12:34:24Z</time>
      </trkpt>
      <trkpt lat="47.00073" lon="5.81704">
        <ele>347.5</ele>
        <time>2020-07-07T12:34:41Z</time>
      </trkpt>
      <trkpt lat="47.00068" lon="5.817">
        <ele>347.7</ele>
        <time>2020-07-07T12:34:44Z</time>
      </trkpt>
      <trkpt lat="47.00064" lon="5.81699">
        <ele>347.9</ele>
        <time>2020-07-07T12:34:46Z</time>
      </trkpt>
      <trkpt lat="47.00059" lon="5.81698">
        <ele>348.3</ele>
        <time>2020-07-07T12:34:52Z</time>
      </trkpt>
      <trkpt lat="47.00054" lon="5.81697">
        <ele>348.6</ele>
        <time>2020-07-07T12:35:00Z</time>
      </trkpt>
      <trkpt lat="47.00049" lon="5.81697">
        <ele>349</ele>
        <time>2020-07-07T12:35:11Z</time>
      </trkpt>
      <trkpt lat="47.00044" lon="5.81699">
        <ele>349.5</ele>
        <time>2020-07-07T12:35:18Z</time>
      </trkpt>
      <trkpt lat="47.0004" lon="5.81702">
        <ele>349.9</ele>
        <time>2020-07-07T12:35:27Z</time>
      </trkpt>
      <trkpt lat="47.00036" lon="5.81705">
        <ele>349.9</ele>
        <time>2020-07-07T12:35:34Z</time>
      </trkpt>
      <trkpt lat="47.00031" lon="5.81707">
        <ele>349.6</ele>
        <time>2020-07-07T12:35:47Z</time>
      </trkpt>
      <trkpt lat="47.00026" lon="5.8171">
        <ele>349.6</ele>
        <time>2020-07-07T12:35:50Z</time>
      </trkpt>
      <trkpt lat="47.00018" lon="5.81714">
        <ele>352.5</ele>
        <time>2020-07-07T12:36:05Z</time>
      </trkpt>
      <trkpt lat="47.00014" lon="5.81719">
        <ele>354.3</ele>
        <time>2020-07-07T12:36:11Z</time>
      </trkpt>
      <trkpt lat="47.0001" lon="5.81722">
        <ele>356</ele>
        <time>2020-07-07T12:36:27Z</time>
      </trkpt>
      <trkpt lat="47.00005" lon="5.81724">
        <ele>356</ele>
        <time>2020-07-07T12:36:33Z</time>
      </trkpt>
      <trkpt lat="47.00001" lon="5.81729">
        <ele>356.2</ele>
        <time>2020-07-07T12:36:39Z</time>
      </trkpt>
      <trkpt lat="46.99996" lon="5.81734">
        <ele>356.3</ele>
        <time>2020-07-07T12:36:41Z</time>
      </trkpt>
      <trkpt lat="46.99992" lon="5.81739">
        <ele>356.7</ele>
        <time>2020-07-07T12:36:45Z</time>
      </trkpt>
      <trkpt lat="46.99989" lon="5.81746">
        <ele>357.1</ele>
        <time>2020-07-07T12:36:51Z</time>
      </trkpt>
      <trkpt lat="46.99981" lon="5.81748">
        <ele>355.4</ele>
        <time>2020-07-07T12:37:13Z</time>
      </trkpt>
      <trkpt lat="46.99976" lon="5.81747">
        <ele>354.7</ele>
        <time>2020-07-07T12:37:20Z</time>
      </trkpt>
      <trkpt lat="46.99971" lon="5.81748">
        <ele>354.5</ele>
        <time>2020-07-07T12:37:29Z</time>
      </trkpt>
      <trkpt lat="46.99967" lon="5.81749">
        <ele>354.4</ele>
        <time>2020-07-07T12:37:33Z</time>
      </trkpt>
      <trkpt lat="46.99961" lon="5.81751">
        <ele>354.1</ele>
        <time>2020-07-07T12:37:45Z</time>
      </trkpt>
      <trkpt lat="46.99955" lon="5.81753">
        <ele>353.7</ele>
        <time>2020-07-07T12:37:51Z</time>
      </trkpt>
      <trkpt lat="46.9995" lon="5.81755">
        <ele>353.4</ele>
        <time>2020-07-07T12:37:53Z</time>
      </trkpt>
      <trkpt lat="46.99945" lon="5.81757">
        <ele>352.5</ele>
        <time>2020-07-07T12:38:07Z</time>
      </trkpt>
      <trkpt lat="46.99929" lon="5.81763">
        <ele>345.5</ele>
        <time>2020-07-07T12:39:34Z</time>
      </trkpt>
      <trkpt lat="46.99924" lon="5.81763">
        <ele>345.1</ele>
        <time>2020-07-07T12:39:40Z</time>
      </trkpt>
      <trkpt lat="46.99919" lon="5.81764">
        <ele>345</ele>
        <time>2020-07-07T12:39:48Z</time>
      </trkpt>
      <trkpt lat="46.99913" lon="5.81765">
        <ele>345.2</ele>
        <time>2020-07-07T12:39:52Z</time>
      </trkpt>
      <trkpt lat="46.99908" lon="5.81767">
        <ele>345.3</ele>
        <time>2020-07-07T12:39:55Z</time>
      </trkpt>
      <trkpt lat="46.99903" lon="5.81767">
        <ele>345.5</ele>
        <time>2020-07-07T12:39:58Z</time>
      </trkpt>
      <trkpt lat="46.99898" lon="5.81768">
        <ele>345.6</ele>
        <time>2020-07-07T12:40:02Z</time>
      </trkpt>
      <trkpt lat="46.99894" lon="5.81769">
        <ele>345.8</ele>
        <time>2020-07-07T12:40:09Z</time>
      </trkpt>
      <trkpt lat="46.99889" lon="5.8177">
        <ele>346</ele>
        <time>2020-07-07T12:40:19Z</time>
      </trkpt>
      <trkpt lat="46.99884" lon="5.81769">
        <ele>346.2</ele>
        <time>2020-07-07T12:40:24Z</time>
      </trkpt>
      <trkpt lat="46.99879" lon="5.81768">
        <ele>346.4</ele>
        <time>2020-07-07T12:40:30Z</time>
      </trkpt>
      <trkpt lat="46.99873" lon="5.81768">
        <ele>346.7</ele>
        <time>2020-07-07T12:40:38Z</time>
      </trkpt>
      <trkpt lat="46.99867" lon="5.81766">
        <ele>347.2</ele>
        <time>2020-07-07T12:40:42Z</time>
      </trkpt>
      <trkpt lat="46.9986" lon="5.81764">
        <ele>347.8</ele>
        <time>2020-07-07T12:40:48Z</time>
      </trkpt>
      <trkpt lat="46.99855" lon="5.81764">
        <ele>348</ele>
        <time>2020-07-07T12:40:50Z</time>
      </trkpt>
      <trkpt lat="46.99849" lon="5.81763">
        <ele>348.1</ele>
        <time>2020-07-07T12:40:53Z</time>
      </trkpt>
      <trkpt lat="46.99842" lon="5.81762">
        <ele>348.1</ele>
        <time>2020-07-07T12:40:55Z</time>
      </trkpt>
      <trkpt lat="46.99834" lon="5.81761">
        <ele>348.1</ele>
        <time>2020-07-07T12:40:57Z</time>
      </trkpt>
      <trkpt lat="46.99829" lon="5.81761">
        <ele>348.1</ele>
        <time>2020-07-07T12:41:00Z</time>
      </trkpt>
      <trkpt lat="46.99824" lon="5.81762">
        <ele>348.1</ele>
        <time>2020-07-07T12:41:04Z</time>
      </trkpt>
      <trkpt lat="46.99819" lon="5.81763">
        <ele>348.4</ele>
        <time>2020-07-07T12:41:11Z</time>
      </trkpt>
      <trkpt lat="46.99815" lon="5.8176">
        <ele>348.5</ele>
        <time>2020-07-07T12:41:21Z</time>
      </trkpt>
      <trkpt lat="46.99811" lon="5.81756">
        <ele>348.1</ele>
        <time>2020-07-07T12:41:29Z</time>
      </trkpt>
      <trkpt lat="46.99806" lon="5.81752">
        <ele>347.9</ele>
        <time>2020-07-07T12:41:36Z</time>
      </trkpt>
      <trkpt lat="46.99802" lon="5.81748">
        <ele>347.8</ele>
        <time>2020-07-07T12:41:40Z</time>
      </trkpt>
      <trkpt lat="46.99791" lon="5.81739">
        <ele>347</ele>
        <time>2020-07-07T12:41:52Z</time>
      </trkpt>
      <trkpt lat="46.99788" lon="5.81734">
        <ele>346.5</ele>
        <time>2020-07-07T12:41:57Z</time>
      </trkpt>
      <trkpt lat="46.99784" lon="5.8173">
        <ele>345.7</ele>
        <time>2020-07-07T12:42:02Z</time>
      </trkpt>
      <trkpt lat="46.9977" lon="5.81727">
        <ele>344.2</ele>
        <time>2020-07-07T12:42:24Z</time>
      </trkpt>
      <trkpt lat="46.99765" lon="5.81726">
        <ele>344.6</ele>
        <time>2020-07-07T12:42:29Z</time>
      </trkpt>
      <trkpt lat="46.9976" lon="5.81725">
        <ele>346.1</ele>
        <time>2020-07-07T12:42:38Z</time>
      </trkpt>
      <trkpt lat="46.99756" lon="5.81723">
        <ele>346.8</ele>
        <time>2020-07-07T12:42:46Z</time>
      </trkpt>
      <trkpt lat="46.99751" lon="5.81721">
        <ele>348.1</ele>
        <time>2020-07-07T12:42:55Z</time>
      </trkpt>
      <trkpt lat="46.99746" lon="5.8172">
        <ele>350</ele>
        <time>2020-07-07T12:43:05Z</time>
      </trkpt>
      <trkpt lat="46.99737" lon="5.8172">
        <ele>350.5</ele>
        <time>2020-07-07T12:43:08Z</time>
      </trkpt>
      <trkpt lat="46.99729" lon="5.81717">
        <ele>350.8</ele>
        <time>2020-07-07T12:43:10Z</time>
      </trkpt>
      <trkpt lat="46.99723" lon="5.81715">
        <ele>351</ele>
        <time>2020-07-07T12:43:12Z</time>
      </trkpt>
      <trkpt lat="46.99718" lon="5.81714">
        <ele>351.4</ele>
        <time>2020-07-07T12:43:16Z</time>
      </trkpt>
      <trkpt lat="46.99714" lon="5.81711">
        <ele>352.1</ele>
        <time>2020-07-07T12:43:23Z</time>
      </trkpt>
      <trkpt lat="46.99709" lon="5.81711">
        <ele>352.4</ele>
        <time>2020-07-07T12:43:32Z</time>
      </trkpt>
      <trkpt lat="46.99705" lon="5.81707">
        <ele>352.1</ele>
        <time>2020-07-07T12:43:40Z</time>
      </trkpt>
      <trkpt lat="46.99701" lon="5.81704">
        <ele>351.9</ele>
        <time>2020-07-07T12:43:51Z</time>
      </trkpt>
      <trkpt lat="46.99696" lon="5.81699">
        <ele>351.6</ele>
        <time>2020-07-07T12:43:58Z</time>
      </trkpt>
      <trkpt lat="46.99689" lon="5.81696">
        <ele>351.4</ele>
        <time>2020-07-07T12:44:01Z</time>
      </trkpt>
      <trkpt lat="46.99682" lon="5.81692">
        <ele>351.3</ele>
        <time>2020-07-07T12:44:03Z</time>
      </trkpt>
      <trkpt lat="46.99678" lon="5.8169">
        <ele>351.2</ele>
        <time>2020-07-07T12:44:05Z</time>
      </trkpt>
      <trkpt lat="46.99673" lon="5.81686">
        <ele>351.2</ele>
        <time>2020-07-07T12:44:08Z</time>
      </trkpt>
      <trkpt lat="46.99668" lon="5.81685">
        <ele>350.9</ele>
        <time>2020-07-07T12:44:13Z</time>
      </trkpt>
      <trkpt lat="46.99655" lon="5.81676">
        <ele>348</ele>
        <time>2020-07-07T12:44:56Z</time>
      </trkpt>
      <trkpt lat="46.9965" lon="5.81674">
        <ele>348.1</ele>
        <time>2020-07-07T12:45:03Z</time>
      </trkpt>
      <trkpt lat="46.99646" lon="5.81673">
        <ele>347.7</ele>
        <time>2020-07-07T12:45:09Z</time>
      </trkpt>
      <trkpt lat="46.99641" lon="5.81672">
        <ele>345.6</ele>
        <time>2020-07-07T12:45:20Z</time>
      </trkpt>
      <trkpt lat="46.99636" lon="5.8167">
        <ele>343.1</ele>
        <time>2020-07-07T12:45:28Z</time>
      </trkpt>
      <trkpt lat="46.9963" lon="5.81668">
        <ele>340.5</ele>
        <time>2020-07-07T12:45:36Z</time>
      </trkpt>
      <trkpt lat="46.99626" lon="5.81667">
        <ele>339</ele>
        <time>2020-07-07T12:45:42Z</time>
      </trkpt>
      <trkpt lat="46.99621" lon="5.81666">
        <ele>337.8</ele>
        <time>2020-07-07T12:45:50Z</time>
      </trkpt>
      <trkpt lat="46.99616" lon="5.81664">
        <ele>337</ele>
        <time>2020-07-07T12:45:56Z</time>
      </trkpt>
      <trkpt lat="46.99611" lon="5.81662">
        <ele>336.5</ele>
        <time>2020-07-07T12:46:05Z</time>
      </trkpt>
      <trkpt lat="46.99607" lon="5.81662">
        <ele>336.4</ele>
        <time>2020-07-07T12:46:08Z</time>
      </trkpt>
      <trkpt lat="46.99601" lon="5.81661">
        <ele>336.3</ele>
        <time>2020-07-07T12:46:11Z</time>
      </trkpt>
      <trkpt lat="46.99594" lon="5.8166">
        <ele>336</ele>
        <time>2020-07-07T12:46:16Z</time>
      </trkpt>
      <trkpt lat="46.99589" lon="5.81658">
        <ele>335.7</ele>
        <time>2020-07-07T12:46:21Z</time>
      </trkpt>
      <trkpt lat="46.99584" lon="5.81656">
        <ele>335</ele>
        <time>2020-07-07T12:46:33Z</time>
      </trkpt>
      <trkpt lat="46.99579" lon="5.81655">
        <ele>334.9</ele>
        <time>2020-07-07T12:46:38Z</time>
      </trkpt>
      <trkpt lat="46.99574" lon="5.81653">
        <ele>335</ele>
        <time>2020-07-07T12:46:45Z</time>
      </trkpt>
      <trkpt lat="46.99568" lon="5.81652">
        <ele>335.1</ele>
        <time>2020-07-07T12:46:47Z</time>
      </trkpt>
      <trkpt lat="46.99563" lon="5.81651">
        <ele>335.1</ele>
        <time>2020-07-07T12:46:52Z</time>
      </trkpt>
      <trkpt lat="46.99555" lon="5.81648">
        <ele>336.2</ele>
        <time>2020-07-07T12:47:22Z</time>
      </trkpt>
      <trkpt lat="46.99551" lon="5.81646">
        <ele>335.6</ele>
        <time>2020-07-07T12:47:30Z</time>
      </trkpt>
      <trkpt lat="46.99545" lon="5.81644">
        <ele>335.2</ele>
        <time>2020-07-07T12:47:37Z</time>
      </trkpt>
      <trkpt lat="46.9954" lon="5.81643">
        <ele>335.1</ele>
        <time>2020-07-07T12:47:39Z</time>
      </trkpt>
      <trkpt lat="46.99535" lon="5.8164">
        <ele>334.9</ele>
        <time>2020-07-07T12:47:43Z</time>
      </trkpt>
      <trkpt lat="46.99531" lon="5.81637">
        <ele>334.8</ele>
        <time>2020-07-07T12:47:47Z</time>
      </trkpt>
      <trkpt lat="46.99525" lon="5.81633">
        <ele>334.7</ele>
        <time>2020-07-07T12:47:53Z</time>
      </trkpt>
      <trkpt lat="46.99518" lon="5.81628">
        <ele>334.1</ele>
        <time>2020-07-07T12:48:05Z</time>
      </trkpt>
      <trkpt lat="46.99514" lon="5.81627">
        <ele>333.7</ele>
        <time>2020-07-07T12:48:09Z</time>
      </trkpt>
      <trkpt lat="46.99509" lon="5.81624">
        <ele>333.5</ele>
        <time>2020-07-07T12:48:22Z</time>
      </trkpt>
      <trkpt lat="46.99496" lon="5.8161">
        <ele>329.4</ele>
        <time>2020-07-07T12:48:49Z</time>
      </trkpt>
      <trkpt lat="46.99484" lon="5.81616">
        <ele>322.8</ele>
        <time>2020-07-07T12:49:35Z</time>
      </trkpt>
      <trkpt lat="46.99482" lon="5.81621">
        <ele>321.8</ele>
        <time>2020-07-07T12:49:41Z</time>
      </trkpt>
      <trkpt lat="46.9948" lon="5.81628">
        <ele>321.1</ele>
        <time>2020-07-07T12:49:44Z</time>
      </trkpt>
      <trkpt lat="46.99478" lon="5.81634">
        <ele>319</ele>
        <time>2020-07-07T12:49:55Z</time>
      </trkpt>
      <trkpt lat="46.99476" lon="5.81649">
        <ele>316.9</ele>
        <time>2020-07-07T12:50:21Z</time>
      </trkpt>
      <trkpt lat="46.99474" lon="5.81657">
        <ele>316.5</ele>
        <time>2020-07-07T12:50:29Z</time>
      </trkpt>
      <trkpt lat="46.99473" lon="5.81664">
        <ele>316.5</ele>
        <time>2020-07-07T12:50:31Z</time>
      </trkpt>
      <trkpt lat="46.9947" lon="5.81679">
        <ele>316.6</ele>
        <time>2020-07-07T12:50:41Z</time>
      </trkpt>
      <trkpt lat="46.9947" lon="5.81686">
        <ele>316.6</ele>
        <time>2020-07-07T12:50:44Z</time>
      </trkpt>
      <trkpt lat="46.99469" lon="5.81694">
        <ele>316.4</ele>
        <time>2020-07-07T12:50:50Z</time>
      </trkpt>
      <trkpt lat="46.99468" lon="5.81701">
        <ele>316.2</ele>
        <time>2020-07-07T12:50:54Z</time>
      </trkpt>
      <trkpt lat="46.99468" lon="5.8171">
        <ele>316</ele>
        <time>2020-07-07T12:50:57Z</time>
      </trkpt>
      <trkpt lat="46.99464" lon="5.81724">
        <ele>316.1</ele>
        <time>2020-07-07T12:51:18Z</time>
      </trkpt>
      <trkpt lat="46.99458" lon="5.81736">
        <ele>313</ele>
        <time>2020-07-07T12:52:15Z</time>
      </trkpt>
      <trkpt lat="46.99456" lon="5.81743">
        <ele>311.8</ele>
        <time>2020-07-07T12:52:25Z</time>
      </trkpt>
      <trkpt lat="46.99455" lon="5.8175">
        <ele>310.8</ele>
        <time>2020-07-07T12:52:33Z</time>
      </trkpt>
      <trkpt lat="46.99454" lon="5.81758">
        <ele>310.5</ele>
        <time>2020-07-07T12:52:37Z</time>
      </trkpt>
      <trkpt lat="46.99452" lon="5.81766">
        <ele>309.9</ele>
        <time>2020-07-07T12:52:44Z</time>
      </trkpt>
      <trkpt lat="46.99451" lon="5.81773">
        <ele>309.2</ele>
        <time>2020-07-07T12:52:50Z</time>
      </trkpt>
      <trkpt lat="46.99449" lon="5.8178">
        <ele>307.6</ele>
        <time>2020-07-07T12:53:02Z</time>
      </trkpt>
      <trkpt lat="46.99445" lon="5.81787">
        <ele>306.1</ele>
        <time>2020-07-07T12:53:10Z</time>
      </trkpt>
      <trkpt lat="46.99443" lon="5.81793">
        <ele>303.6</ele>
        <time>2020-07-07T12:53:24Z</time>
      </trkpt>
      <trkpt lat="46.99442" lon="5.818">
        <ele>302.5</ele>
        <time>2020-07-07T12:53:45Z</time>
      </trkpt>
      <trkpt lat="46.99441" lon="5.8181">
        <ele>299.3</ele>
        <time>2020-07-07T12:54:27Z</time>
      </trkpt>
      <trkpt lat="46.99443" lon="5.81817">
        <ele>298.8</ele>
        <time>2020-07-07T12:54:31Z</time>
      </trkpt>
      <trkpt lat="46.99445" lon="5.81824">
        <ele>298.7</ele>
        <time>2020-07-07T12:54:33Z</time>
      </trkpt>
      <trkpt lat="46.99445" lon="5.81833">
        <ele>298.5</ele>
        <time>2020-07-07T12:54:36Z</time>
      </trkpt>
      <trkpt lat="46.99448" lon="5.81838">
        <ele>298.7</ele>
        <time>2020-07-07T12:54:42Z</time>
      </trkpt>
      <trkpt lat="46.99451" lon="5.81845">
        <ele>298.8</ele>
        <time>2020-07-07T12:54:45Z</time>
      </trkpt>
      <trkpt lat="46.99455" lon="5.81851">
        <ele>299</ele>
        <time>2020-07-07T12:54:50Z</time>
      </trkpt>
      <trkpt lat="46.99457" lon="5.81856">
        <ele>299.2</ele>
        <time>2020-07-07T12:54:53Z</time>
      </trkpt>
      <trkpt lat="46.9946" lon="5.81861">
        <ele>299.4</ele>
        <time>2020-07-07T12:55:00Z</time>
      </trkpt>
      <trkpt lat="46.99465" lon="5.81865">
        <ele>299.6</ele>
        <time>2020-07-07T12:55:07Z</time>
      </trkpt>
      <trkpt lat="46.99469" lon="5.81868">
        <ele>300.3</ele>
        <time>2020-07-07T12:55:16Z</time>
      </trkpt>
      <trkpt lat="46.99473" lon="5.81871">
        <ele>300.7</ele>
        <time>2020-07-07T12:55:20Z</time>
      </trkpt>
      <trkpt lat="46.99477" lon="5.81874">
        <ele>301.5</ele>
        <time>2020-07-07T12:55:27Z</time>
      </trkpt>
      <trkpt lat="46.99482" lon="5.81877">
        <ele>302.2</ele>
        <time>2020-07-07T12:55:34Z</time>
      </trkpt>
      <trkpt lat="46.99486" lon="5.81879">
        <ele>302.5</ele>
        <time>2020-07-07T12:55:40Z</time>
      </trkpt>
      <trkpt lat="46.9949" lon="5.81883">
        <ele>302.9</ele>
        <time>2020-07-07T12:55:46Z</time>
      </trkpt>
      <trkpt lat="46.99493" lon="5.8189">
        <ele>303.3</ele>
        <time>2020-07-07T12:55:53Z</time>
      </trkpt>
      <trkpt lat="46.99498" lon="5.81892">
        <ele>303.4</ele>
        <time>2020-07-07T12:55:59Z</time>
      </trkpt>
      <trkpt lat="46.99503" lon="5.81891">
        <ele>303</ele>
        <time>2020-07-07T12:56:06Z</time>
      </trkpt>
      <trkpt lat="46.99507" lon="5.81893">
        <ele>302</ele>
        <time>2020-07-07T12:56:14Z</time>
      </trkpt>
      <trkpt lat="46.99512" lon="5.81892">
        <ele>300.9</ele>
        <time>2020-07-07T12:56:20Z</time>
      </trkpt>
      <trkpt lat="46.99518" lon="5.81894">
        <ele>299.5</ele>
        <time>2020-07-07T12:56:28Z</time>
      </trkpt>
      <trkpt lat="46.99529" lon="5.81897">
        <ele>297.4</ele>
        <time>2020-07-07T12:56:42Z</time>
      </trkpt>
      <trkpt lat="46.99535" lon="5.81898">
        <ele>296.8</ele>
        <time>2020-07-07T12:56:57Z</time>
      </trkpt>
      <trkpt lat="46.99551" lon="5.819">
        <ele>297.4</ele>
        <time>2020-07-07T12:57:08Z</time>
      </trkpt>
      <trkpt lat="46.99556" lon="5.81901">
        <ele>298.1</ele>
        <time>2020-07-07T12:57:14Z</time>
      </trkpt>
      <trkpt lat="46.99561" lon="5.81901">
        <ele>299.1</ele>
        <time>2020-07-07T12:57:21Z</time>
      </trkpt>
      <trkpt lat="46.99566" lon="5.81902">
        <ele>300.4</ele>
        <time>2020-07-07T12:57:30Z</time>
      </trkpt>
      <trkpt lat="46.99579" lon="5.81908">
        <ele>302.7</ele>
        <time>2020-07-07T12:57:55Z</time>
      </trkpt>
      <trkpt lat="46.99583" lon="5.81909">
        <ele>303.5</ele>
        <time>2020-07-07T12:57:59Z</time>
      </trkpt>
      <trkpt lat="46.99589" lon="5.81911">
        <ele>305</ele>
        <time>2020-07-07T12:58:06Z</time>
      </trkpt>
      <trkpt lat="46.99595" lon="5.81912">
        <ele>306.5</ele>
        <time>2020-07-07T12:58:16Z</time>
      </trkpt>
      <trkpt lat="46.996" lon="5.81912">
        <ele>306.4</ele>
        <time>2020-07-07T12:58:18Z</time>
      </trkpt>
      <trkpt lat="46.99605" lon="5.81913">
        <ele>306.3</ele>
        <time>2020-07-07T12:58:21Z</time>
      </trkpt>
      <trkpt lat="46.9961" lon="5.81916">
        <ele>306.1</ele>
        <time>2020-07-07T12:58:24Z</time>
      </trkpt>
      <trkpt lat="46.99616" lon="5.81918">
        <ele>305.5</ele>
        <time>2020-07-07T12:58:28Z</time>
      </trkpt>
      <trkpt lat="46.99621" lon="5.81919">
        <ele>304.6</ele>
        <time>2020-07-07T12:58:32Z</time>
      </trkpt>
      <trkpt lat="46.99632" lon="5.81922">
        <ele>297.1</ele>
        <time>2020-07-07T12:58:51Z</time>
      </trkpt>
      <trkpt lat="46.99636" lon="5.81924">
        <ele>296.2</ele>
        <time>2020-07-07T12:58:55Z</time>
      </trkpt>
      <trkpt lat="46.99678" lon="5.81947">
        <ele>283.6</ele>
        <time>2020-07-07T13:00:29Z</time>
      </trkpt>
      <trkpt lat="46.99683" lon="5.81949">
        <ele>284.7</ele>
        <time>2020-07-07T13:00:37Z</time>
      </trkpt>
      <trkpt lat="46.99687" lon="5.81953">
        <ele>285.8</ele>
        <time>2020-07-07T13:00:42Z</time>
      </trkpt>
      <trkpt lat="46.99697" lon="5.81964">
        <ele>292.3</ele>
        <time>2020-07-07T13:01:16Z</time>
      </trkpt>
      <trkpt lat="46.99709" lon="5.81974">
        <ele>298.8</ele>
        <time>2020-07-07T13:01:28Z</time>
      </trkpt>
      <trkpt lat="46.99712" lon="5.81979">
        <ele>300.3</ele>
        <time>2020-07-07T13:01:33Z</time>
      </trkpt>
      <trkpt lat="46.99716" lon="5.81984">
        <ele>301.4</ele>
        <time>2020-07-07T13:01:37Z</time>
      </trkpt>
      <trkpt lat="46.9972" lon="5.8199">
        <ele>302.2</ele>
        <time>2020-07-07T13:01:41Z</time>
      </trkpt>
      <trkpt lat="46.99723" lon="5.81995">
        <ele>302.6</ele>
        <time>2020-07-07T13:01:46Z</time>
      </trkpt>
      <trkpt lat="46.99728" lon="5.81999">
        <ele>303</ele>
        <time>2020-07-07T13:01:50Z</time>
      </trkpt>
      <trkpt lat="46.99732" lon="5.82005">
        <ele>303.6</ele>
        <time>2020-07-07T13:01:54Z</time>
      </trkpt>
      <trkpt lat="46.99737" lon="5.82008">
        <ele>304.7</ele>
        <time>2020-07-07T13:02:03Z</time>
      </trkpt>
      <trkpt lat="46.99742" lon="5.82011">
        <ele>304.9</ele>
        <time>2020-07-07T13:02:08Z</time>
      </trkpt>
      <trkpt lat="46.99746" lon="5.82016">
        <ele>304.7</ele>
        <time>2020-07-07T13:02:12Z</time>
      </trkpt>
      <trkpt lat="46.99749" lon="5.82022">
        <ele>304.3</ele>
        <time>2020-07-07T13:02:18Z</time>
      </trkpt>
      <trkpt lat="46.99753" lon="5.82027">
        <ele>303.3</ele>
        <time>2020-07-07T13:02:25Z</time>
      </trkpt>
      <trkpt lat="46.99765" lon="5.82037">
        <ele>296.2</ele>
        <time>2020-07-07T13:02:48Z</time>
      </trkpt>
      <trkpt lat="46.99774" lon="5.82048">
        <ele>290</ele>
        <time>2020-07-07T13:03:06Z</time>
      </trkpt>
      <trkpt lat="46.99783" lon="5.82057">
        <ele>285.1</ele>
        <time>2020-07-07T13:03:19Z</time>
      </trkpt>
      <trkpt lat="46.99788" lon="5.8206">
        <ele>284.4</ele>
        <time>2020-07-07T13:03:23Z</time>
      </trkpt>
      <trkpt lat="46.99804" lon="5.82078">
        <ele>277.3</ele>
        <time>2020-07-07T13:03:50Z</time>
      </trkpt>
      <trkpt lat="46.99808" lon="5.82082">
        <ele>276.3</ele>
        <time>2020-07-07T13:03:55Z</time>
      </trkpt>
      <trkpt lat="46.99812" lon="5.82085">
        <ele>275.1</ele>
        <time>2020-07-07T13:04:01Z</time>
      </trkpt>
      <trkpt lat="46.99817" lon="5.82088">
        <ele>273.6</ele>
        <time>2020-07-07T13:04:07Z</time>
      </trkpt>
      <trkpt lat="46.99821" lon="5.8209">
        <ele>272.2</ele>
        <time>2020-07-07T13:04:13Z</time>
      </trkpt>
      <trkpt lat="46.99826" lon="5.82092">
        <ele>271.5</ele>
        <time>2020-07-07T13:04:18Z</time>
      </trkpt>
      <trkpt lat="46.9983" lon="5.82095">
        <ele>271.1</ele>
        <time>2020-07-07T13:04:21Z</time>
      </trkpt>
      <trkpt lat="46.99835" lon="5.82098">
        <ele>270.8</ele>
        <time>2020-07-07T13:04:25Z</time>
      </trkpt>
      <trkpt lat="46.99839" lon="5.82102">
        <ele>270.7</ele>
        <time>2020-07-07T13:04:30Z</time>
      </trkpt>
      <trkpt lat="46.99844" lon="5.82105">
        <ele>270.7</ele>
        <time>2020-07-07T13:04:35Z</time>
      </trkpt>
      <trkpt lat="46.99849" lon="5.82108">
        <ele>271</ele>
        <time>2020-07-07T13:04:39Z</time>
      </trkpt>
      <trkpt lat="46.99854" lon="5.82111">
        <ele>271.3</ele>
        <time>2020-07-07T13:04:44Z</time>
      </trkpt>
      <trkpt lat="46.99859" lon="5.82114">
        <ele>271.5</ele>
        <time>2020-07-07T13:04:50Z</time>
      </trkpt>
      <trkpt lat="46.99863" lon="5.82117">
        <ele>271.3</ele>
        <time>2020-07-07T13:04:56Z</time>
      </trkpt>
      <trkpt lat="46.99867" lon="5.82122">
        <ele>271.2</ele>
        <time>2020-07-07T13:05:03Z</time>
      </trkpt>
      <trkpt lat="46.99872" lon="5.82127">
        <ele>271.1</ele>
        <time>2020-07-07T13:05:08Z</time>
      </trkpt>
      <trkpt lat="46.99876" lon="5.82131">
        <ele>271.2</ele>
        <time>2020-07-07T13:05:12Z</time>
      </trkpt>
      <trkpt lat="46.9988" lon="5.82134">
        <ele>271.3</ele>
        <time>2020-07-07T13:05:18Z</time>
      </trkpt>
      <trkpt lat="46.99884" lon="5.82138">
        <ele>271.2</ele>
        <time>2020-07-07T13:05:24Z</time>
      </trkpt>
      <trkpt lat="46.99887" lon="5.82143">
        <ele>271</ele>
        <time>2020-07-07T13:05:30Z</time>
      </trkpt>
      <trkpt lat="46.99892" lon="5.82145">
        <ele>270.1</ele>
        <time>2020-07-07T13:05:37Z</time>
      </trkpt>
      <trkpt lat="46.99897" lon="5.82148">
        <ele>268.9</ele>
        <time>2020-07-07T13:05:44Z</time>
      </trkpt>
      <trkpt lat="46.99902" lon="5.8215">
        <ele>268.1</ele>
        <time>2020-07-07T13:05:49Z</time>
      </trkpt>
      <trkpt lat="46.99906" lon="5.82154">
        <ele>267.5</ele>
        <time>2020-07-07T13:05:54Z</time>
      </trkpt>
      <trkpt lat="46.99909" lon="5.82159">
        <ele>266.8</ele>
        <time>2020-07-07T13:06:01Z</time>
      </trkpt>
      <trkpt lat="46.99922" lon="5.82169">
        <ele>263.2</ele>
        <time>2020-07-07T13:06:20Z</time>
      </trkpt>
      <trkpt lat="46.99926" lon="5.8217">
        <ele>262.4</ele>
        <time>2020-07-07T13:06:26Z</time>
      </trkpt>
      <trkpt lat="46.99931" lon="5.82173">
        <ele>261.7</ele>
        <time>2020-07-07T13:06:31Z</time>
      </trkpt>
      <trkpt lat="46.99936" lon="5.82176">
        <ele>260.4</ele>
        <time>2020-07-07T13:06:38Z</time>
      </trkpt>
      <trkpt lat="46.99962" lon="5.82185">
        <ele>256.2</ele>
        <time>2020-07-07T13:07:12Z</time>
      </trkpt>
      <trkpt lat="46.99967" lon="5.82189">
        <ele>256.9</ele>
        <time>2020-07-07T13:07:16Z</time>
      </trkpt>
      <trkpt lat="46.99971" lon="5.82192">
        <ele>257.5</ele>
        <time>2020-07-07T13:07:20Z</time>
      </trkpt>
      <trkpt lat="46.99976" lon="5.82196">
        <ele>258.3</ele>
        <time>2020-07-07T13:07:24Z</time>
      </trkpt>
      <trkpt lat="46.99981" lon="5.82199">
        <ele>259.5</ele>
        <time>2020-07-07T13:07:30Z</time>
      </trkpt>
      <trkpt lat="46.99986" lon="5.82202">
        <ele>260.9</ele>
        <time>2020-07-07T13:07:36Z</time>
      </trkpt>
      <trkpt lat="46.99991" lon="5.82204">
        <ele>261.7</ele>
        <time>2020-07-07T13:07:40Z</time>
      </trkpt>
      <trkpt lat="46.99996" lon="5.82208">
        <ele>262.4</ele>
        <time>2020-07-07T13:07:44Z</time>
      </trkpt>
      <trkpt lat="47.00002" lon="5.82212">
        <ele>262.8</ele>
        <time>2020-07-07T13:07:48Z</time>
      </trkpt>
      <trkpt lat="47.00007" lon="5.82215">
        <ele>263.2</ele>
        <time>2020-07-07T13:07:52Z</time>
      </trkpt>
      <trkpt lat="47.00012" lon="5.82217">
        <ele>263.6</ele>
        <time>2020-07-07T13:07:57Z</time>
      </trkpt>
      <trkpt lat="47.00017" lon="5.82219">
        <ele>263.4</ele>
        <time>2020-07-07T13:08:07Z</time>
      </trkpt>
      <trkpt lat="47.00021" lon="5.82218">
        <ele>262.9</ele>
        <time>2020-07-07T13:08:12Z</time>
      </trkpt>
      <trkpt lat="47.00026" lon="5.8222">
        <ele>262.2</ele>
        <time>2020-07-07T13:08:17Z</time>
      </trkpt>
      <trkpt lat="47.0003" lon="5.82223">
        <ele>261.3</ele>
        <time>2020-07-07T13:08:22Z</time>
      </trkpt>
      <trkpt lat="47.00034" lon="5.82227">
        <ele>260</ele>
        <time>2020-07-07T13:08:29Z</time>
      </trkpt>
      <trkpt lat="47.00038" lon="5.82231">
        <ele>258.4</ele>
        <time>2020-07-07T13:08:37Z</time>
      </trkpt>
      <trkpt lat="47.00043" lon="5.82233">
        <ele>257</ele>
        <time>2020-07-07T13:08:43Z</time>
      </trkpt>
      <trkpt lat="47.00047" lon="5.82236">
        <ele>255.1</ele>
        <time>2020-07-07T13:08:51Z</time>
      </trkpt>
      <trkpt lat="47.00049" lon="5.82242">
        <ele>254.2</ele>
        <time>2020-07-07T13:08:56Z</time>
      </trkpt>
      <trkpt lat="47.00053" lon="5.82247">
        <ele>252.9</ele>
        <time>2020-07-07T13:09:02Z</time>
      </trkpt>
      <trkpt lat="47.00061" lon="5.82255">
        <ele>249.9</ele>
        <time>2020-07-07T13:09:15Z</time>
      </trkpt>
      <trkpt lat="47.00065" lon="5.82258">
        <ele>248.7</ele>
        <time>2020-07-07T13:09:21Z</time>
      </trkpt>
      <trkpt lat="47.00067" lon="5.82265">
        <ele>247.3</ele>
        <time>2020-07-07T13:09:28Z</time>
      </trkpt>
      <trkpt lat="47.00073" lon="5.82276">
        <ele>244.9</ele>
        <time>2020-07-07T13:09:51Z</time>
      </trkpt>
      <trkpt lat="47.00079" lon="5.82273">
        <ele>244.6</ele>
        <time>2020-07-07T13:09:57Z</time>
      </trkpt>
      <trkpt lat="47.00088" lon="5.82264">
        <ele>242.1</ele>
        <time>2020-07-07T13:10:15Z</time>
      </trkpt>
      <trkpt lat="47.00094" lon="5.82262">
        <ele>241.8</ele>
        <time>2020-07-07T13:10:18Z</time>
      </trkpt>
      <trkpt lat="47.00099" lon="5.8226">
        <ele>241.1</ele>
        <time>2020-07-07T13:10:22Z</time>
      </trkpt>
      <trkpt lat="47.00104" lon="5.82259">
        <ele>240.3</ele>
        <time>2020-07-07T13:10:26Z</time>
      </trkpt>
      <trkpt lat="47.00109" lon="5.82259">
        <ele>239.1</ele>
        <time>2020-07-07T13:10:31Z</time>
      </trkpt>
      <trkpt lat="47.00115" lon="5.82258">
        <ele>238.3</ele>
        <time>2020-07-07T13:10:35Z</time>
      </trkpt>
      <trkpt lat="47.00129" lon="5.82254">
        <ele>236.4</ele>
        <time>2020-07-07T13:11:06Z</time>
      </trkpt>
      <trkpt lat="47.00134" lon="5.82253">
        <ele>236.3</ele>
        <time>2020-07-07T13:11:11Z</time>
      </trkpt>
      <trkpt lat="47.00139" lon="5.82253">
        <ele>236</ele>
        <time>2020-07-07T13:11:16Z</time>
      </trkpt>
      <trkpt lat="47.00144" lon="5.82255">
        <ele>235.6</ele>
        <time>2020-07-07T13:11:21Z</time>
      </trkpt>
      <trkpt lat="47.00148" lon="5.82256">
        <ele>235.2</ele>
        <time>2020-07-07T13:11:27Z</time>
      </trkpt>
      <trkpt lat="47.00153" lon="5.82256">
        <ele>234.9</ele>
        <time>2020-07-07T13:11:33Z</time>
      </trkpt>
      <trkpt lat="47.00158" lon="5.82258">
        <ele>234.7</ele>
        <time>2020-07-07T13:11:39Z</time>
      </trkpt>
      <trkpt lat="47.00163" lon="5.82259">
        <ele>234.2</ele>
        <time>2020-07-07T13:11:44Z</time>
      </trkpt>
      <trkpt lat="47.00174" lon="5.82261">
        <ele>234.9</ele>
        <time>2020-07-07T13:11:52Z</time>
      </trkpt>
      <trkpt lat="47.0018" lon="5.82262">
        <ele>235</ele>
        <time>2020-07-07T13:11:54Z</time>
      </trkpt>
      <trkpt lat="47.00186" lon="5.82263">
        <ele>235.6</ele>
        <time>2020-07-07T13:11:58Z</time>
      </trkpt>
      <trkpt lat="47.00191" lon="5.82264">
        <ele>236.5</ele>
        <time>2020-07-07T13:12:04Z</time>
      </trkpt>
      <trkpt lat="47.00196" lon="5.82265">
        <ele>237.5</ele>
        <time>2020-07-07T13:12:10Z</time>
      </trkpt>
      <trkpt lat="47.002" lon="5.82267">
        <ele>238.4</ele>
        <time>2020-07-07T13:12:16Z</time>
      </trkpt>
      <trkpt lat="47.00206" lon="5.82268">
        <ele>239.2</ele>
        <time>2020-07-07T13:12:25Z</time>
      </trkpt>
      <trkpt lat="47.0021" lon="5.8227">
        <ele>239.7</ele>
        <time>2020-07-07T13:12:30Z</time>
      </trkpt>
      <trkpt lat="47.00215" lon="5.82274">
        <ele>239.9</ele>
        <time>2020-07-07T13:12:34Z</time>
      </trkpt>
      <trkpt lat="47.00218" lon="5.82278">
        <ele>239.9</ele>
        <time>2020-07-07T13:12:36Z</time>
      </trkpt>
      <trkpt lat="47.00223" lon="5.82283">
        <ele>239.9</ele>
        <time>2020-07-07T13:12:39Z</time>
      </trkpt>
      <trkpt lat="47.00228" lon="5.82287">
        <ele>239.8</ele>
        <time>2020-07-07T13:12:42Z</time>
      </trkpt>
      <trkpt lat="47.00233" lon="5.82291">
        <ele>239.7</ele>
        <time>2020-07-07T13:12:46Z</time>
      </trkpt>
      <trkpt lat="47.00238" lon="5.82295">
        <ele>239.6</ele>
        <time>2020-07-07T13:12:50Z</time>
      </trkpt>
      <trkpt lat="47.00243" lon="5.82297">
        <ele>239.4</ele>
        <time>2020-07-07T13:12:54Z</time>
      </trkpt>
      <trkpt lat="47.00247" lon="5.82301">
        <ele>238.8</ele>
        <time>2020-07-07T13:12:59Z</time>
      </trkpt>
      <trkpt lat="47.00251" lon="5.82304">
        <ele>237.5</ele>
        <time>2020-07-07T13:13:05Z</time>
      </trkpt>
      <trkpt lat="47.00256" lon="5.82309">
        <ele>235.8</ele>
        <time>2020-07-07T13:13:11Z</time>
      </trkpt>
      <trkpt lat="47.0026" lon="5.82312">
        <ele>234.8</ele>
        <time>2020-07-07T13:13:17Z</time>
      </trkpt>
      <trkpt lat="47.00264" lon="5.82317">
        <ele>234.3</ele>
        <time>2020-07-07T13:13:21Z</time>
      </trkpt>
      <trkpt lat="47.00268" lon="5.82321">
        <ele>233.7</ele>
        <time>2020-07-07T13:13:26Z</time>
      </trkpt>
      <trkpt lat="47.00272" lon="5.82325">
        <ele>232.8</ele>
        <time>2020-07-07T13:13:33Z</time>
      </trkpt>
      <trkpt lat="47.00276" lon="5.82329">
        <ele>232.5</ele>
        <time>2020-07-07T13:13:37Z</time>
      </trkpt>
      <trkpt lat="47.0028" lon="5.82333">
        <ele>232.4</ele>
        <time>2020-07-07T13:13:41Z</time>
      </trkpt>
      <trkpt lat="47.00285" lon="5.82338">
        <ele>232.3</ele>
        <time>2020-07-07T13:13:46Z</time>
      </trkpt>
      <trkpt lat="47.00289" lon="5.82342">
        <ele>232.3</ele>
        <time>2020-07-07T13:13:50Z</time>
      </trkpt>
      <trkpt lat="47.00291" lon="5.82347">
        <ele>232.4</ele>
        <time>2020-07-07T13:13:56Z</time>
      </trkpt>
      <trkpt lat="47.00295" lon="5.82351">
        <ele>232.3</ele>
        <time>2020-07-07T13:14:01Z</time>
      </trkpt>
      <trkpt lat="47.003" lon="5.82355">
        <ele>232.2</ele>
        <time>2020-07-07T13:14:06Z</time>
      </trkpt>
      <trkpt lat="47.00303" lon="5.8236">
        <ele>232</ele>
        <time>2020-07-07T13:14:13Z</time>
      </trkpt>
      <trkpt lat="47.00313" lon="5.82367">
        <ele>231.8</ele>
        <time>2020-07-07T13:14:25Z</time>
      </trkpt>
      <trkpt lat="47.00318" lon="5.82367">
        <ele>231.9</ele>
        <time>2020-07-07T13:14:28Z</time>
      </trkpt>
      <trkpt lat="47.00323" lon="5.82367">
        <ele>232.2</ele>
        <time>2020-07-07T13:14:32Z</time>
      </trkpt>
      <trkpt lat="47.00328" lon="5.82365">
        <ele>232.5</ele>
        <time>2020-07-07T13:14:39Z</time>
      </trkpt>
      <trkpt lat="47.00332" lon="5.82361">
        <ele>232.2</ele>
        <time>2020-07-07T13:14:45Z</time>
      </trkpt>
      <trkpt lat="47.00336" lon="5.82357">
        <ele>231.8</ele>
        <time>2020-07-07T13:14:49Z</time>
      </trkpt>
      <trkpt lat="47.00341" lon="5.82353">
        <ele>231.4</ele>
        <time>2020-07-07T13:14:54Z</time>
      </trkpt>
      <trkpt lat="47.00343" lon="5.82347">
        <ele>231.2</ele>
        <time>2020-07-07T13:15:00Z</time>
      </trkpt>
      <trkpt lat="47.00348" lon="5.82343">
        <ele>231.2</ele>
        <time>2020-07-07T13:15:05Z</time>
      </trkpt>
      <trkpt lat="47.00352" lon="5.82341">
        <ele>231.5</ele>
        <time>2020-07-07T13:15:08Z</time>
      </trkpt>
      <trkpt lat="47.00356" lon="5.82337">
        <ele>231.9</ele>
        <time>2020-07-07T13:15:13Z</time>
      </trkpt>
      <trkpt lat="47.0036" lon="5.82333">
        <ele>231.9</ele>
        <time>2020-07-07T13:15:27Z</time>
      </trkpt>
      <trkpt lat="47.00356" lon="5.8233">
        <ele>234.9</ele>
        <time>2020-07-07T13:16:43Z</time>
      </trkpt>
      <trkpt lat="47.00359" lon="5.8233">
        <ele>247.2</ele>
        <time>2020-07-07T13:21:50Z</time>
      </trkpt>
      <trkpt lat="47.00362" lon="5.82336">
        <ele>246.7</ele>
        <time>2020-07-07T13:21:53Z</time>
      </trkpt>
    </trkseg>
  </trk>
</gpx>